<?xml version="1.0" encoding="UTF-8" standalone="no" ?>
<gpx xmlns="http://www.topografix.com/GPX/1/1" xmlns:xsi="http://www.w3.org/2001/XMLSchema-instance" xsi:schemaLocation="http://www.topografix.com/GPX/1/1 http://www.topografix.com/GPX/1/1/gpx.xsd" version="1.1" creator="VisuGPX - https://www.visugpx.com">
  <metadata>
    <name>RANDO SOLIGNAC SOUS ROCHE 26 KM</name>
    <desc><![CDATA[RANDO SOLIGNAC SOUS ROCHE 26 KM.DEPART ARRIVEE RETOURNAC.LINGOUSTRE.SOLIGNAC.LES EYSSARTS.CRESPINHAC.PONTVIANNE.SARLANGES.LE CORTIAL.JUSSAC.]]></desc>
  </metadata>
  <trk>
    <name><![CDATA[24-FEV-22 17:07:37]]></name>
    <extensions>
      <line xmlns="http://www.topografix.com/GPX/gpx_style/0/2">
        <color>0000FF</color>
        <width>4</width>
      </line>
    </extensions>
    <trkseg>
      <trkpt lat="45.20227" lon="4.02912">
        <ele>527.9</ele>
        <time>2022-02-24T08:26:29Z</time>
      </trkpt>
      <trkpt lat="45.20249" lon="4.02885">
        <ele>529.82</ele>
        <time>2022-02-24T08:26:48Z</time>
      </trkpt>
      <trkpt lat="45.20269" lon="4.02867">
        <ele>531.27</ele>
        <time>2022-02-24T08:27:04Z</time>
      </trkpt>
      <trkpt lat="45.2029" lon="4.02874">
        <ele>533.67</ele>
        <time>2022-02-24T08:27:20Z</time>
      </trkpt>
      <trkpt lat="45.20314" lon="4.02888">
        <ele>535.11</ele>
        <time>2022-02-24T08:27:39Z</time>
      </trkpt>
      <trkpt lat="45.20337" lon="4.02899">
        <ele>537.51</ele>
        <time>2022-02-24T08:27:57Z</time>
      </trkpt>
      <trkpt lat="45.2036" lon="4.02909">
        <ele>538.48</ele>
        <time>2022-02-24T08:28:14Z</time>
      </trkpt>
      <trkpt lat="45.20383" lon="4.02915">
        <ele>538.96</ele>
        <time>2022-02-24T08:28:30Z</time>
      </trkpt>
      <trkpt lat="45.20392" lon="4.02917">
        <ele>539.44</ele>
        <time>2022-02-24T08:28:37Z</time>
      </trkpt>
      <trkpt lat="45.20415" lon="4.02924">
        <ele>541.84</ele>
        <time>2022-02-24T08:28:54Z</time>
      </trkpt>
      <trkpt lat="45.20438" lon="4.02933">
        <ele>544.72</ele>
        <time>2022-02-24T08:29:12Z</time>
      </trkpt>
      <trkpt lat="45.2046" lon="4.0294">
        <ele>548.09</ele>
        <time>2022-02-24T08:29:29Z</time>
      </trkpt>
      <trkpt lat="45.20482" lon="4.0295">
        <ele>550.01</ele>
        <time>2022-02-24T08:29:45Z</time>
      </trkpt>
      <trkpt lat="45.20504" lon="4.02961">
        <ele>550.49</ele>
        <time>2022-02-24T08:30:02Z</time>
      </trkpt>
      <trkpt lat="45.20528" lon="4.02973">
        <ele>551.45</ele>
        <time>2022-02-24T08:30:20Z</time>
      </trkpt>
      <trkpt lat="45.20529" lon="4.02973">
        <ele>551.45</ele>
        <time>2022-02-24T08:30:21Z</time>
      </trkpt>
      <trkpt lat="45.20533" lon="4.02968">
        <ele>551.45</ele>
        <time>2022-02-24T08:30:25Z</time>
      </trkpt>
      <trkpt lat="45.20546" lon="4.0294">
        <ele>551.93</ele>
        <time>2022-02-24T08:30:42Z</time>
      </trkpt>
      <trkpt lat="45.20564" lon="4.02904">
        <ele>551.93</ele>
        <time>2022-02-24T08:31:03Z</time>
      </trkpt>
      <trkpt lat="45.20579" lon="4.02871">
        <ele>552.41</ele>
        <time>2022-02-24T08:31:22Z</time>
      </trkpt>
      <trkpt lat="45.20592" lon="4.02832">
        <ele>552.9</ele>
        <time>2022-02-24T08:31:43Z</time>
      </trkpt>
      <trkpt lat="45.20601" lon="4.02792">
        <ele>554.34</ele>
        <time>2022-02-24T08:32:04Z</time>
      </trkpt>
      <trkpt lat="45.20603" lon="4.02762">
        <ele>555.78</ele>
        <time>2022-02-24T08:32:20Z</time>
      </trkpt>
      <trkpt lat="45.20603" lon="4.0276">
        <ele>556.26</ele>
        <time>2022-02-24T08:32:21Z</time>
      </trkpt>
      <trkpt lat="45.206" lon="4.02753">
        <ele>556.74</ele>
        <time>2022-02-24T08:32:26Z</time>
      </trkpt>
      <trkpt lat="45.20579" lon="4.02729">
        <ele>557.22</ele>
        <time>2022-02-24T08:32:46Z</time>
      </trkpt>
      <trkpt lat="45.20558" lon="4.0271">
        <ele>557.7</ele>
        <time>2022-02-24T08:33:05Z</time>
      </trkpt>
      <trkpt lat="45.20536" lon="4.02691">
        <ele>557.7</ele>
        <time>2022-02-24T08:33:23Z</time>
      </trkpt>
      <trkpt lat="45.20515" lon="4.02674">
        <ele>558.18</ele>
        <time>2022-02-24T08:33:41Z</time>
      </trkpt>
      <trkpt lat="45.20494" lon="4.02655">
        <ele>558.66</ele>
        <time>2022-02-24T08:33:58Z</time>
      </trkpt>
      <trkpt lat="45.20481" lon="4.0263">
        <ele>560.59</ele>
        <time>2022-02-24T08:34:15Z</time>
      </trkpt>
      <trkpt lat="45.20479" lon="4.02602">
        <ele>562.03</ele>
        <time>2022-02-24T08:34:30Z</time>
      </trkpt>
      <trkpt lat="45.20473" lon="4.02575">
        <ele>565.87</ele>
        <time>2022-02-24T08:34:46Z</time>
      </trkpt>
      <trkpt lat="45.20466" lon="4.02546">
        <ele>569.72</ele>
        <time>2022-02-24T08:35:03Z</time>
      </trkpt>
      <trkpt lat="45.20462" lon="4.02515">
        <ele>573.08</ele>
        <time>2022-02-24T08:35:21Z</time>
      </trkpt>
      <trkpt lat="45.2046" lon="4.02487">
        <ele>575.01</ele>
        <time>2022-02-24T08:35:36Z</time>
      </trkpt>
      <trkpt lat="45.2047" lon="4.02465">
        <ele>578.37</ele>
        <time>2022-02-24T08:35:52Z</time>
      </trkpt>
      <trkpt lat="45.20489" lon="4.02456">
        <ele>581.25</ele>
        <time>2022-02-24T08:36:08Z</time>
      </trkpt>
      <trkpt lat="45.20511" lon="4.0245">
        <ele>583.66</ele>
        <time>2022-02-24T08:36:24Z</time>
      </trkpt>
      <trkpt lat="45.20531" lon="4.02439">
        <ele>584.62</ele>
        <time>2022-02-24T08:36:40Z</time>
      </trkpt>
      <trkpt lat="45.20548" lon="4.0242">
        <ele>587.5</ele>
        <time>2022-02-24T08:36:57Z</time>
      </trkpt>
      <trkpt lat="45.20566" lon="4.02404">
        <ele>590.39</ele>
        <time>2022-02-24T08:37:14Z</time>
      </trkpt>
      <trkpt lat="45.20584" lon="4.02387">
        <ele>592.79</ele>
        <time>2022-02-24T08:37:31Z</time>
      </trkpt>
      <trkpt lat="45.20604" lon="4.02366">
        <ele>595.67</ele>
        <time>2022-02-24T08:37:50Z</time>
      </trkpt>
      <trkpt lat="45.20623" lon="4.02349">
        <ele>597.12</ele>
        <time>2022-02-24T08:38:07Z</time>
      </trkpt>
      <trkpt lat="45.20642" lon="4.0233">
        <ele>598.56</ele>
        <time>2022-02-24T08:38:24Z</time>
      </trkpt>
      <trkpt lat="45.20659" lon="4.02313">
        <ele>600</ele>
        <time>2022-02-24T08:38:41Z</time>
      </trkpt>
      <trkpt lat="45.2068" lon="4.02295">
        <ele>601.44</ele>
        <time>2022-02-24T08:38:58Z</time>
      </trkpt>
      <trkpt lat="45.20704" lon="4.02284">
        <ele>603.36</ele>
        <time>2022-02-24T08:39:18Z</time>
      </trkpt>
      <trkpt lat="45.20708" lon="4.02283">
        <ele>603.85</ele>
        <time>2022-02-24T08:39:21Z</time>
      </trkpt>
      <trkpt lat="45.20717" lon="4.02281">
        <ele>603.85</ele>
        <time>2022-02-24T08:39:28Z</time>
      </trkpt>
      <trkpt lat="45.2072" lon="4.02279">
        <ele>603.85</ele>
        <time>2022-02-24T08:39:30Z</time>
      </trkpt>
      <trkpt lat="45.20727" lon="4.02278">
        <ele>603.85</ele>
        <time>2022-02-24T08:39:36Z</time>
      </trkpt>
      <trkpt lat="45.20746" lon="4.02279">
        <ele>604.81</ele>
        <time>2022-02-24T08:39:51Z</time>
      </trkpt>
      <trkpt lat="45.20766" lon="4.02285">
        <ele>605.29</ele>
        <time>2022-02-24T08:40:06Z</time>
      </trkpt>
      <trkpt lat="45.20783" lon="4.0229">
        <ele>606.25</ele>
        <time>2022-02-24T08:40:21Z</time>
      </trkpt>
      <trkpt lat="45.20801" lon="4.0229">
        <ele>607.21</ele>
        <time>2022-02-24T08:40:36Z</time>
      </trkpt>
      <trkpt lat="45.20814" lon="4.02288">
        <ele>608.17</ele>
        <time>2022-02-24T08:40:47Z</time>
      </trkpt>
      <trkpt lat="45.20832" lon="4.02283">
        <ele>608.65</ele>
        <time>2022-02-24T08:41:02Z</time>
      </trkpt>
      <trkpt lat="45.20849" lon="4.02277">
        <ele>610.09</ele>
        <time>2022-02-24T08:41:16Z</time>
      </trkpt>
      <trkpt lat="45.20869" lon="4.02278">
        <ele>611.06</ele>
        <time>2022-02-24T08:41:31Z</time>
      </trkpt>
      <trkpt lat="45.20889" lon="4.02296">
        <ele>612.98</ele>
        <time>2022-02-24T08:41:48Z</time>
      </trkpt>
      <trkpt lat="45.2091" lon="4.02322">
        <ele>613.94</ele>
        <time>2022-02-24T08:42:08Z</time>
      </trkpt>
      <trkpt lat="45.20932" lon="4.02348">
        <ele>615.38</ele>
        <time>2022-02-24T08:42:28Z</time>
      </trkpt>
      <trkpt lat="45.20953" lon="4.0236">
        <ele>617.78</ele>
        <time>2022-02-24T08:42:46Z</time>
      </trkpt>
      <trkpt lat="45.2098" lon="4.02355">
        <ele>619.71</ele>
        <time>2022-02-24T08:43:06Z</time>
      </trkpt>
      <trkpt lat="45.21007" lon="4.02347">
        <ele>623.55</ele>
        <time>2022-02-24T08:43:27Z</time>
      </trkpt>
      <trkpt lat="45.21021" lon="4.02346">
        <ele>624.99</ele>
        <time>2022-02-24T08:43:43Z</time>
      </trkpt>
      <trkpt lat="45.2104" lon="4.02348">
        <ele>625.47</ele>
        <time>2022-02-24T08:43:58Z</time>
      </trkpt>
      <trkpt lat="45.21049" lon="4.02348">
        <ele>625.47</ele>
        <time>2022-02-24T08:44:04Z</time>
      </trkpt>
      <trkpt lat="45.21078" lon="4.02344">
        <ele>625.96</ele>
        <time>2022-02-24T08:44:24Z</time>
      </trkpt>
      <trkpt lat="45.21104" lon="4.0234">
        <ele>626.92</ele>
        <time>2022-02-24T08:44:41Z</time>
      </trkpt>
      <trkpt lat="45.2113" lon="4.0234">
        <ele>630.28</ele>
        <time>2022-02-24T08:44:59Z</time>
      </trkpt>
      <trkpt lat="45.21159" lon="4.02345">
        <ele>631.72</ele>
        <time>2022-02-24T08:45:19Z</time>
      </trkpt>
      <trkpt lat="45.2119" lon="4.02352">
        <ele>631.24</ele>
        <time>2022-02-24T08:45:40Z</time>
      </trkpt>
      <trkpt lat="45.21219" lon="4.02354">
        <ele>631.72</ele>
        <time>2022-02-24T08:46:00Z</time>
      </trkpt>
      <trkpt lat="45.21243" lon="4.02354">
        <ele>632.2</ele>
        <time>2022-02-24T08:46:18Z</time>
      </trkpt>
      <trkpt lat="45.21275" lon="4.02349">
        <ele>631.24</ele>
        <time>2022-02-24T08:46:41Z</time>
      </trkpt>
      <trkpt lat="45.21302" lon="4.02341">
        <ele>630.76</ele>
        <time>2022-02-24T08:47:01Z</time>
      </trkpt>
      <trkpt lat="45.21329" lon="4.02332">
        <ele>632.2</ele>
        <time>2022-02-24T08:47:21Z</time>
      </trkpt>
      <trkpt lat="45.21354" lon="4.02324">
        <ele>631.24</ele>
        <time>2022-02-24T08:47:39Z</time>
      </trkpt>
      <trkpt lat="45.21377" lon="4.02317">
        <ele>628.84</ele>
        <time>2022-02-24T08:47:56Z</time>
      </trkpt>
      <trkpt lat="45.214" lon="4.0231">
        <ele>627.88</ele>
        <time>2022-02-24T08:48:13Z</time>
      </trkpt>
      <trkpt lat="45.21422" lon="4.02303">
        <ele>627.4</ele>
        <time>2022-02-24T08:48:29Z</time>
      </trkpt>
      <trkpt lat="45.21451" lon="4.02295">
        <ele>628.84</ele>
        <time>2022-02-24T08:48:49Z</time>
      </trkpt>
      <trkpt lat="45.21481" lon="4.0229">
        <ele>629.32</ele>
        <time>2022-02-24T08:49:09Z</time>
      </trkpt>
      <trkpt lat="45.21507" lon="4.02282">
        <ele>630.76</ele>
        <time>2022-02-24T08:49:27Z</time>
      </trkpt>
      <trkpt lat="45.21534" lon="4.02267">
        <ele>632.68</ele>
        <time>2022-02-24T08:49:47Z</time>
      </trkpt>
      <trkpt lat="45.21557" lon="4.02256">
        <ele>635.09</ele>
        <time>2022-02-24T08:50:04Z</time>
      </trkpt>
      <trkpt lat="45.21576" lon="4.02266">
        <ele>637.49</ele>
        <time>2022-02-24T08:50:21Z</time>
      </trkpt>
      <trkpt lat="45.21596" lon="4.02289">
        <ele>637.97</ele>
        <time>2022-02-24T08:50:40Z</time>
      </trkpt>
      <trkpt lat="45.21612" lon="4.02304">
        <ele>637.49</ele>
        <time>2022-02-24T08:50:55Z</time>
      </trkpt>
      <trkpt lat="45.21629" lon="4.02323">
        <ele>637.97</ele>
        <time>2022-02-24T08:51:11Z</time>
      </trkpt>
      <trkpt lat="45.21645" lon="4.02344">
        <ele>637.97</ele>
        <time>2022-02-24T08:51:27Z</time>
      </trkpt>
      <trkpt lat="45.21668" lon="4.02333">
        <ele>637.97</ele>
        <time>2022-02-24T08:51:43Z</time>
      </trkpt>
      <trkpt lat="45.21689" lon="4.02311">
        <ele>639.41</ele>
        <time>2022-02-24T08:52:01Z</time>
      </trkpt>
      <trkpt lat="45.21697" lon="4.02285">
        <ele>642.78</ele>
        <time>2022-02-24T08:52:18Z</time>
      </trkpt>
      <trkpt lat="45.21694" lon="4.02252">
        <ele>646.14</ele>
        <time>2022-02-24T08:52:36Z</time>
      </trkpt>
      <trkpt lat="45.21693" lon="4.02218">
        <ele>647.59</ele>
        <time>2022-02-24T08:52:54Z</time>
      </trkpt>
      <trkpt lat="45.2169" lon="4.02186">
        <ele>649.03</ele>
        <time>2022-02-24T08:53:11Z</time>
      </trkpt>
      <trkpt lat="45.21687" lon="4.02159">
        <ele>650.95</ele>
        <time>2022-02-24T08:53:25Z</time>
      </trkpt>
      <trkpt lat="45.21684" lon="4.02129">
        <ele>654.31</ele>
        <time>2022-02-24T08:53:42Z</time>
      </trkpt>
      <trkpt lat="45.21682" lon="4.02101">
        <ele>657.68</ele>
        <time>2022-02-24T08:53:58Z</time>
      </trkpt>
      <trkpt lat="45.21681" lon="4.02091">
        <ele>658.16</ele>
        <time>2022-02-24T08:54:04Z</time>
      </trkpt>
      <trkpt lat="45.21681" lon="4.02081">
        <ele>658.16</ele>
        <time>2022-02-24T08:54:09Z</time>
      </trkpt>
      <trkpt lat="45.21677" lon="4.02048">
        <ele>659.12</ele>
        <time>2022-02-24T08:54:26Z</time>
      </trkpt>
      <trkpt lat="45.21672" lon="4.02013">
        <ele>660.56</ele>
        <time>2022-02-24T08:54:44Z</time>
      </trkpt>
      <trkpt lat="45.21665" lon="4.01978">
        <ele>662.49</ele>
        <time>2022-02-24T08:55:02Z</time>
      </trkpt>
      <trkpt lat="45.21657" lon="4.01944">
        <ele>664.41</ele>
        <time>2022-02-24T08:55:20Z</time>
      </trkpt>
      <trkpt lat="45.21651" lon="4.01911">
        <ele>665.37</ele>
        <time>2022-02-24T08:55:38Z</time>
      </trkpt>
      <trkpt lat="45.21639" lon="4.01879">
        <ele>668.73</ele>
        <time>2022-02-24T08:55:57Z</time>
      </trkpt>
      <trkpt lat="45.21625" lon="4.01852">
        <ele>670.66</ele>
        <time>2022-02-24T08:56:15Z</time>
      </trkpt>
      <trkpt lat="45.21619" lon="4.01839">
        <ele>673.54</ele>
        <time>2022-02-24T08:56:24Z</time>
      </trkpt>
      <trkpt lat="45.21618" lon="4.01827">
        <ele>676.91</ele>
        <time>2022-02-24T08:56:32Z</time>
      </trkpt>
      <trkpt lat="45.21622" lon="4.01821">
        <ele>678.83</ele>
        <time>2022-02-24T08:56:38Z</time>
      </trkpt>
      <trkpt lat="45.21642" lon="4.0182">
        <ele>681.71</ele>
        <time>2022-02-24T08:56:53Z</time>
      </trkpt>
      <trkpt lat="45.21662" lon="4.01813">
        <ele>685.56</ele>
        <time>2022-02-24T08:57:09Z</time>
      </trkpt>
      <trkpt lat="45.21685" lon="4.01817">
        <ele>687</ele>
        <time>2022-02-24T08:57:26Z</time>
      </trkpt>
      <trkpt lat="45.21703" lon="4.01834">
        <ele>686.04</ele>
        <time>2022-02-24T08:57:41Z</time>
      </trkpt>
      <trkpt lat="45.21716" lon="4.01831">
        <ele>684.6</ele>
        <time>2022-02-24T08:57:54Z</time>
      </trkpt>
      <trkpt lat="45.21732" lon="4.01816">
        <ele>682.19</ele>
        <time>2022-02-24T08:58:10Z</time>
      </trkpt>
      <trkpt lat="45.21739" lon="4.01805">
        <ele>680.75</ele>
        <time>2022-02-24T08:58:18Z</time>
      </trkpt>
      <trkpt lat="45.21743" lon="4.01803">
        <ele>679.79</ele>
        <time>2022-02-24T08:58:21Z</time>
      </trkpt>
      <trkpt lat="45.21763" lon="4.01783">
        <ele>676.91</ele>
        <time>2022-02-24T08:58:39Z</time>
      </trkpt>
      <trkpt lat="45.21782" lon="4.01768">
        <ele>674.02</ele>
        <time>2022-02-24T08:58:55Z</time>
      </trkpt>
      <trkpt lat="45.21803" lon="4.01756">
        <ele>672.58</ele>
        <time>2022-02-24T08:59:11Z</time>
      </trkpt>
      <trkpt lat="45.2182" lon="4.01745">
        <ele>674.5</ele>
        <time>2022-02-24T08:59:27Z</time>
      </trkpt>
      <trkpt lat="45.21822" lon="4.01742">
        <ele>674.5</ele>
        <time>2022-02-24T08:59:29Z</time>
      </trkpt>
      <trkpt lat="45.21838" lon="4.01732">
        <ele>677.39</ele>
        <time>2022-02-24T08:59:44Z</time>
      </trkpt>
      <trkpt lat="45.21858" lon="4.01719">
        <ele>678.83</ele>
        <time>2022-02-24T09:00:00Z</time>
      </trkpt>
      <trkpt lat="45.21877" lon="4.01708">
        <ele>680.75</ele>
        <time>2022-02-24T09:00:15Z</time>
      </trkpt>
      <trkpt lat="45.21901" lon="4.01698">
        <ele>682.67</ele>
        <time>2022-02-24T09:00:32Z</time>
      </trkpt>
      <trkpt lat="45.21927" lon="4.0169">
        <ele>682.67</ele>
        <time>2022-02-24T09:00:50Z</time>
      </trkpt>
      <trkpt lat="45.21956" lon="4.01682">
        <ele>681.23</ele>
        <time>2022-02-24T09:01:10Z</time>
      </trkpt>
      <trkpt lat="45.21984" lon="4.01677">
        <ele>680.27</ele>
        <time>2022-02-24T09:01:30Z</time>
      </trkpt>
      <trkpt lat="45.22006" lon="4.01673">
        <ele>679.79</ele>
        <time>2022-02-24T09:01:45Z</time>
      </trkpt>
      <trkpt lat="45.22029" lon="4.01668">
        <ele>679.31</ele>
        <time>2022-02-24T09:02:00Z</time>
      </trkpt>
      <trkpt lat="45.22054" lon="4.01663">
        <ele>679.31</ele>
        <time>2022-02-24T09:02:16Z</time>
      </trkpt>
      <trkpt lat="45.22081" lon="4.01658">
        <ele>679.79</ele>
        <time>2022-02-24T09:02:35Z</time>
      </trkpt>
      <trkpt lat="45.22108" lon="4.01652">
        <ele>680.75</ele>
        <time>2022-02-24T09:02:54Z</time>
      </trkpt>
      <trkpt lat="45.2213" lon="4.01648">
        <ele>681.71</ele>
        <time>2022-02-24T09:03:11Z</time>
      </trkpt>
      <trkpt lat="45.22132" lon="4.01635">
        <ele>683.63</ele>
        <time>2022-02-24T09:03:20Z</time>
      </trkpt>
      <trkpt lat="45.22111" lon="4.01608">
        <ele>682.67</ele>
        <time>2022-02-24T09:03:41Z</time>
      </trkpt>
      <trkpt lat="45.22094" lon="4.01584">
        <ele>680.75</ele>
        <time>2022-02-24T09:03:59Z</time>
      </trkpt>
      <trkpt lat="45.22075" lon="4.01555">
        <ele>678.83</ele>
        <time>2022-02-24T09:04:20Z</time>
      </trkpt>
      <trkpt lat="45.22062" lon="4.01524">
        <ele>675.46</ele>
        <time>2022-02-24T09:04:39Z</time>
      </trkpt>
      <trkpt lat="45.22057" lon="4.01499">
        <ele>673.06</ele>
        <time>2022-02-24T09:04:53Z</time>
      </trkpt>
      <trkpt lat="45.22053" lon="4.01469">
        <ele>668.73</ele>
        <time>2022-02-24T09:05:09Z</time>
      </trkpt>
      <trkpt lat="45.22051" lon="4.01451">
        <ele>667.29</ele>
        <time>2022-02-24T09:05:19Z</time>
      </trkpt>
      <trkpt lat="45.22042" lon="4.01433">
        <ele>668.25</ele>
        <time>2022-02-24T09:05:33Z</time>
      </trkpt>
      <trkpt lat="45.22029" lon="4.01417">
        <ele>668.25</ele>
        <time>2022-02-24T09:05:49Z</time>
      </trkpt>
      <trkpt lat="45.22019" lon="4.014">
        <ele>665.37</ele>
        <time>2022-02-24T09:06:01Z</time>
      </trkpt>
      <trkpt lat="45.22007" lon="4.01384">
        <ele>662.49</ele>
        <time>2022-02-24T09:06:16Z</time>
      </trkpt>
      <trkpt lat="45.21986" lon="4.01364">
        <ele>662.01</ele>
        <time>2022-02-24T09:06:35Z</time>
      </trkpt>
      <trkpt lat="45.21974" lon="4.01348">
        <ele>662.01</ele>
        <time>2022-02-24T09:06:50Z</time>
      </trkpt>
      <trkpt lat="45.21965" lon="4.01334">
        <ele>662.01</ele>
        <time>2022-02-24T09:07:03Z</time>
      </trkpt>
      <trkpt lat="45.21953" lon="4.01321">
        <ele>660.56</ele>
        <time>2022-02-24T09:07:17Z</time>
      </trkpt>
      <trkpt lat="45.21941" lon="4.01304">
        <ele>657.2</ele>
        <time>2022-02-24T09:07:30Z</time>
      </trkpt>
      <trkpt lat="45.21932" lon="4.01282">
        <ele>651.43</ele>
        <time>2022-02-24T09:07:44Z</time>
      </trkpt>
      <trkpt lat="45.21926" lon="4.01269">
        <ele>650.47</ele>
        <time>2022-02-24T09:07:52Z</time>
      </trkpt>
      <trkpt lat="45.21919" lon="4.01255">
        <ele>649.99</ele>
        <time>2022-02-24T09:08:01Z</time>
      </trkpt>
      <trkpt lat="45.21909" lon="4.01229">
        <ele>649.51</ele>
        <time>2022-02-24T09:08:17Z</time>
      </trkpt>
      <trkpt lat="45.21908" lon="4.01225">
        <ele>649.03</ele>
        <time>2022-02-24T09:08:20Z</time>
      </trkpt>
      <trkpt lat="45.219" lon="4.01202">
        <ele>642.78</ele>
        <time>2022-02-24T09:08:36Z</time>
      </trkpt>
      <trkpt lat="45.21898" lon="4.01195">
        <ele>640.86</ele>
        <time>2022-02-24T09:08:41Z</time>
      </trkpt>
      <trkpt lat="45.21896" lon="4.01183">
        <ele>641.34</ele>
        <time>2022-02-24T09:08:47Z</time>
      </trkpt>
      <trkpt lat="45.21884" lon="4.01154">
        <ele>637.97</ele>
        <time>2022-02-24T09:09:05Z</time>
      </trkpt>
      <trkpt lat="45.21881" lon="4.01148">
        <ele>637.49</ele>
        <time>2022-02-24T09:09:09Z</time>
      </trkpt>
      <trkpt lat="45.21869" lon="4.01128">
        <ele>634.61</ele>
        <time>2022-02-24T09:09:24Z</time>
      </trkpt>
      <trkpt lat="45.21863" lon="4.01108">
        <ele>632.68</ele>
        <time>2022-02-24T09:09:38Z</time>
      </trkpt>
      <trkpt lat="45.2186" lon="4.01102">
        <ele>631.72</ele>
        <time>2022-02-24T09:09:42Z</time>
      </trkpt>
      <trkpt lat="45.21852" lon="4.01075">
        <ele>627.88</ele>
        <time>2022-02-24T09:09:58Z</time>
      </trkpt>
      <trkpt lat="45.21846" lon="4.01047">
        <ele>623.55</ele>
        <time>2022-02-24T09:10:16Z</time>
      </trkpt>
      <trkpt lat="45.21843" lon="4.01017">
        <ele>620.67</ele>
        <time>2022-02-24T09:10:32Z</time>
      </trkpt>
      <trkpt lat="45.21844" lon="4.01002">
        <ele>619.71</ele>
        <time>2022-02-24T09:10:43Z</time>
      </trkpt>
      <trkpt lat="45.21841" lon="4.00997">
        <ele>619.71</ele>
        <time>2022-02-24T09:10:47Z</time>
      </trkpt>
      <trkpt lat="45.21833" lon="4.00999">
        <ele>619.71</ele>
        <time>2022-02-24T09:11:00Z</time>
      </trkpt>
      <trkpt lat="45.21821" lon="4.01015">
        <ele>617.78</ele>
        <time>2022-02-24T09:11:16Z</time>
      </trkpt>
      <trkpt lat="45.21808" lon="4.01035">
        <ele>612.98</ele>
        <time>2022-02-24T09:11:32Z</time>
      </trkpt>
      <trkpt lat="45.21802" lon="4.01055">
        <ele>610.57</ele>
        <time>2022-02-24T09:11:46Z</time>
      </trkpt>
      <trkpt lat="45.21798" lon="4.01075">
        <ele>610.57</ele>
        <time>2022-02-24T09:12:00Z</time>
      </trkpt>
      <trkpt lat="45.21798" lon="4.01092">
        <ele>610.09</ele>
        <time>2022-02-24T09:12:13Z</time>
      </trkpt>
      <trkpt lat="45.21795" lon="4.01105">
        <ele>610.09</ele>
        <time>2022-02-24T09:12:28Z</time>
      </trkpt>
      <trkpt lat="45.21784" lon="4.01092">
        <ele>608.17</ele>
        <time>2022-02-24T09:12:44Z</time>
      </trkpt>
      <trkpt lat="45.21774" lon="4.0108">
        <ele>603.36</ele>
        <time>2022-02-24T09:12:59Z</time>
      </trkpt>
      <trkpt lat="45.21765" lon="4.01073">
        <ele>601.92</ele>
        <time>2022-02-24T09:13:14Z</time>
      </trkpt>
      <trkpt lat="45.21759" lon="4.01064">
        <ele>600.48</ele>
        <time>2022-02-24T09:13:28Z</time>
      </trkpt>
      <trkpt lat="45.21748" lon="4.0105">
        <ele>599.04</ele>
        <time>2022-02-24T09:13:42Z</time>
      </trkpt>
      <trkpt lat="45.21743" lon="4.01045">
        <ele>599.52</ele>
        <time>2022-02-24T09:13:56Z</time>
      </trkpt>
      <trkpt lat="45.21744" lon="4.01041">
        <ele>598.56</ele>
        <time>2022-02-24T09:14:10Z</time>
      </trkpt>
      <trkpt lat="45.21742" lon="4.01037">
        <ele>598.56</ele>
        <time>2022-02-24T09:14:26Z</time>
      </trkpt>
      <trkpt lat="45.21742" lon="4.01028">
        <ele>598.56</ele>
        <time>2022-02-24T09:14:40Z</time>
      </trkpt>
      <trkpt lat="45.21741" lon="4.01009">
        <ele>597.12</ele>
        <time>2022-02-24T09:14:51Z</time>
      </trkpt>
      <trkpt lat="45.21742" lon="4.00983">
        <ele>595.19</ele>
        <time>2022-02-24T09:15:06Z</time>
      </trkpt>
      <trkpt lat="45.21742" lon="4.00974">
        <ele>594.23</ele>
        <time>2022-02-24T09:15:11Z</time>
      </trkpt>
      <trkpt lat="45.2174" lon="4.00954">
        <ele>590.39</ele>
        <time>2022-02-24T09:15:24Z</time>
      </trkpt>
      <trkpt lat="45.21735" lon="4.00936">
        <ele>585.1</ele>
        <time>2022-02-24T09:15:37Z</time>
      </trkpt>
      <trkpt lat="45.21733" lon="4.00925">
        <ele>582.22</ele>
        <time>2022-02-24T09:15:52Z</time>
      </trkpt>
      <trkpt lat="45.21737" lon="4.00904">
        <ele>575.49</ele>
        <time>2022-02-24T09:16:07Z</time>
      </trkpt>
      <trkpt lat="45.2174" lon="4.00898">
        <ele>574.53</ele>
        <time>2022-02-24T09:16:11Z</time>
      </trkpt>
      <trkpt lat="45.21744" lon="4.0089">
        <ele>572.6</ele>
        <time>2022-02-24T09:16:16Z</time>
      </trkpt>
      <trkpt lat="45.21752" lon="4.00865">
        <ele>568.76</ele>
        <time>2022-02-24T09:16:31Z</time>
      </trkpt>
      <trkpt lat="45.21753" lon="4.00858">
        <ele>568.28</ele>
        <time>2022-02-24T09:16:35Z</time>
      </trkpt>
      <trkpt lat="45.21766" lon="4.00834">
        <ele>560.11</ele>
        <time>2022-02-24T09:16:53Z</time>
      </trkpt>
      <trkpt lat="45.21778" lon="4.00821">
        <ele>556.74</ele>
        <time>2022-02-24T09:17:05Z</time>
      </trkpt>
      <trkpt lat="45.2179" lon="4.00808">
        <ele>555.78</ele>
        <time>2022-02-24T09:17:19Z</time>
      </trkpt>
      <trkpt lat="45.21802" lon="4.00797">
        <ele>555.78</ele>
        <time>2022-02-24T09:17:33Z</time>
      </trkpt>
      <trkpt lat="45.21816" lon="4.00794">
        <ele>553.86</ele>
        <time>2022-02-24T09:17:47Z</time>
      </trkpt>
      <trkpt lat="45.2182" lon="4.00795">
        <ele>552.9</ele>
        <time>2022-02-24T09:18:06Z</time>
      </trkpt>
      <trkpt lat="45.21821" lon="4.00795">
        <ele>553.86</ele>
        <time>2022-02-24T09:18:26Z</time>
      </trkpt>
      <trkpt lat="45.21829" lon="4.00792">
        <ele>552.9</ele>
        <time>2022-02-24T09:18:38Z</time>
      </trkpt>
      <trkpt lat="45.21834" lon="4.00785">
        <ele>553.86</ele>
        <time>2022-02-24T09:18:44Z</time>
      </trkpt>
      <trkpt lat="45.21836" lon="4.00781">
        <ele>554.34</ele>
        <time>2022-02-24T09:18:47Z</time>
      </trkpt>
      <trkpt lat="45.21848" lon="4.00767">
        <ele>555.3</ele>
        <time>2022-02-24T09:19:00Z</time>
      </trkpt>
      <trkpt lat="45.21865" lon="4.0074">
        <ele>555.3</ele>
        <time>2022-02-24T09:19:17Z</time>
      </trkpt>
      <trkpt lat="45.21873" lon="4.00722">
        <ele>555.3</ele>
        <time>2022-02-24T09:19:30Z</time>
      </trkpt>
      <trkpt lat="45.21878" lon="4.00703">
        <ele>556.26</ele>
        <time>2022-02-24T09:19:42Z</time>
      </trkpt>
      <trkpt lat="45.21893" lon="4.00687">
        <ele>559.14</ele>
        <time>2022-02-24T09:19:55Z</time>
      </trkpt>
      <trkpt lat="45.21901" lon="4.00677">
        <ele>561.55</ele>
        <time>2022-02-24T09:20:03Z</time>
      </trkpt>
      <trkpt lat="45.21908" lon="4.00663">
        <ele>563.95</ele>
        <time>2022-02-24T09:20:13Z</time>
      </trkpt>
      <trkpt lat="45.21918" lon="4.00648">
        <ele>564.43</ele>
        <time>2022-02-24T09:20:29Z</time>
      </trkpt>
      <trkpt lat="45.21919" lon="4.00648">
        <ele>563.95</ele>
        <time>2022-02-24T09:20:30Z</time>
      </trkpt>
      <trkpt lat="45.2193" lon="4.00642">
        <ele>563.47</ele>
        <time>2022-02-24T09:20:45Z</time>
      </trkpt>
      <trkpt lat="45.21939" lon="4.00633">
        <ele>561.55</ele>
        <time>2022-02-24T09:21:00Z</time>
      </trkpt>
      <trkpt lat="45.21945" lon="4.00628">
        <ele>560.59</ele>
        <time>2022-02-24T09:21:15Z</time>
      </trkpt>
      <trkpt lat="45.21946" lon="4.00627">
        <ele>560.59</ele>
        <time>2022-02-24T09:21:18Z</time>
      </trkpt>
      <trkpt lat="45.21957" lon="4.00617">
        <ele>559.14</ele>
        <time>2022-02-24T09:21:30Z</time>
      </trkpt>
      <trkpt lat="45.21978" lon="4.00608">
        <ele>560.59</ele>
        <time>2022-02-24T09:21:44Z</time>
      </trkpt>
      <trkpt lat="45.22001" lon="4.00608">
        <ele>561.07</ele>
        <time>2022-02-24T09:21:58Z</time>
      </trkpt>
      <trkpt lat="45.22015" lon="4.00595">
        <ele>559.62</ele>
        <time>2022-02-24T09:22:09Z</time>
      </trkpt>
      <trkpt lat="45.22023" lon="4.00581">
        <ele>559.14</ele>
        <time>2022-02-24T09:22:19Z</time>
      </trkpt>
      <trkpt lat="45.22025" lon="4.00576">
        <ele>559.14</ele>
        <time>2022-02-24T09:22:23Z</time>
      </trkpt>
      <trkpt lat="45.22031" lon="4.00568">
        <ele>560.11</ele>
        <time>2022-02-24T09:22:30Z</time>
      </trkpt>
      <trkpt lat="45.22038" lon="4.00552">
        <ele>560.11</ele>
        <time>2022-02-24T09:22:43Z</time>
      </trkpt>
      <trkpt lat="45.2204" lon="4.0055">
        <ele>559.62</ele>
        <time>2022-02-24T09:22:45Z</time>
      </trkpt>
      <trkpt lat="45.22048" lon="4.00547">
        <ele>559.14</ele>
        <time>2022-02-24T09:22:51Z</time>
      </trkpt>
      <trkpt lat="45.22069" lon="4.00535">
        <ele>562.99</ele>
        <time>2022-02-24T09:23:06Z</time>
      </trkpt>
      <trkpt lat="45.22073" lon="4.00532">
        <ele>563.47</ele>
        <time>2022-02-24T09:23:10Z</time>
      </trkpt>
      <trkpt lat="45.22086" lon="4.00517">
        <ele>565.39</ele>
        <time>2022-02-24T09:23:26Z</time>
      </trkpt>
      <trkpt lat="45.22091" lon="4.00511">
        <ele>566.35</ele>
        <time>2022-02-24T09:23:32Z</time>
      </trkpt>
      <trkpt lat="45.22107" lon="4.00496">
        <ele>568.28</ele>
        <time>2022-02-24T09:23:46Z</time>
      </trkpt>
      <trkpt lat="45.22119" lon="4.00478">
        <ele>568.76</ele>
        <time>2022-02-24T09:24:01Z</time>
      </trkpt>
      <trkpt lat="45.22127" lon="4.00466">
        <ele>568.76</ele>
        <time>2022-02-24T09:24:10Z</time>
      </trkpt>
      <trkpt lat="45.22136" lon="4.00457">
        <ele>569.72</ele>
        <time>2022-02-24T09:24:20Z</time>
      </trkpt>
      <trkpt lat="45.22149" lon="4.00443">
        <ele>573.08</ele>
        <time>2022-02-24T09:24:33Z</time>
      </trkpt>
      <trkpt lat="45.22156" lon="4.00426">
        <ele>573.56</ele>
        <time>2022-02-24T09:24:46Z</time>
      </trkpt>
      <trkpt lat="45.22156" lon="4.00424">
        <ele>573.56</ele>
        <time>2022-02-24T09:24:47Z</time>
      </trkpt>
      <trkpt lat="45.22159" lon="4.00401">
        <ele>573.56</ele>
        <time>2022-02-24T09:25:01Z</time>
      </trkpt>
      <trkpt lat="45.22161" lon="4.0039">
        <ele>572.6</ele>
        <time>2022-02-24T09:25:07Z</time>
      </trkpt>
      <trkpt lat="45.22163" lon="4.00363">
        <ele>571.64</ele>
        <time>2022-02-24T09:25:22Z</time>
      </trkpt>
      <trkpt lat="45.2217" lon="4.00346">
        <ele>572.12</ele>
        <time>2022-02-24T09:25:35Z</time>
      </trkpt>
      <trkpt lat="45.22172" lon="4.00343">
        <ele>572.6</ele>
        <time>2022-02-24T09:25:37Z</time>
      </trkpt>
      <trkpt lat="45.22183" lon="4.00333">
        <ele>572.6</ele>
        <time>2022-02-24T09:25:48Z</time>
      </trkpt>
      <trkpt lat="45.22186" lon="4.00325">
        <ele>574.04</ele>
        <time>2022-02-24T09:25:55Z</time>
      </trkpt>
      <trkpt lat="45.22188" lon="4.00321">
        <ele>574.53</ele>
        <time>2022-02-24T09:25:58Z</time>
      </trkpt>
      <trkpt lat="45.22193" lon="4.00318">
        <ele>576.45</ele>
        <time>2022-02-24T09:26:02Z</time>
      </trkpt>
      <trkpt lat="45.22206" lon="4.00299">
        <ele>582.22</ele>
        <time>2022-02-24T09:26:17Z</time>
      </trkpt>
      <trkpt lat="45.22222" lon="4.00284">
        <ele>588.46</ele>
        <time>2022-02-24T09:26:30Z</time>
      </trkpt>
      <trkpt lat="45.22231" lon="4.00271">
        <ele>589.91</ele>
        <time>2022-02-24T09:26:42Z</time>
      </trkpt>
      <trkpt lat="45.2223" lon="4.00268">
        <ele>588.95</ele>
        <time>2022-02-24T09:26:54Z</time>
      </trkpt>
      <trkpt lat="45.2223" lon="4.00266">
        <ele>588.95</ele>
        <time>2022-02-24T09:27:08Z</time>
      </trkpt>
      <trkpt lat="45.22231" lon="4.00265">
        <ele>588.95</ele>
        <time>2022-02-24T09:27:23Z</time>
      </trkpt>
      <trkpt lat="45.22232" lon="4.00265">
        <ele>588.46</ele>
        <time>2022-02-24T09:27:27Z</time>
      </trkpt>
      <trkpt lat="45.22232" lon="4.00265">
        <ele>586.06</ele>
        <time>2022-02-24T09:27:40Z</time>
      </trkpt>
      <trkpt lat="45.22238" lon="4.00265">
        <ele>584.14</ele>
        <time>2022-02-24T09:27:49Z</time>
      </trkpt>
      <trkpt lat="45.22243" lon="4.00261">
        <ele>580.29</ele>
        <time>2022-02-24T09:28:00Z</time>
      </trkpt>
      <trkpt lat="45.22246" lon="4.00258">
        <ele>579.33</ele>
        <time>2022-02-24T09:28:04Z</time>
      </trkpt>
      <trkpt lat="45.22248" lon="4.00254">
        <ele>578.85</ele>
        <time>2022-02-24T09:28:06Z</time>
      </trkpt>
      <trkpt lat="45.22249" lon="4.00229">
        <ele>579.33</ele>
        <time>2022-02-24T09:28:19Z</time>
      </trkpt>
      <trkpt lat="45.22269" lon="4.00216">
        <ele>581.73</ele>
        <time>2022-02-24T09:28:34Z</time>
      </trkpt>
      <trkpt lat="45.22276" lon="4.0021">
        <ele>584.14</ele>
        <time>2022-02-24T09:28:40Z</time>
      </trkpt>
      <trkpt lat="45.22287" lon="4.00197">
        <ele>589.43</ele>
        <time>2022-02-24T09:28:51Z</time>
      </trkpt>
      <trkpt lat="45.22308" lon="4.00183">
        <ele>597.12</ele>
        <time>2022-02-24T09:29:05Z</time>
      </trkpt>
      <trkpt lat="45.22317" lon="4.00177">
        <ele>602.4</ele>
        <time>2022-02-24T09:29:12Z</time>
      </trkpt>
      <trkpt lat="45.22342" lon="4.00169">
        <ele>611.54</ele>
        <time>2022-02-24T09:29:25Z</time>
      </trkpt>
      <trkpt lat="45.22348" lon="4.00161">
        <ele>610.09</ele>
        <time>2022-02-24T09:29:32Z</time>
      </trkpt>
      <trkpt lat="45.2236" lon="4.00146">
        <ele>605.77</ele>
        <time>2022-02-24T09:29:46Z</time>
      </trkpt>
      <trkpt lat="45.22374" lon="4.00128">
        <ele>604.81</ele>
        <time>2022-02-24T09:30:01Z</time>
      </trkpt>
      <trkpt lat="45.22383" lon="4.00112">
        <ele>607.21</ele>
        <time>2022-02-24T09:30:13Z</time>
      </trkpt>
      <trkpt lat="45.22386" lon="4.00109">
        <ele>608.17</ele>
        <time>2022-02-24T09:30:16Z</time>
      </trkpt>
      <trkpt lat="45.22407" lon="4.00099">
        <ele>612.5</ele>
        <time>2022-02-24T09:30:32Z</time>
      </trkpt>
      <trkpt lat="45.22409" lon="4.00098">
        <ele>612.98</ele>
        <time>2022-02-24T09:30:33Z</time>
      </trkpt>
      <trkpt lat="45.22424" lon="4.00079">
        <ele>612.98</ele>
        <time>2022-02-24T09:30:48Z</time>
      </trkpt>
      <trkpt lat="45.22438" lon="4.00058">
        <ele>615.38</ele>
        <time>2022-02-24T09:31:03Z</time>
      </trkpt>
      <trkpt lat="45.22456" lon="4.00048">
        <ele>619.71</ele>
        <time>2022-02-24T09:31:17Z</time>
      </trkpt>
      <trkpt lat="45.22474" lon="4.00045">
        <ele>621.63</ele>
        <time>2022-02-24T09:31:32Z</time>
      </trkpt>
      <trkpt lat="45.22487" lon="4.00039">
        <ele>624.99</ele>
        <time>2022-02-24T09:31:46Z</time>
      </trkpt>
      <trkpt lat="45.22504" lon="4.00029">
        <ele>630.28</ele>
        <time>2022-02-24T09:32:00Z</time>
      </trkpt>
      <trkpt lat="45.22516" lon="4.00019">
        <ele>631.24</ele>
        <time>2022-02-24T09:32:12Z</time>
      </trkpt>
      <trkpt lat="45.22525" lon="4.00008">
        <ele>627.4</ele>
        <time>2022-02-24T09:32:28Z</time>
      </trkpt>
      <trkpt lat="45.22525" lon="4.00004">
        <ele>625.96</ele>
        <time>2022-02-24T09:32:42Z</time>
      </trkpt>
      <trkpt lat="45.22537" lon="3.99991">
        <ele>628.84</ele>
        <time>2022-02-24T09:32:54Z</time>
      </trkpt>
      <trkpt lat="45.22547" lon="3.99974">
        <ele>629.8</ele>
        <time>2022-02-24T09:33:07Z</time>
      </trkpt>
      <trkpt lat="45.22555" lon="3.99955">
        <ele>629.32</ele>
        <time>2022-02-24T09:33:20Z</time>
      </trkpt>
      <trkpt lat="45.22558" lon="3.9995">
        <ele>630.28</ele>
        <time>2022-02-24T09:33:23Z</time>
      </trkpt>
      <trkpt lat="45.22559" lon="3.99946">
        <ele>630.76</ele>
        <time>2022-02-24T09:33:25Z</time>
      </trkpt>
      <trkpt lat="45.22561" lon="3.99941">
        <ele>631.24</ele>
        <time>2022-02-24T09:33:28Z</time>
      </trkpt>
      <trkpt lat="45.22567" lon="3.99932">
        <ele>633.65</ele>
        <time>2022-02-24T09:33:36Z</time>
      </trkpt>
      <trkpt lat="45.22586" lon="3.99915">
        <ele>636.53</ele>
        <time>2022-02-24T09:33:52Z</time>
      </trkpt>
      <trkpt lat="45.22595" lon="3.99905">
        <ele>638.93</ele>
        <time>2022-02-24T09:34:05Z</time>
      </trkpt>
      <trkpt lat="45.2261" lon="3.99879">
        <ele>632.68</ele>
        <time>2022-02-24T09:34:19Z</time>
      </trkpt>
      <trkpt lat="45.2262" lon="3.99867">
        <ele>632.68</ele>
        <time>2022-02-24T09:34:32Z</time>
      </trkpt>
      <trkpt lat="45.22631" lon="3.9985">
        <ele>636.05</ele>
        <time>2022-02-24T09:34:47Z</time>
      </trkpt>
      <trkpt lat="45.22644" lon="3.99836">
        <ele>644.22</ele>
        <time>2022-02-24T09:35:01Z</time>
      </trkpt>
      <trkpt lat="45.22649" lon="3.99834">
        <ele>647.59</ele>
        <time>2022-02-24T09:35:12Z</time>
      </trkpt>
      <trkpt lat="45.22649" lon="3.99832">
        <ele>648.55</ele>
        <time>2022-02-24T09:35:34Z</time>
      </trkpt>
      <trkpt lat="45.2265" lon="3.9983">
        <ele>648.07</ele>
        <time>2022-02-24T09:35:47Z</time>
      </trkpt>
      <trkpt lat="45.22656" lon="3.99823">
        <ele>648.55</ele>
        <time>2022-02-24T09:35:56Z</time>
      </trkpt>
      <trkpt lat="45.22664" lon="3.99815">
        <ele>648.55</ele>
        <time>2022-02-24T09:36:10Z</time>
      </trkpt>
      <trkpt lat="45.22669" lon="3.99809">
        <ele>648.55</ele>
        <time>2022-02-24T09:36:17Z</time>
      </trkpt>
      <trkpt lat="45.22672" lon="3.99806">
        <ele>648.07</ele>
        <time>2022-02-24T09:36:19Z</time>
      </trkpt>
      <trkpt lat="45.22695" lon="3.99779">
        <ele>647.1</ele>
        <time>2022-02-24T09:36:34Z</time>
      </trkpt>
      <trkpt lat="45.22708" lon="3.99765">
        <ele>646.14</ele>
        <time>2022-02-24T09:36:48Z</time>
      </trkpt>
      <trkpt lat="45.22713" lon="3.99761">
        <ele>645.18</ele>
        <time>2022-02-24T09:36:56Z</time>
      </trkpt>
      <trkpt lat="45.22726" lon="3.99749">
        <ele>644.7</ele>
        <time>2022-02-24T09:37:10Z</time>
      </trkpt>
      <trkpt lat="45.22732" lon="3.9974">
        <ele>644.7</ele>
        <time>2022-02-24T09:37:19Z</time>
      </trkpt>
      <trkpt lat="45.22741" lon="3.99724">
        <ele>647.59</ele>
        <time>2022-02-24T09:37:35Z</time>
      </trkpt>
      <trkpt lat="45.22741" lon="3.99723">
        <ele>647.59</ele>
        <time>2022-02-24T09:37:37Z</time>
      </trkpt>
      <trkpt lat="45.22754" lon="3.99707">
        <ele>654.31</ele>
        <time>2022-02-24T09:37:50Z</time>
      </trkpt>
      <trkpt lat="45.22768" lon="3.99695">
        <ele>661.04</ele>
        <time>2022-02-24T09:38:05Z</time>
      </trkpt>
      <trkpt lat="45.22772" lon="3.9969">
        <ele>662.01</ele>
        <time>2022-02-24T09:38:14Z</time>
      </trkpt>
      <trkpt lat="45.22788" lon="3.99677">
        <ele>668.25</ele>
        <time>2022-02-24T09:38:29Z</time>
      </trkpt>
      <trkpt lat="45.22804" lon="3.99666">
        <ele>670.18</ele>
        <time>2022-02-24T09:38:42Z</time>
      </trkpt>
      <trkpt lat="45.2282" lon="3.99647">
        <ele>668.73</ele>
        <time>2022-02-24T09:38:55Z</time>
      </trkpt>
      <trkpt lat="45.22827" lon="3.99644">
        <ele>667.77</ele>
        <time>2022-02-24T09:39:02Z</time>
      </trkpt>
      <trkpt lat="45.22838" lon="3.99628">
        <ele>663.45</ele>
        <time>2022-02-24T09:39:17Z</time>
      </trkpt>
      <trkpt lat="45.22848" lon="3.99617">
        <ele>660.08</ele>
        <time>2022-02-24T09:39:34Z</time>
      </trkpt>
      <trkpt lat="45.22853" lon="3.9961">
        <ele>658.16</ele>
        <time>2022-02-24T09:39:50Z</time>
      </trkpt>
      <trkpt lat="45.22859" lon="3.99605">
        <ele>658.16</ele>
        <time>2022-02-24T09:40:06Z</time>
      </trkpt>
      <trkpt lat="45.22871" lon="3.99594">
        <ele>660.08</ele>
        <time>2022-02-24T09:40:19Z</time>
      </trkpt>
      <trkpt lat="45.22885" lon="3.99578">
        <ele>660.08</ele>
        <time>2022-02-24T09:40:34Z</time>
      </trkpt>
      <trkpt lat="45.22891" lon="3.99565">
        <ele>656.72</ele>
        <time>2022-02-24T09:40:45Z</time>
      </trkpt>
      <trkpt lat="45.22899" lon="3.99549">
        <ele>653.83</ele>
        <time>2022-02-24T09:41:00Z</time>
      </trkpt>
      <trkpt lat="45.22906" lon="3.99526">
        <ele>650.47</ele>
        <time>2022-02-24T09:41:17Z</time>
      </trkpt>
      <trkpt lat="45.22914" lon="3.99514">
        <ele>650.95</ele>
        <time>2022-02-24T09:41:34Z</time>
      </trkpt>
      <trkpt lat="45.22929" lon="3.99494">
        <ele>649.51</ele>
        <time>2022-02-24T09:41:48Z</time>
      </trkpt>
      <trkpt lat="45.22934" lon="3.99481">
        <ele>651.43</ele>
        <time>2022-02-24T09:41:59Z</time>
      </trkpt>
      <trkpt lat="45.22943" lon="3.99453">
        <ele>655.28</ele>
        <time>2022-02-24T09:42:15Z</time>
      </trkpt>
      <trkpt lat="45.22953" lon="3.99426">
        <ele>660.56</ele>
        <time>2022-02-24T09:42:28Z</time>
      </trkpt>
      <trkpt lat="45.22955" lon="3.99425">
        <ele>661.04</ele>
        <time>2022-02-24T09:42:45Z</time>
      </trkpt>
      <trkpt lat="45.22958" lon="3.99423">
        <ele>661.04</ele>
        <time>2022-02-24T09:42:59Z</time>
      </trkpt>
      <trkpt lat="45.22964" lon="3.99417">
        <ele>662.49</ele>
        <time>2022-02-24T09:43:16Z</time>
      </trkpt>
      <trkpt lat="45.22967" lon="3.99421">
        <ele>661.52</ele>
        <time>2022-02-24T09:43:30Z</time>
      </trkpt>
      <trkpt lat="45.22968" lon="3.99422">
        <ele>661.52</ele>
        <time>2022-02-24T09:43:34Z</time>
      </trkpt>
      <trkpt lat="45.22974" lon="3.99436">
        <ele>657.2</ele>
        <time>2022-02-24T09:43:49Z</time>
      </trkpt>
      <trkpt lat="45.2298" lon="3.99456">
        <ele>657.68</ele>
        <time>2022-02-24T09:44:04Z</time>
      </trkpt>
      <trkpt lat="45.22981" lon="3.99471">
        <ele>657.68</ele>
        <time>2022-02-24T09:44:16Z</time>
      </trkpt>
      <trkpt lat="45.22987" lon="3.99476">
        <ele>657.68</ele>
        <time>2022-02-24T09:44:31Z</time>
      </trkpt>
      <trkpt lat="45.22991" lon="3.99474">
        <ele>657.2</ele>
        <time>2022-02-24T09:44:43Z</time>
      </trkpt>
      <trkpt lat="45.22994" lon="3.9949">
        <ele>659.6</ele>
        <time>2022-02-24T09:44:57Z</time>
      </trkpt>
      <trkpt lat="45.22995" lon="3.99504">
        <ele>664.41</ele>
        <time>2022-02-24T09:45:12Z</time>
      </trkpt>
      <trkpt lat="45.22997" lon="3.99516">
        <ele>665.37</ele>
        <time>2022-02-24T09:45:22Z</time>
      </trkpt>
      <trkpt lat="45.23004" lon="3.99528">
        <ele>663.93</ele>
        <time>2022-02-24T09:45:36Z</time>
      </trkpt>
      <trkpt lat="45.23007" lon="3.99537">
        <ele>664.89</ele>
        <time>2022-02-24T09:45:44Z</time>
      </trkpt>
      <trkpt lat="45.23011" lon="3.99549">
        <ele>667.29</ele>
        <time>2022-02-24T09:45:57Z</time>
      </trkpt>
      <trkpt lat="45.23006" lon="3.99553">
        <ele>669.7</ele>
        <time>2022-02-24T09:46:03Z</time>
      </trkpt>
      <trkpt lat="45.22999" lon="3.99558">
        <ele>675.46</ele>
        <time>2022-02-24T09:46:15Z</time>
      </trkpt>
      <trkpt lat="45.22989" lon="3.99564">
        <ele>683.63</ele>
        <time>2022-02-24T09:46:28Z</time>
      </trkpt>
      <trkpt lat="45.22984" lon="3.99582">
        <ele>688.44</ele>
        <time>2022-02-24T09:46:41Z</time>
      </trkpt>
      <trkpt lat="45.22977" lon="3.99602">
        <ele>686.04</ele>
        <time>2022-02-24T09:46:56Z</time>
      </trkpt>
      <trkpt lat="45.22968" lon="3.99614">
        <ele>687.48</ele>
        <time>2022-02-24T09:47:11Z</time>
      </trkpt>
      <trkpt lat="45.22961" lon="3.99633">
        <ele>687</ele>
        <time>2022-02-24T09:47:27Z</time>
      </trkpt>
      <trkpt lat="45.22957" lon="3.99651">
        <ele>689.88</ele>
        <time>2022-02-24T09:47:42Z</time>
      </trkpt>
      <trkpt lat="45.22959" lon="3.99667">
        <ele>690.36</ele>
        <time>2022-02-24T09:47:54Z</time>
      </trkpt>
      <trkpt lat="45.22965" lon="3.99689">
        <ele>689.88</ele>
        <time>2022-02-24T09:48:10Z</time>
      </trkpt>
      <trkpt lat="45.22964" lon="3.99711">
        <ele>690.84</ele>
        <time>2022-02-24T09:48:26Z</time>
      </trkpt>
      <trkpt lat="45.22969" lon="3.9973">
        <ele>696.61</ele>
        <time>2022-02-24T09:48:41Z</time>
      </trkpt>
      <trkpt lat="45.22974" lon="3.99745">
        <ele>699.98</ele>
        <time>2022-02-24T09:48:55Z</time>
      </trkpt>
      <trkpt lat="45.22976" lon="3.99753">
        <ele>700.94</ele>
        <time>2022-02-24T09:49:08Z</time>
      </trkpt>
      <trkpt lat="45.22977" lon="3.99747">
        <ele>703.34</ele>
        <time>2022-02-24T09:49:22Z</time>
      </trkpt>
      <trkpt lat="45.22976" lon="3.99752">
        <ele>701.9</ele>
        <time>2022-02-24T09:49:34Z</time>
      </trkpt>
      <trkpt lat="45.22976" lon="3.99751">
        <ele>702.38</ele>
        <time>2022-02-24T09:49:46Z</time>
      </trkpt>
      <trkpt lat="45.22976" lon="3.99751">
        <ele>702.38</ele>
        <time>2022-02-24T09:50:10Z</time>
      </trkpt>
      <trkpt lat="45.22976" lon="3.99751">
        <ele>702.86</ele>
        <time>2022-02-24T09:50:34Z</time>
      </trkpt>
      <trkpt lat="45.22975" lon="3.99751">
        <ele>702.86</ele>
        <time>2022-02-24T09:51:03Z</time>
      </trkpt>
      <trkpt lat="45.22975" lon="3.99751">
        <ele>701.9</ele>
        <time>2022-02-24T09:51:22Z</time>
      </trkpt>
      <trkpt lat="45.22975" lon="3.99752">
        <ele>701.42</ele>
        <time>2022-02-24T09:51:41Z</time>
      </trkpt>
      <trkpt lat="45.22976" lon="3.99752">
        <ele>701.42</ele>
        <time>2022-02-24T09:51:49Z</time>
      </trkpt>
      <trkpt lat="45.22979" lon="3.99752">
        <ele>700.46</ele>
        <time>2022-02-24T09:51:53Z</time>
      </trkpt>
      <trkpt lat="45.22996" lon="3.99758">
        <ele>699.98</ele>
        <time>2022-02-24T09:52:09Z</time>
      </trkpt>
      <trkpt lat="45.23017" lon="3.99764">
        <ele>699.98</ele>
        <time>2022-02-24T09:52:27Z</time>
      </trkpt>
      <trkpt lat="45.23037" lon="3.9977">
        <ele>700.46</ele>
        <time>2022-02-24T09:52:43Z</time>
      </trkpt>
      <trkpt lat="45.23047" lon="3.99776">
        <ele>702.38</ele>
        <time>2022-02-24T09:52:51Z</time>
      </trkpt>
      <trkpt lat="45.23053" lon="3.99783">
        <ele>701.9</ele>
        <time>2022-02-24T09:52:57Z</time>
      </trkpt>
      <trkpt lat="45.23062" lon="3.99812">
        <ele>703.82</ele>
        <time>2022-02-24T09:53:13Z</time>
      </trkpt>
      <trkpt lat="45.23067" lon="3.99845">
        <ele>704.3</ele>
        <time>2022-02-24T09:53:30Z</time>
      </trkpt>
      <trkpt lat="45.23065" lon="3.99874">
        <ele>704.3</ele>
        <time>2022-02-24T09:53:46Z</time>
      </trkpt>
      <trkpt lat="45.23059" lon="3.99912">
        <ele>705.26</ele>
        <time>2022-02-24T09:54:08Z</time>
      </trkpt>
      <trkpt lat="45.23059" lon="3.99921">
        <ele>704.78</ele>
        <time>2022-02-24T09:54:15Z</time>
      </trkpt>
      <trkpt lat="45.23059" lon="3.99928">
        <ele>706.23</ele>
        <time>2022-02-24T09:54:28Z</time>
      </trkpt>
      <trkpt lat="45.23059" lon="3.99927">
        <ele>706.23</ele>
        <time>2022-02-24T09:54:43Z</time>
      </trkpt>
      <trkpt lat="45.23059" lon="3.99926">
        <ele>706.23</ele>
        <time>2022-02-24T09:54:44Z</time>
      </trkpt>
      <trkpt lat="45.23061" lon="3.99919">
        <ele>706.71</ele>
        <time>2022-02-24T09:54:48Z</time>
      </trkpt>
      <trkpt lat="45.23065" lon="3.99913">
        <ele>707.19</ele>
        <time>2022-02-24T09:54:52Z</time>
      </trkpt>
      <trkpt lat="45.23074" lon="3.99887">
        <ele>709.11</ele>
        <time>2022-02-24T09:55:08Z</time>
      </trkpt>
      <trkpt lat="45.23084" lon="3.99855">
        <ele>711.51</ele>
        <time>2022-02-24T09:55:27Z</time>
      </trkpt>
      <trkpt lat="45.23088" lon="3.99847">
        <ele>711.03</ele>
        <time>2022-02-24T09:55:32Z</time>
      </trkpt>
      <trkpt lat="45.23114" lon="3.99831">
        <ele>710.55</ele>
        <time>2022-02-24T09:55:51Z</time>
      </trkpt>
      <trkpt lat="45.23141" lon="3.99824">
        <ele>709.59</ele>
        <time>2022-02-24T09:56:10Z</time>
      </trkpt>
      <trkpt lat="45.23165" lon="3.99816">
        <ele>709.59</ele>
        <time>2022-02-24T09:56:28Z</time>
      </trkpt>
      <trkpt lat="45.23176" lon="3.99812">
        <ele>710.55</ele>
        <time>2022-02-24T09:56:37Z</time>
      </trkpt>
      <trkpt lat="45.23182" lon="3.99819">
        <ele>711.99</ele>
        <time>2022-02-24T09:56:42Z</time>
      </trkpt>
      <trkpt lat="45.23189" lon="3.99818">
        <ele>713.44</ele>
        <time>2022-02-24T09:56:47Z</time>
      </trkpt>
      <trkpt lat="45.23192" lon="3.99816">
        <ele>713.92</ele>
        <time>2022-02-24T09:56:50Z</time>
      </trkpt>
      <trkpt lat="45.23194" lon="3.99815">
        <ele>713.92</ele>
        <time>2022-02-24T09:56:52Z</time>
      </trkpt>
      <trkpt lat="45.23203" lon="3.99828">
        <ele>715.36</ele>
        <time>2022-02-24T09:57:04Z</time>
      </trkpt>
      <trkpt lat="45.23219" lon="3.99843">
        <ele>718.24</ele>
        <time>2022-02-24T09:57:20Z</time>
      </trkpt>
      <trkpt lat="45.23231" lon="3.9986">
        <ele>720.65</ele>
        <time>2022-02-24T09:57:36Z</time>
      </trkpt>
      <trkpt lat="45.23232" lon="3.99867">
        <ele>721.13</ele>
        <time>2022-02-24T09:57:41Z</time>
      </trkpt>
      <trkpt lat="45.23215" lon="3.99896">
        <ele>722.09</ele>
        <time>2022-02-24T09:58:02Z</time>
      </trkpt>
      <trkpt lat="45.23203" lon="3.99914">
        <ele>722.57</ele>
        <time>2022-02-24T09:58:16Z</time>
      </trkpt>
      <trkpt lat="45.2321" lon="3.99931">
        <ele>724.01</ele>
        <time>2022-02-24T09:58:31Z</time>
      </trkpt>
      <trkpt lat="45.2323" lon="3.99944">
        <ele>725.93</ele>
        <time>2022-02-24T09:58:47Z</time>
      </trkpt>
      <trkpt lat="45.23248" lon="3.99957">
        <ele>728.34</ele>
        <time>2022-02-24T09:59:02Z</time>
      </trkpt>
      <trkpt lat="45.23266" lon="3.99972">
        <ele>730.74</ele>
        <time>2022-02-24T09:59:18Z</time>
      </trkpt>
      <trkpt lat="45.23286" lon="3.99991">
        <ele>733.62</ele>
        <time>2022-02-24T09:59:36Z</time>
      </trkpt>
      <trkpt lat="45.23302" lon="3.99994">
        <ele>734.1</ele>
        <time>2022-02-24T09:59:50Z</time>
      </trkpt>
      <trkpt lat="45.2332" lon="3.99975">
        <ele>733.62</ele>
        <time>2022-02-24T10:00:07Z</time>
      </trkpt>
      <trkpt lat="45.23341" lon="3.99958">
        <ele>734.58</ele>
        <time>2022-02-24T10:00:25Z</time>
      </trkpt>
      <trkpt lat="45.23359" lon="3.99936">
        <ele>735.07</ele>
        <time>2022-02-24T10:00:42Z</time>
      </trkpt>
      <trkpt lat="45.23374" lon="3.99914">
        <ele>734.1</ele>
        <time>2022-02-24T10:00:58Z</time>
      </trkpt>
      <trkpt lat="45.23386" lon="3.99893">
        <ele>733.62</ele>
        <time>2022-02-24T10:01:13Z</time>
      </trkpt>
      <trkpt lat="45.23401" lon="3.99871">
        <ele>735.55</ele>
        <time>2022-02-24T10:01:29Z</time>
      </trkpt>
      <trkpt lat="45.23413" lon="3.99848">
        <ele>736.51</ele>
        <time>2022-02-24T10:01:44Z</time>
      </trkpt>
      <trkpt lat="45.23431" lon="3.99831">
        <ele>736.51</ele>
        <time>2022-02-24T10:02:01Z</time>
      </trkpt>
      <trkpt lat="45.23453" lon="3.99812">
        <ele>736.99</ele>
        <time>2022-02-24T10:02:20Z</time>
      </trkpt>
      <trkpt lat="45.2346" lon="3.99804">
        <ele>737.47</ele>
        <time>2022-02-24T10:02:27Z</time>
      </trkpt>
      <trkpt lat="45.23464" lon="3.99802">
        <ele>737.47</ele>
        <time>2022-02-24T10:02:30Z</time>
      </trkpt>
      <trkpt lat="45.23479" lon="3.99787">
        <ele>738.91</ele>
        <time>2022-02-24T10:02:45Z</time>
      </trkpt>
      <trkpt lat="45.2348" lon="3.99786">
        <ele>738.91</ele>
        <time>2022-02-24T10:02:46Z</time>
      </trkpt>
      <trkpt lat="45.23501" lon="3.99766">
        <ele>741.31</ele>
        <time>2022-02-24T10:03:04Z</time>
      </trkpt>
      <trkpt lat="45.23521" lon="3.99748">
        <ele>742.76</ele>
        <time>2022-02-24T10:03:21Z</time>
      </trkpt>
      <trkpt lat="45.23543" lon="3.99727">
        <ele>745.16</ele>
        <time>2022-02-24T10:03:40Z</time>
      </trkpt>
      <trkpt lat="45.23564" lon="3.99706">
        <ele>745.16</ele>
        <time>2022-02-24T10:03:59Z</time>
      </trkpt>
      <trkpt lat="45.2358" lon="3.9969">
        <ele>746.12</ele>
        <time>2022-02-24T10:04:14Z</time>
      </trkpt>
      <trkpt lat="45.23598" lon="3.99674">
        <ele>746.6</ele>
        <time>2022-02-24T10:04:30Z</time>
      </trkpt>
      <trkpt lat="45.23599" lon="3.99673">
        <ele>746.6</ele>
        <time>2022-02-24T10:04:31Z</time>
      </trkpt>
      <trkpt lat="45.23604" lon="3.99671">
        <ele>746.12</ele>
        <time>2022-02-24T10:04:35Z</time>
      </trkpt>
      <trkpt lat="45.23628" lon="3.99661">
        <ele>748.04</ele>
        <time>2022-02-24T10:04:53Z</time>
      </trkpt>
      <trkpt lat="45.23649" lon="3.99654">
        <ele>748.04</ele>
        <time>2022-02-24T10:05:09Z</time>
      </trkpt>
      <trkpt lat="45.23672" lon="3.99646">
        <ele>750.45</ele>
        <time>2022-02-24T10:05:27Z</time>
      </trkpt>
      <trkpt lat="45.2368" lon="3.99642">
        <ele>750.93</ele>
        <time>2022-02-24T10:05:35Z</time>
      </trkpt>
      <trkpt lat="45.2368" lon="3.99666">
        <ele>752.37</ele>
        <time>2022-02-24T10:05:50Z</time>
      </trkpt>
      <trkpt lat="45.23679" lon="3.99695">
        <ele>750.45</ele>
        <time>2022-02-24T10:06:07Z</time>
      </trkpt>
      <trkpt lat="45.2368" lon="3.99726">
        <ele>749.49</ele>
        <time>2022-02-24T10:06:23Z</time>
      </trkpt>
      <trkpt lat="45.23681" lon="3.99758">
        <ele>747.56</ele>
        <time>2022-02-24T10:06:40Z</time>
      </trkpt>
      <trkpt lat="45.23684" lon="3.99794">
        <ele>747.56</ele>
        <time>2022-02-24T10:06:59Z</time>
      </trkpt>
      <trkpt lat="45.2369" lon="3.99825">
        <ele>745.64</ele>
        <time>2022-02-24T10:07:16Z</time>
      </trkpt>
      <trkpt lat="45.23699" lon="3.99857">
        <ele>745.64</ele>
        <time>2022-02-24T10:07:34Z</time>
      </trkpt>
      <trkpt lat="45.23709" lon="3.99892">
        <ele>743.24</ele>
        <time>2022-02-24T10:07:53Z</time>
      </trkpt>
      <trkpt lat="45.23717" lon="3.9992">
        <ele>741.79</ele>
        <time>2022-02-24T10:08:09Z</time>
      </trkpt>
      <trkpt lat="45.23729" lon="3.99952">
        <ele>741.79</ele>
        <time>2022-02-24T10:08:28Z</time>
      </trkpt>
      <trkpt lat="45.23742" lon="3.99983">
        <ele>740.83</ele>
        <time>2022-02-24T10:08:47Z</time>
      </trkpt>
      <trkpt lat="45.23753" lon="4.00012">
        <ele>739.87</ele>
        <time>2022-02-24T10:09:05Z</time>
      </trkpt>
      <trkpt lat="45.23766" lon="4.00041">
        <ele>738.43</ele>
        <time>2022-02-24T10:09:23Z</time>
      </trkpt>
      <trkpt lat="45.23778" lon="4.00069">
        <ele>735.07</ele>
        <time>2022-02-24T10:09:41Z</time>
      </trkpt>
      <trkpt lat="45.23791" lon="4.001">
        <ele>733.62</ele>
        <time>2022-02-24T10:10:00Z</time>
      </trkpt>
      <trkpt lat="45.23804" lon="4.00118">
        <ele>732.18</ele>
        <time>2022-02-24T10:10:17Z</time>
      </trkpt>
      <trkpt lat="45.23814" lon="4.0013">
        <ele>731.7</ele>
        <time>2022-02-24T10:10:29Z</time>
      </trkpt>
      <trkpt lat="45.2382" lon="4.00151">
        <ele>732.18</ele>
        <time>2022-02-24T10:10:43Z</time>
      </trkpt>
      <trkpt lat="45.23824" lon="4.00161">
        <ele>731.7</ele>
        <time>2022-02-24T10:10:49Z</time>
      </trkpt>
      <trkpt lat="45.23828" lon="4.00179">
        <ele>731.7</ele>
        <time>2022-02-24T10:11:03Z</time>
      </trkpt>
      <trkpt lat="45.23832" lon="4.00191">
        <ele>729.3</ele>
        <time>2022-02-24T10:11:10Z</time>
      </trkpt>
      <trkpt lat="45.23847" lon="4.00211">
        <ele>728.82</ele>
        <time>2022-02-24T10:11:25Z</time>
      </trkpt>
      <trkpt lat="45.2386" lon="4.00234">
        <ele>731.22</ele>
        <time>2022-02-24T10:11:41Z</time>
      </trkpt>
      <trkpt lat="45.23871" lon="4.00257">
        <ele>730.74</ele>
        <time>2022-02-24T10:11:56Z</time>
      </trkpt>
      <trkpt lat="45.23878" lon="4.00274">
        <ele>728.34</ele>
        <time>2022-02-24T10:12:09Z</time>
      </trkpt>
      <trkpt lat="45.23888" lon="4.00291">
        <ele>726.41</ele>
        <time>2022-02-24T10:12:21Z</time>
      </trkpt>
      <trkpt lat="45.23893" lon="4.00297">
        <ele>725.93</ele>
        <time>2022-02-24T10:12:27Z</time>
      </trkpt>
      <trkpt lat="45.23899" lon="4.00319">
        <ele>722.57</ele>
        <time>2022-02-24T10:12:42Z</time>
      </trkpt>
      <trkpt lat="45.23903" lon="4.00339">
        <ele>719.2</ele>
        <time>2022-02-24T10:12:57Z</time>
      </trkpt>
      <trkpt lat="45.23906" lon="4.00344">
        <ele>718.24</ele>
        <time>2022-02-24T10:13:03Z</time>
      </trkpt>
      <trkpt lat="45.23915" lon="4.00362">
        <ele>718.24</ele>
        <time>2022-02-24T10:13:17Z</time>
      </trkpt>
      <trkpt lat="45.23924" lon="4.00381">
        <ele>720.16</ele>
        <time>2022-02-24T10:13:31Z</time>
      </trkpt>
      <trkpt lat="45.23932" lon="4.00397">
        <ele>717.28</ele>
        <time>2022-02-24T10:13:45Z</time>
      </trkpt>
      <trkpt lat="45.23937" lon="4.00408">
        <ele>712.47</ele>
        <time>2022-02-24T10:13:58Z</time>
      </trkpt>
      <trkpt lat="45.23939" lon="4.00424">
        <ele>708.15</ele>
        <time>2022-02-24T10:14:11Z</time>
      </trkpt>
      <trkpt lat="45.23937" lon="4.00438">
        <ele>701.9</ele>
        <time>2022-02-24T10:14:25Z</time>
      </trkpt>
      <trkpt lat="45.23937" lon="4.00447">
        <ele>699.02</ele>
        <time>2022-02-24T10:14:34Z</time>
      </trkpt>
      <trkpt lat="45.23937" lon="4.00452">
        <ele>698.05</ele>
        <time>2022-02-24T10:14:38Z</time>
      </trkpt>
      <trkpt lat="45.23949" lon="4.00438">
        <ele>694.69</ele>
        <time>2022-02-24T10:14:53Z</time>
      </trkpt>
      <trkpt lat="45.23961" lon="4.00414">
        <ele>698.05</ele>
        <time>2022-02-24T10:15:11Z</time>
      </trkpt>
      <trkpt lat="45.23972" lon="4.004">
        <ele>696.13</ele>
        <time>2022-02-24T10:15:27Z</time>
      </trkpt>
      <trkpt lat="45.23983" lon="4.00385">
        <ele>695.65</ele>
        <time>2022-02-24T10:15:41Z</time>
      </trkpt>
      <trkpt lat="45.23989" lon="4.00378">
        <ele>695.17</ele>
        <time>2022-02-24T10:15:50Z</time>
      </trkpt>
      <trkpt lat="45.23996" lon="4.00375">
        <ele>693.25</ele>
        <time>2022-02-24T10:15:53Z</time>
      </trkpt>
      <trkpt lat="45.24002" lon="4.00377">
        <ele>691.33</ele>
        <time>2022-02-24T10:15:58Z</time>
      </trkpt>
      <trkpt lat="45.24009" lon="4.00384">
        <ele>687.48</ele>
        <time>2022-02-24T10:16:05Z</time>
      </trkpt>
      <trkpt lat="45.24022" lon="4.00406">
        <ele>684.12</ele>
        <time>2022-02-24T10:16:20Z</time>
      </trkpt>
      <trkpt lat="45.24025" lon="4.00409">
        <ele>683.63</ele>
        <time>2022-02-24T10:16:23Z</time>
      </trkpt>
      <trkpt lat="45.24028" lon="4.00415">
        <ele>683.15</ele>
        <time>2022-02-24T10:16:27Z</time>
      </trkpt>
      <trkpt lat="45.24043" lon="4.00443">
        <ele>680.75</ele>
        <time>2022-02-24T10:16:45Z</time>
      </trkpt>
      <trkpt lat="45.2406" lon="4.00473">
        <ele>677.87</ele>
        <time>2022-02-24T10:17:04Z</time>
      </trkpt>
      <trkpt lat="45.24073" lon="4.00498">
        <ele>677.39</ele>
        <time>2022-02-24T10:17:19Z</time>
      </trkpt>
      <trkpt lat="45.24083" lon="4.0052">
        <ele>674.5</ele>
        <time>2022-02-24T10:17:32Z</time>
      </trkpt>
      <trkpt lat="45.24093" lon="4.00543">
        <ele>674.98</ele>
        <time>2022-02-24T10:17:44Z</time>
      </trkpt>
      <trkpt lat="45.24102" lon="4.0057">
        <ele>675.94</ele>
        <time>2022-02-24T10:17:59Z</time>
      </trkpt>
      <trkpt lat="45.24112" lon="4.00599">
        <ele>672.1</ele>
        <time>2022-02-24T10:18:15Z</time>
      </trkpt>
      <trkpt lat="45.24124" lon="4.00624">
        <ele>668.73</ele>
        <time>2022-02-24T10:18:29Z</time>
      </trkpt>
      <trkpt lat="45.24139" lon="4.00652">
        <ele>666.33</ele>
        <time>2022-02-24T10:18:45Z</time>
      </trkpt>
      <trkpt lat="45.24153" lon="4.00682">
        <ele>664.89</ele>
        <time>2022-02-24T10:19:03Z</time>
      </trkpt>
      <trkpt lat="45.24168" lon="4.00713">
        <ele>663.93</ele>
        <time>2022-02-24T10:19:21Z</time>
      </trkpt>
      <trkpt lat="45.24179" lon="4.00742">
        <ele>661.52</ele>
        <time>2022-02-24T10:19:38Z</time>
      </trkpt>
      <trkpt lat="45.24189" lon="4.00767">
        <ele>661.52</ele>
        <time>2022-02-24T10:19:53Z</time>
      </trkpt>
      <trkpt lat="45.24202" lon="4.00799">
        <ele>661.04</ele>
        <time>2022-02-24T10:20:13Z</time>
      </trkpt>
      <trkpt lat="45.24213" lon="4.00829">
        <ele>660.08</ele>
        <time>2022-02-24T10:20:30Z</time>
      </trkpt>
      <trkpt lat="45.24225" lon="4.00854">
        <ele>658.64</ele>
        <time>2022-02-24T10:20:48Z</time>
      </trkpt>
      <trkpt lat="45.24225" lon="4.00853">
        <ele>659.12</ele>
        <time>2022-02-24T10:21:00Z</time>
      </trkpt>
      <trkpt lat="45.24226" lon="4.00854">
        <ele>658.16</ele>
        <time>2022-02-24T10:21:24Z</time>
      </trkpt>
      <trkpt lat="45.24226" lon="4.00855">
        <ele>657.68</ele>
        <time>2022-02-24T10:21:49Z</time>
      </trkpt>
      <trkpt lat="45.24225" lon="4.00856">
        <ele>657.2</ele>
        <time>2022-02-24T10:22:21Z</time>
      </trkpt>
      <trkpt lat="45.24225" lon="4.00857">
        <ele>657.68</ele>
        <time>2022-02-24T10:22:47Z</time>
      </trkpt>
      <trkpt lat="45.24227" lon="4.00857">
        <ele>659.6</ele>
        <time>2022-02-24T10:23:21Z</time>
      </trkpt>
      <trkpt lat="45.24226" lon="4.00858">
        <ele>661.52</ele>
        <time>2022-02-24T10:23:49Z</time>
      </trkpt>
      <trkpt lat="45.24228" lon="4.00858">
        <ele>661.04</ele>
        <time>2022-02-24T10:24:17Z</time>
      </trkpt>
      <trkpt lat="45.24229" lon="4.00858">
        <ele>661.04</ele>
        <time>2022-02-24T10:24:41Z</time>
      </trkpt>
      <trkpt lat="45.24228" lon="4.00858">
        <ele>661.04</ele>
        <time>2022-02-24T10:25:11Z</time>
      </trkpt>
      <trkpt lat="45.24228" lon="4.00857">
        <ele>660.08</ele>
        <time>2022-02-24T10:25:41Z</time>
      </trkpt>
      <trkpt lat="45.24227" lon="4.00856">
        <ele>660.08</ele>
        <time>2022-02-24T10:26:16Z</time>
      </trkpt>
      <trkpt lat="45.24226" lon="4.00856">
        <ele>661.52</ele>
        <time>2022-02-24T10:26:50Z</time>
      </trkpt>
      <trkpt lat="45.24225" lon="4.00856">
        <ele>661.04</ele>
        <time>2022-02-24T10:27:34Z</time>
      </trkpt>
      <trkpt lat="45.24225" lon="4.00855">
        <ele>660.56</ele>
        <time>2022-02-24T10:28:11Z</time>
      </trkpt>
      <trkpt lat="45.24225" lon="4.00854">
        <ele>661.04</ele>
        <time>2022-02-24T10:28:50Z</time>
      </trkpt>
      <trkpt lat="45.24225" lon="4.00854">
        <ele>660.56</ele>
        <time>2022-02-24T10:29:12Z</time>
      </trkpt>
      <trkpt lat="45.24225" lon="4.00853">
        <ele>660.56</ele>
        <time>2022-02-24T10:29:36Z</time>
      </trkpt>
      <trkpt lat="45.24226" lon="4.00854">
        <ele>659.6</ele>
        <time>2022-02-24T10:30:01Z</time>
      </trkpt>
      <trkpt lat="45.24226" lon="4.00853">
        <ele>659.6</ele>
        <time>2022-02-24T10:30:27Z</time>
      </trkpt>
      <trkpt lat="45.24227" lon="4.00854">
        <ele>659.12</ele>
        <time>2022-02-24T10:30:33Z</time>
      </trkpt>
      <trkpt lat="45.24226" lon="4.00855">
        <ele>658.64</ele>
        <time>2022-02-24T10:30:47Z</time>
      </trkpt>
      <trkpt lat="45.24226" lon="4.00855">
        <ele>658.64</ele>
        <time>2022-02-24T10:30:51Z</time>
      </trkpt>
      <trkpt lat="45.24235" lon="4.00866">
        <ele>657.2</ele>
        <time>2022-02-24T10:31:05Z</time>
      </trkpt>
      <trkpt lat="45.24244" lon="4.00882">
        <ele>658.64</ele>
        <time>2022-02-24T10:31:20Z</time>
      </trkpt>
      <trkpt lat="45.24249" lon="4.00888">
        <ele>659.12</ele>
        <time>2022-02-24T10:31:27Z</time>
      </trkpt>
      <trkpt lat="45.24257" lon="4.00899">
        <ele>660.08</ele>
        <time>2022-02-24T10:31:37Z</time>
      </trkpt>
      <trkpt lat="45.24266" lon="4.00911">
        <ele>661.52</ele>
        <time>2022-02-24T10:31:48Z</time>
      </trkpt>
      <trkpt lat="45.2428" lon="4.00933">
        <ele>662.97</ele>
        <time>2022-02-24T10:32:02Z</time>
      </trkpt>
      <trkpt lat="45.24294" lon="4.00953">
        <ele>661.52</ele>
        <time>2022-02-24T10:32:17Z</time>
      </trkpt>
      <trkpt lat="45.24305" lon="4.00969">
        <ele>659.12</ele>
        <time>2022-02-24T10:32:31Z</time>
      </trkpt>
      <trkpt lat="45.24308" lon="4.00975">
        <ele>659.12</ele>
        <time>2022-02-24T10:32:36Z</time>
      </trkpt>
      <trkpt lat="45.24321" lon="4.00994">
        <ele>658.16</ele>
        <time>2022-02-24T10:32:51Z</time>
      </trkpt>
      <trkpt lat="45.24327" lon="4.01002">
        <ele>656.72</ele>
        <time>2022-02-24T10:32:57Z</time>
      </trkpt>
      <trkpt lat="45.24329" lon="4.01005">
        <ele>656.72</ele>
        <time>2022-02-24T10:32:59Z</time>
      </trkpt>
      <trkpt lat="45.24334" lon="4.01008">
        <ele>656.72</ele>
        <time>2022-02-24T10:33:04Z</time>
      </trkpt>
      <trkpt lat="45.24338" lon="4.01011">
        <ele>656.72</ele>
        <time>2022-02-24T10:33:08Z</time>
      </trkpt>
      <trkpt lat="45.24351" lon="4.0102">
        <ele>652.87</ele>
        <time>2022-02-24T10:33:22Z</time>
      </trkpt>
      <trkpt lat="45.24366" lon="4.01028">
        <ele>650.95</ele>
        <time>2022-02-24T10:33:37Z</time>
      </trkpt>
      <trkpt lat="45.24381" lon="4.01034">
        <ele>650.47</ele>
        <time>2022-02-24T10:33:51Z</time>
      </trkpt>
      <trkpt lat="45.24397" lon="4.01043">
        <ele>649.51</ele>
        <time>2022-02-24T10:34:07Z</time>
      </trkpt>
      <trkpt lat="45.24406" lon="4.01048">
        <ele>647.59</ele>
        <time>2022-02-24T10:34:14Z</time>
      </trkpt>
      <trkpt lat="45.24419" lon="4.01046">
        <ele>643.74</ele>
        <time>2022-02-24T10:34:24Z</time>
      </trkpt>
      <trkpt lat="45.24424" lon="4.01047">
        <ele>641.82</ele>
        <time>2022-02-24T10:34:28Z</time>
      </trkpt>
      <trkpt lat="45.24435" lon="4.01046">
        <ele>637.49</ele>
        <time>2022-02-24T10:34:37Z</time>
      </trkpt>
      <trkpt lat="45.24455" lon="4.01049">
        <ele>633.65</ele>
        <time>2022-02-24T10:34:53Z</time>
      </trkpt>
      <trkpt lat="45.24468" lon="4.01057">
        <ele>630.76</ele>
        <time>2022-02-24T10:35:08Z</time>
      </trkpt>
      <trkpt lat="45.24479" lon="4.01061">
        <ele>627.88</ele>
        <time>2022-02-24T10:35:22Z</time>
      </trkpt>
      <trkpt lat="45.24489" lon="4.01077">
        <ele>624.99</ele>
        <time>2022-02-24T10:35:35Z</time>
      </trkpt>
      <trkpt lat="45.24493" lon="4.01084">
        <ele>624.51</ele>
        <time>2022-02-24T10:35:41Z</time>
      </trkpt>
      <trkpt lat="45.24503" lon="4.011">
        <ele>623.07</ele>
        <time>2022-02-24T10:35:56Z</time>
      </trkpt>
      <trkpt lat="45.24508" lon="4.01106">
        <ele>621.15</ele>
        <time>2022-02-24T10:36:05Z</time>
      </trkpt>
      <trkpt lat="45.24515" lon="4.01085">
        <ele>622.11</ele>
        <time>2022-02-24T10:36:22Z</time>
      </trkpt>
      <trkpt lat="45.24517" lon="4.01063">
        <ele>624.51</ele>
        <time>2022-02-24T10:36:34Z</time>
      </trkpt>
      <trkpt lat="45.24513" lon="4.01043">
        <ele>627.4</ele>
        <time>2022-02-24T10:36:48Z</time>
      </trkpt>
      <trkpt lat="45.24506" lon="4.01024">
        <ele>633.65</ele>
        <time>2022-02-24T10:37:02Z</time>
      </trkpt>
      <trkpt lat="45.24507" lon="4.01002">
        <ele>639.41</ele>
        <time>2022-02-24T10:37:15Z</time>
      </trkpt>
      <trkpt lat="45.24508" lon="4.00983">
        <ele>639.89</ele>
        <time>2022-02-24T10:37:29Z</time>
      </trkpt>
      <trkpt lat="45.2451" lon="4.00977">
        <ele>640.38</ele>
        <time>2022-02-24T10:37:33Z</time>
      </trkpt>
      <trkpt lat="45.24516" lon="4.00953">
        <ele>640.38</ele>
        <time>2022-02-24T10:37:47Z</time>
      </trkpt>
      <trkpt lat="45.2452" lon="4.00928">
        <ele>641.82</ele>
        <time>2022-02-24T10:38:00Z</time>
      </trkpt>
      <trkpt lat="45.24525" lon="4.00901">
        <ele>635.57</ele>
        <time>2022-02-24T10:38:10Z</time>
      </trkpt>
      <trkpt lat="45.24524" lon="4.00894">
        <ele>634.61</ele>
        <time>2022-02-24T10:38:14Z</time>
      </trkpt>
      <trkpt lat="45.24519" lon="4.00877">
        <ele>637.01</ele>
        <time>2022-02-24T10:38:29Z</time>
      </trkpt>
      <trkpt lat="45.24516" lon="4.00857">
        <ele>639.41</ele>
        <time>2022-02-24T10:38:42Z</time>
      </trkpt>
      <trkpt lat="45.24512" lon="4.00833">
        <ele>641.82</ele>
        <time>2022-02-24T10:38:57Z</time>
      </trkpt>
      <trkpt lat="45.24507" lon="4.00811">
        <ele>644.7</ele>
        <time>2022-02-24T10:39:13Z</time>
      </trkpt>
      <trkpt lat="45.24501" lon="4.00791">
        <ele>645.66</ele>
        <time>2022-02-24T10:39:27Z</time>
      </trkpt>
      <trkpt lat="45.245" lon="4.00769">
        <ele>646.62</ele>
        <time>2022-02-24T10:39:41Z</time>
      </trkpt>
      <trkpt lat="45.24499" lon="4.00765">
        <ele>645.66</ele>
        <time>2022-02-24T10:39:54Z</time>
      </trkpt>
      <trkpt lat="45.24499" lon="4.00759">
        <ele>645.66</ele>
        <time>2022-02-24T10:40:09Z</time>
      </trkpt>
      <trkpt lat="45.24502" lon="4.00748">
        <ele>646.62</ele>
        <time>2022-02-24T10:40:22Z</time>
      </trkpt>
      <trkpt lat="45.24503" lon="4.0075">
        <ele>647.1</ele>
        <time>2022-02-24T10:40:25Z</time>
      </trkpt>
      <trkpt lat="45.24503" lon="4.00753">
        <ele>649.99</ele>
        <time>2022-02-24T10:40:36Z</time>
      </trkpt>
      <trkpt lat="45.24504" lon="4.00758">
        <ele>650.95</ele>
        <time>2022-02-24T10:40:40Z</time>
      </trkpt>
      <trkpt lat="45.24508" lon="4.00771">
        <ele>654.31</ele>
        <time>2022-02-24T10:40:53Z</time>
      </trkpt>
      <trkpt lat="45.24517" lon="4.00784">
        <ele>651.91</ele>
        <time>2022-02-24T10:41:06Z</time>
      </trkpt>
      <trkpt lat="45.24526" lon="4.00795">
        <ele>649.03</ele>
        <time>2022-02-24T10:41:20Z</time>
      </trkpt>
      <trkpt lat="45.24535" lon="4.00806">
        <ele>648.07</ele>
        <time>2022-02-24T10:41:32Z</time>
      </trkpt>
      <trkpt lat="45.24544" lon="4.00818">
        <ele>645.18</ele>
        <time>2022-02-24T10:41:39Z</time>
      </trkpt>
      <trkpt lat="45.24559" lon="4.00837">
        <ele>638.45</ele>
        <time>2022-02-24T10:41:55Z</time>
      </trkpt>
      <trkpt lat="45.24569" lon="4.00846">
        <ele>642.3</ele>
        <time>2022-02-24T10:42:08Z</time>
      </trkpt>
      <trkpt lat="45.24577" lon="4.00852">
        <ele>646.62</ele>
        <time>2022-02-24T10:42:21Z</time>
      </trkpt>
      <trkpt lat="45.24584" lon="4.00857">
        <ele>648.07</ele>
        <time>2022-02-24T10:42:32Z</time>
      </trkpt>
      <trkpt lat="45.24599" lon="4.00866">
        <ele>650.47</ele>
        <time>2022-02-24T10:42:44Z</time>
      </trkpt>
      <trkpt lat="45.24611" lon="4.00877">
        <ele>653.35</ele>
        <time>2022-02-24T10:42:57Z</time>
      </trkpt>
      <trkpt lat="45.24614" lon="4.00876">
        <ele>654.31</ele>
        <time>2022-02-24T10:42:59Z</time>
      </trkpt>
      <trkpt lat="45.24626" lon="4.00876">
        <ele>655.28</ele>
        <time>2022-02-24T10:43:11Z</time>
      </trkpt>
      <trkpt lat="45.24643" lon="4.00879">
        <ele>651.91</ele>
        <time>2022-02-24T10:43:24Z</time>
      </trkpt>
      <trkpt lat="45.24656" lon="4.00888">
        <ele>655.28</ele>
        <time>2022-02-24T10:43:36Z</time>
      </trkpt>
      <trkpt lat="45.24663" lon="4.00895">
        <ele>660.56</ele>
        <time>2022-02-24T10:43:46Z</time>
      </trkpt>
      <trkpt lat="45.24673" lon="4.00899">
        <ele>662.49</ele>
        <time>2022-02-24T10:43:56Z</time>
      </trkpt>
      <trkpt lat="45.24688" lon="4.00906">
        <ele>663.93</ele>
        <time>2022-02-24T10:44:08Z</time>
      </trkpt>
      <trkpt lat="45.24703" lon="4.00911">
        <ele>664.89</ele>
        <time>2022-02-24T10:44:21Z</time>
      </trkpt>
      <trkpt lat="45.24719" lon="4.00914">
        <ele>668.73</ele>
        <time>2022-02-24T10:44:35Z</time>
      </trkpt>
      <trkpt lat="45.24733" lon="4.00916">
        <ele>674.02</ele>
        <time>2022-02-24T10:44:49Z</time>
      </trkpt>
      <trkpt lat="45.24752" lon="4.00915">
        <ele>675.94</ele>
        <time>2022-02-24T10:45:03Z</time>
      </trkpt>
      <trkpt lat="45.24766" lon="4.00921">
        <ele>676.42</ele>
        <time>2022-02-24T10:45:16Z</time>
      </trkpt>
      <trkpt lat="45.24771" lon="4.00923">
        <ele>677.39</ele>
        <time>2022-02-24T10:45:21Z</time>
      </trkpt>
      <trkpt lat="45.24788" lon="4.00928">
        <ele>678.35</ele>
        <time>2022-02-24T10:45:36Z</time>
      </trkpt>
      <trkpt lat="45.24803" lon="4.00924">
        <ele>672.1</ele>
        <time>2022-02-24T10:45:48Z</time>
      </trkpt>
      <trkpt lat="45.24818" lon="4.00924">
        <ele>672.1</ele>
        <time>2022-02-24T10:46:01Z</time>
      </trkpt>
      <trkpt lat="45.24834" lon="4.00919">
        <ele>672.1</ele>
        <time>2022-02-24T10:46:15Z</time>
      </trkpt>
      <trkpt lat="45.24855" lon="4.0091">
        <ele>670.66</ele>
        <time>2022-02-24T10:46:29Z</time>
      </trkpt>
      <trkpt lat="45.2487" lon="4.00888">
        <ele>665.85</ele>
        <time>2022-02-24T10:46:45Z</time>
      </trkpt>
      <trkpt lat="45.24872" lon="4.00885">
        <ele>665.37</ele>
        <time>2022-02-24T10:46:47Z</time>
      </trkpt>
      <trkpt lat="45.24883" lon="4.00873">
        <ele>664.41</ele>
        <time>2022-02-24T10:47:00Z</time>
      </trkpt>
      <trkpt lat="45.24894" lon="4.00859">
        <ele>663.93</ele>
        <time>2022-02-24T10:47:14Z</time>
      </trkpt>
      <trkpt lat="45.24893" lon="4.00855">
        <ele>665.37</ele>
        <time>2022-02-24T10:47:18Z</time>
      </trkpt>
      <trkpt lat="45.24891" lon="4.00855">
        <ele>668.73</ele>
        <time>2022-02-24T10:47:29Z</time>
      </trkpt>
      <trkpt lat="45.24876" lon="4.00855">
        <ele>670.18</ele>
        <time>2022-02-24T10:47:43Z</time>
      </trkpt>
      <trkpt lat="45.24867" lon="4.00857">
        <ele>672.58</ele>
        <time>2022-02-24T10:47:51Z</time>
      </trkpt>
      <trkpt lat="45.24854" lon="4.00856">
        <ele>674.5</ele>
        <time>2022-02-24T10:48:03Z</time>
      </trkpt>
      <trkpt lat="45.24844" lon="4.00857">
        <ele>674.98</ele>
        <time>2022-02-24T10:48:11Z</time>
      </trkpt>
      <trkpt lat="45.24838" lon="4.00857">
        <ele>677.39</ele>
        <time>2022-02-24T10:48:18Z</time>
      </trkpt>
      <trkpt lat="45.2483" lon="4.00855">
        <ele>680.75</ele>
        <time>2022-02-24T10:48:25Z</time>
      </trkpt>
      <trkpt lat="45.24827" lon="4.00852">
        <ele>683.15</ele>
        <time>2022-02-24T10:48:30Z</time>
      </trkpt>
      <trkpt lat="45.24825" lon="4.00851">
        <ele>684.6</ele>
        <time>2022-02-24T10:48:33Z</time>
      </trkpt>
      <trkpt lat="45.24811" lon="4.00842">
        <ele>694.21</ele>
        <time>2022-02-24T10:48:47Z</time>
      </trkpt>
      <trkpt lat="45.24801" lon="4.00835">
        <ele>699.98</ele>
        <time>2022-02-24T10:48:58Z</time>
      </trkpt>
      <trkpt lat="45.24788" lon="4.00831">
        <ele>701.9</ele>
        <time>2022-02-24T10:49:05Z</time>
      </trkpt>
      <trkpt lat="45.24784" lon="4.0083">
        <ele>701.9</ele>
        <time>2022-02-24T10:49:07Z</time>
      </trkpt>
      <trkpt lat="45.24765" lon="4.00813">
        <ele>689.4</ele>
        <time>2022-02-24T10:49:20Z</time>
      </trkpt>
      <trkpt lat="45.24766" lon="4.00801">
        <ele>687.96</ele>
        <time>2022-02-24T10:49:25Z</time>
      </trkpt>
      <trkpt lat="45.24771" lon="4.00786">
        <ele>691.81</ele>
        <time>2022-02-24T10:49:38Z</time>
      </trkpt>
      <trkpt lat="45.24778" lon="4.00767">
        <ele>696.13</ele>
        <time>2022-02-24T10:49:53Z</time>
      </trkpt>
      <trkpt lat="45.24782" lon="4.00749">
        <ele>697.57</ele>
        <time>2022-02-24T10:50:06Z</time>
      </trkpt>
      <trkpt lat="45.2478" lon="4.00733">
        <ele>701.9</ele>
        <time>2022-02-24T10:50:19Z</time>
      </trkpt>
      <trkpt lat="45.24778" lon="4.0072">
        <ele>705.26</ele>
        <time>2022-02-24T10:50:32Z</time>
      </trkpt>
      <trkpt lat="45.24773" lon="4.0071">
        <ele>707.19</ele>
        <time>2022-02-24T10:50:45Z</time>
      </trkpt>
      <trkpt lat="45.2478" lon="4.00697">
        <ele>704.78</ele>
        <time>2022-02-24T10:50:59Z</time>
      </trkpt>
      <trkpt lat="45.24792" lon="4.00697">
        <ele>705.75</ele>
        <time>2022-02-24T10:51:12Z</time>
      </trkpt>
      <trkpt lat="45.24807" lon="4.00693">
        <ele>707.67</ele>
        <time>2022-02-24T10:51:28Z</time>
      </trkpt>
      <trkpt lat="45.24827" lon="4.00692">
        <ele>707.67</ele>
        <time>2022-02-24T10:51:42Z</time>
      </trkpt>
      <trkpt lat="45.24844" lon="4.00684">
        <ele>708.63</ele>
        <time>2022-02-24T10:51:57Z</time>
      </trkpt>
      <trkpt lat="45.24847" lon="4.0068">
        <ele>708.15</ele>
        <time>2022-02-24T10:52:05Z</time>
      </trkpt>
      <trkpt lat="45.24857" lon="4.00676">
        <ele>708.63</ele>
        <time>2022-02-24T10:52:14Z</time>
      </trkpt>
      <trkpt lat="45.24861" lon="4.00647">
        <ele>713.44</ele>
        <time>2022-02-24T10:52:31Z</time>
      </trkpt>
      <trkpt lat="45.24863" lon="4.00619">
        <ele>714.88</ele>
        <time>2022-02-24T10:52:45Z</time>
      </trkpt>
      <trkpt lat="45.24866" lon="4.006">
        <ele>715.36</ele>
        <time>2022-02-24T10:52:58Z</time>
      </trkpt>
      <trkpt lat="45.24875" lon="4.00576">
        <ele>719.2</ele>
        <time>2022-02-24T10:53:14Z</time>
      </trkpt>
      <trkpt lat="45.24888" lon="4.00558">
        <ele>719.68</ele>
        <time>2022-02-24T10:53:31Z</time>
      </trkpt>
      <trkpt lat="45.24908" lon="4.00537">
        <ele>716.32</ele>
        <time>2022-02-24T10:53:48Z</time>
      </trkpt>
      <trkpt lat="45.24925" lon="4.0053">
        <ele>716.32</ele>
        <time>2022-02-24T10:54:03Z</time>
      </trkpt>
      <trkpt lat="45.24943" lon="4.00522">
        <ele>716.8</ele>
        <time>2022-02-24T10:54:18Z</time>
      </trkpt>
      <trkpt lat="45.24957" lon="4.00513">
        <ele>718.24</ele>
        <time>2022-02-24T10:54:34Z</time>
      </trkpt>
      <trkpt lat="45.2496" lon="4.00511">
        <ele>718.72</ele>
        <time>2022-02-24T10:54:40Z</time>
      </trkpt>
      <trkpt lat="45.24977" lon="4.00492">
        <ele>719.68</ele>
        <time>2022-02-24T10:54:59Z</time>
      </trkpt>
      <trkpt lat="45.24993" lon="4.0048">
        <ele>720.16</ele>
        <time>2022-02-24T10:55:14Z</time>
      </trkpt>
      <trkpt lat="45.25008" lon="4.00469">
        <ele>721.13</ele>
        <time>2022-02-24T10:55:29Z</time>
      </trkpt>
      <trkpt lat="45.25024" lon="4.00443">
        <ele>724.97</ele>
        <time>2022-02-24T10:55:49Z</time>
      </trkpt>
      <trkpt lat="45.2503" lon="4.00424">
        <ele>726.89</ele>
        <time>2022-02-24T10:56:01Z</time>
      </trkpt>
      <trkpt lat="45.25037" lon="4.004">
        <ele>728.82</ele>
        <time>2022-02-24T10:56:16Z</time>
      </trkpt>
      <trkpt lat="45.25041" lon="4.00388">
        <ele>729.78</ele>
        <time>2022-02-24T10:56:24Z</time>
      </trkpt>
      <trkpt lat="45.25051" lon="4.0037">
        <ele>727.37</ele>
        <time>2022-02-24T10:56:36Z</time>
      </trkpt>
      <trkpt lat="45.25059" lon="4.0037">
        <ele>724.97</ele>
        <time>2022-02-24T10:56:42Z</time>
      </trkpt>
      <trkpt lat="45.25068" lon="4.00373">
        <ele>723.53</ele>
        <time>2022-02-24T10:56:50Z</time>
      </trkpt>
      <trkpt lat="45.2507" lon="4.00372">
        <ele>723.53</ele>
        <time>2022-02-24T10:56:52Z</time>
      </trkpt>
      <trkpt lat="45.25069" lon="4.00346">
        <ele>726.89</ele>
        <time>2022-02-24T10:57:08Z</time>
      </trkpt>
      <trkpt lat="45.2507" lon="4.00313">
        <ele>731.22</ele>
        <time>2022-02-24T10:57:26Z</time>
      </trkpt>
      <trkpt lat="45.2507" lon="4.00309">
        <ele>731.7</ele>
        <time>2022-02-24T10:57:29Z</time>
      </trkpt>
      <trkpt lat="45.25073" lon="4.00282">
        <ele>739.39</ele>
        <time>2022-02-24T10:57:46Z</time>
      </trkpt>
      <trkpt lat="45.25077" lon="4.00258">
        <ele>744.68</ele>
        <time>2022-02-24T10:58:01Z</time>
      </trkpt>
      <trkpt lat="45.25081" lon="4.00235">
        <ele>746.6</ele>
        <time>2022-02-24T10:58:15Z</time>
      </trkpt>
      <trkpt lat="45.25091" lon="4.00215">
        <ele>744.2</ele>
        <time>2022-02-24T10:58:30Z</time>
      </trkpt>
      <trkpt lat="45.25101" lon="4.00203">
        <ele>744.68</ele>
        <time>2022-02-24T10:58:42Z</time>
      </trkpt>
      <trkpt lat="45.25101" lon="4.00187">
        <ele>748.04</ele>
        <time>2022-02-24T10:58:56Z</time>
      </trkpt>
      <trkpt lat="45.25094" lon="4.00169">
        <ele>749</ele>
        <time>2022-02-24T10:59:12Z</time>
      </trkpt>
      <trkpt lat="45.25094" lon="4.00167">
        <ele>749.49</ele>
        <time>2022-02-24T10:59:13Z</time>
      </trkpt>
      <trkpt lat="45.25095" lon="4.00145">
        <ele>752.37</ele>
        <time>2022-02-24T10:59:27Z</time>
      </trkpt>
      <trkpt lat="45.25101" lon="4.00117">
        <ele>749.49</ele>
        <time>2022-02-24T10:59:41Z</time>
      </trkpt>
      <trkpt lat="45.25102" lon="4.00107">
        <ele>750.45</ele>
        <time>2022-02-24T10:59:48Z</time>
      </trkpt>
      <trkpt lat="45.25101" lon="4.001">
        <ele>750.93</ele>
        <time>2022-02-24T10:59:52Z</time>
      </trkpt>
      <trkpt lat="45.25098" lon="4.00075">
        <ele>751.89</ele>
        <time>2022-02-24T11:00:08Z</time>
      </trkpt>
      <trkpt lat="45.25094" lon="4.00044">
        <ele>755.73</ele>
        <time>2022-02-24T11:00:25Z</time>
      </trkpt>
      <trkpt lat="45.25091" lon="4.00014">
        <ele>759.58</ele>
        <time>2022-02-24T11:00:42Z</time>
      </trkpt>
      <trkpt lat="45.25095" lon="3.99985">
        <ele>762.46</ele>
        <time>2022-02-24T11:00:58Z</time>
      </trkpt>
      <trkpt lat="45.25098" lon="3.99961">
        <ele>765.35</ele>
        <time>2022-02-24T11:01:12Z</time>
      </trkpt>
      <trkpt lat="45.25108" lon="3.99948">
        <ele>764.87</ele>
        <time>2022-02-24T11:01:25Z</time>
      </trkpt>
      <trkpt lat="45.25117" lon="3.99931">
        <ele>768.23</ele>
        <time>2022-02-24T11:01:39Z</time>
      </trkpt>
      <trkpt lat="45.25125" lon="3.99914">
        <ele>770.63</ele>
        <time>2022-02-24T11:01:52Z</time>
      </trkpt>
      <trkpt lat="45.25132" lon="3.99899">
        <ele>773.04</ele>
        <time>2022-02-24T11:02:04Z</time>
      </trkpt>
      <trkpt lat="45.25132" lon="3.99898">
        <ele>773.04</ele>
        <time>2022-02-24T11:02:05Z</time>
      </trkpt>
      <trkpt lat="45.25142" lon="3.99888">
        <ele>774.96</ele>
        <time>2022-02-24T11:02:18Z</time>
      </trkpt>
      <trkpt lat="45.25152" lon="3.99882">
        <ele>775.44</ele>
        <time>2022-02-24T11:02:28Z</time>
      </trkpt>
      <trkpt lat="45.25162" lon="3.99869">
        <ele>778.81</ele>
        <time>2022-02-24T11:02:41Z</time>
      </trkpt>
      <trkpt lat="45.25169" lon="3.99857">
        <ele>780.73</ele>
        <time>2022-02-24T11:02:56Z</time>
      </trkpt>
      <trkpt lat="45.25166" lon="3.99856">
        <ele>781.21</ele>
        <time>2022-02-24T11:03:00Z</time>
      </trkpt>
      <trkpt lat="45.25155" lon="3.99857">
        <ele>782.65</ele>
        <time>2022-02-24T11:03:10Z</time>
      </trkpt>
      <trkpt lat="45.25144" lon="3.99868">
        <ele>783.61</ele>
        <time>2022-02-24T11:03:26Z</time>
      </trkpt>
      <trkpt lat="45.25142" lon="3.99869">
        <ele>784.57</ele>
        <time>2022-02-24T11:03:55Z</time>
      </trkpt>
      <trkpt lat="45.25141" lon="3.99865">
        <ele>785.05</ele>
        <time>2022-02-24T11:03:59Z</time>
      </trkpt>
      <trkpt lat="45.25138" lon="3.99862">
        <ele>785.53</ele>
        <time>2022-02-24T11:04:06Z</time>
      </trkpt>
      <trkpt lat="45.25117" lon="3.99854">
        <ele>788.9</ele>
        <time>2022-02-24T11:04:25Z</time>
      </trkpt>
      <trkpt lat="45.25116" lon="3.99853">
        <ele>788.9</ele>
        <time>2022-02-24T11:04:26Z</time>
      </trkpt>
      <trkpt lat="45.25108" lon="3.9983">
        <ele>785.53</ele>
        <time>2022-02-24T11:04:41Z</time>
      </trkpt>
      <trkpt lat="45.25107" lon="3.99827">
        <ele>785.53</ele>
        <time>2022-02-24T11:04:52Z</time>
      </trkpt>
      <trkpt lat="45.25107" lon="3.99826">
        <ele>785.05</ele>
        <time>2022-02-24T11:05:12Z</time>
      </trkpt>
      <trkpt lat="45.25107" lon="3.99826">
        <ele>785.05</ele>
        <time>2022-02-24T11:05:24Z</time>
      </trkpt>
      <trkpt lat="45.25108" lon="3.99826">
        <ele>785.05</ele>
        <time>2022-02-24T11:05:43Z</time>
      </trkpt>
      <trkpt lat="45.25111" lon="3.99825">
        <ele>786.5</ele>
        <time>2022-02-24T11:06:03Z</time>
      </trkpt>
      <trkpt lat="45.25113" lon="3.99824">
        <ele>787.46</ele>
        <time>2022-02-24T11:06:23Z</time>
      </trkpt>
      <trkpt lat="45.25113" lon="3.99823">
        <ele>787.46</ele>
        <time>2022-02-24T11:06:36Z</time>
      </trkpt>
      <trkpt lat="45.25112" lon="3.99823">
        <ele>787.94</ele>
        <time>2022-02-24T11:06:50Z</time>
      </trkpt>
      <trkpt lat="45.25112" lon="3.99819">
        <ele>788.42</ele>
        <time>2022-02-24T11:07:08Z</time>
      </trkpt>
      <trkpt lat="45.25107" lon="3.99814">
        <ele>789.86</ele>
        <time>2022-02-24T11:07:32Z</time>
      </trkpt>
      <trkpt lat="45.25104" lon="3.9982">
        <ele>789.86</ele>
        <time>2022-02-24T11:07:55Z</time>
      </trkpt>
      <trkpt lat="45.25104" lon="3.99834">
        <ele>792.26</ele>
        <time>2022-02-24T11:08:19Z</time>
      </trkpt>
      <trkpt lat="45.25096" lon="3.99846">
        <ele>798.03</ele>
        <time>2022-02-24T11:08:42Z</time>
      </trkpt>
      <trkpt lat="45.2511" lon="3.99845">
        <ele>800.44</ele>
        <time>2022-02-24T11:09:01Z</time>
      </trkpt>
      <trkpt lat="45.25122" lon="3.99838">
        <ele>801.88</ele>
        <time>2022-02-24T11:09:23Z</time>
      </trkpt>
      <trkpt lat="45.25111" lon="3.99844">
        <ele>801.4</ele>
        <time>2022-02-24T11:09:47Z</time>
      </trkpt>
      <trkpt lat="45.25105" lon="3.99846">
        <ele>799.47</ele>
        <time>2022-02-24T11:10:07Z</time>
      </trkpt>
      <trkpt lat="45.25095" lon="3.99852">
        <ele>797.55</ele>
        <time>2022-02-24T11:10:34Z</time>
      </trkpt>
      <trkpt lat="45.25089" lon="3.99846">
        <ele>796.59</ele>
        <time>2022-02-24T11:10:58Z</time>
      </trkpt>
      <trkpt lat="45.25092" lon="3.99848">
        <ele>796.11</ele>
        <time>2022-02-24T11:11:26Z</time>
      </trkpt>
      <trkpt lat="45.25095" lon="3.99842">
        <ele>796.11</ele>
        <time>2022-02-24T11:11:48Z</time>
      </trkpt>
      <trkpt lat="45.25096" lon="3.99847">
        <ele>796.59</ele>
        <time>2022-02-24T11:12:08Z</time>
      </trkpt>
      <trkpt lat="45.25104" lon="3.99845">
        <ele>797.07</ele>
        <time>2022-02-24T11:12:17Z</time>
      </trkpt>
      <trkpt lat="45.25122" lon="3.9984">
        <ele>797.55</ele>
        <time>2022-02-24T11:12:43Z</time>
      </trkpt>
      <trkpt lat="45.25114" lon="3.99841">
        <ele>797.07</ele>
        <time>2022-02-24T11:13:11Z</time>
      </trkpt>
      <trkpt lat="45.25106" lon="3.99839">
        <ele>795.63</ele>
        <time>2022-02-24T11:13:34Z</time>
      </trkpt>
      <trkpt lat="45.25092" lon="3.99831">
        <ele>789.86</ele>
        <time>2022-02-24T11:13:58Z</time>
      </trkpt>
      <trkpt lat="45.25086" lon="3.99834">
        <ele>789.38</ele>
        <time>2022-02-24T11:14:08Z</time>
      </trkpt>
      <trkpt lat="45.25078" lon="3.99852">
        <ele>786.5</ele>
        <time>2022-02-24T11:14:39Z</time>
      </trkpt>
      <trkpt lat="45.2508" lon="3.99851">
        <ele>784.57</ele>
        <time>2022-02-24T11:14:59Z</time>
      </trkpt>
      <trkpt lat="45.25103" lon="3.99822">
        <ele>783.61</ele>
        <time>2022-02-24T11:35:04Z</time>
      </trkpt>
      <trkpt lat="45.25102" lon="3.99826">
        <ele>786.02</ele>
        <time>2022-02-24T11:35:31Z</time>
      </trkpt>
      <trkpt lat="45.25099" lon="3.99829">
        <ele>785.53</ele>
        <time>2022-02-24T11:35:57Z</time>
      </trkpt>
      <trkpt lat="45.25109" lon="3.99829">
        <ele>785.05</ele>
        <time>2022-02-24T11:36:24Z</time>
      </trkpt>
      <trkpt lat="45.25099" lon="3.9983">
        <ele>782.17</ele>
        <time>2022-02-24T11:36:47Z</time>
      </trkpt>
      <trkpt lat="45.2509" lon="3.99831">
        <ele>781.21</ele>
        <time>2022-02-24T11:37:08Z</time>
      </trkpt>
      <trkpt lat="45.25092" lon="3.99834">
        <ele>783.13</ele>
        <time>2022-02-24T11:37:34Z</time>
      </trkpt>
      <trkpt lat="45.25094" lon="3.99836">
        <ele>785.53</ele>
        <time>2022-02-24T11:37:58Z</time>
      </trkpt>
      <trkpt lat="45.25092" lon="3.99834">
        <ele>787.46</ele>
        <time>2022-02-24T11:38:21Z</time>
      </trkpt>
      <trkpt lat="45.25092" lon="3.99832">
        <ele>786.98</ele>
        <time>2022-02-24T11:38:44Z</time>
      </trkpt>
      <trkpt lat="45.25093" lon="3.99832">
        <ele>784.09</ele>
        <time>2022-02-24T11:39:09Z</time>
      </trkpt>
      <trkpt lat="45.25097" lon="3.99826">
        <ele>781.69</ele>
        <time>2022-02-24T11:39:30Z</time>
      </trkpt>
      <trkpt lat="45.25096" lon="3.99827">
        <ele>781.21</ele>
        <time>2022-02-24T11:39:53Z</time>
      </trkpt>
      <trkpt lat="45.25096" lon="3.99829">
        <ele>781.21</ele>
        <time>2022-02-24T11:40:20Z</time>
      </trkpt>
      <trkpt lat="45.25094" lon="3.99833">
        <ele>780.73</ele>
        <time>2022-02-24T11:40:48Z</time>
      </trkpt>
      <trkpt lat="45.25085" lon="3.99846">
        <ele>778.32</ele>
        <time>2022-02-24T11:41:14Z</time>
      </trkpt>
      <trkpt lat="45.25099" lon="3.99845">
        <ele>780.25</ele>
        <time>2022-02-24T11:41:34Z</time>
      </trkpt>
      <trkpt lat="45.25097" lon="3.99836">
        <ele>779.29</ele>
        <time>2022-02-24T12:31:38Z</time>
      </trkpt>
      <trkpt lat="45.25103" lon="3.99826">
        <ele>776.88</ele>
        <time>2022-02-24T12:32:05Z</time>
      </trkpt>
      <trkpt lat="45.25107" lon="3.9982">
        <ele>774.96</ele>
        <time>2022-02-24T12:32:33Z</time>
      </trkpt>
      <trkpt lat="45.25124" lon="3.99827">
        <ele>800.44</ele>
        <time>2022-02-24T12:40:43Z</time>
      </trkpt>
      <trkpt lat="45.25114" lon="3.99829">
        <ele>794.67</ele>
        <time>2022-02-24T12:40:56Z</time>
      </trkpt>
      <trkpt lat="45.25115" lon="3.99831">
        <ele>791.3</ele>
        <time>2022-02-24T12:41:07Z</time>
      </trkpt>
      <trkpt lat="45.25113" lon="3.99829">
        <ele>790.82</ele>
        <time>2022-02-24T12:41:21Z</time>
      </trkpt>
      <trkpt lat="45.25112" lon="3.9982">
        <ele>788.9</ele>
        <time>2022-02-24T12:41:32Z</time>
      </trkpt>
      <trkpt lat="45.2511" lon="3.99818">
        <ele>788.42</ele>
        <time>2022-02-24T12:42:00Z</time>
      </trkpt>
      <trkpt lat="45.25108" lon="3.99818">
        <ele>789.38</ele>
        <time>2022-02-24T12:42:11Z</time>
      </trkpt>
      <trkpt lat="45.25108" lon="3.99816">
        <ele>788.9</ele>
        <time>2022-02-24T12:42:23Z</time>
      </trkpt>
      <trkpt lat="45.25109" lon="3.99816">
        <ele>788.9</ele>
        <time>2022-02-24T12:42:36Z</time>
      </trkpt>
      <trkpt lat="45.25109" lon="3.99814">
        <ele>788.9</ele>
        <time>2022-02-24T12:42:48Z</time>
      </trkpt>
      <trkpt lat="45.25108" lon="3.99814">
        <ele>788.42</ele>
        <time>2022-02-24T12:43:02Z</time>
      </trkpt>
      <trkpt lat="45.25108" lon="3.99814">
        <ele>788.9</ele>
        <time>2022-02-24T12:43:16Z</time>
      </trkpt>
      <trkpt lat="45.25109" lon="3.99814">
        <ele>789.38</ele>
        <time>2022-02-24T12:43:29Z</time>
      </trkpt>
      <trkpt lat="45.25113" lon="3.99812">
        <ele>791.78</ele>
        <time>2022-02-24T12:43:43Z</time>
      </trkpt>
      <trkpt lat="45.25114" lon="3.99811">
        <ele>793.22</ele>
        <time>2022-02-24T12:43:54Z</time>
      </trkpt>
      <trkpt lat="45.25121" lon="3.99812">
        <ele>796.11</ele>
        <time>2022-02-24T12:44:09Z</time>
      </trkpt>
      <trkpt lat="45.2513" lon="3.99813">
        <ele>798.51</ele>
        <time>2022-02-24T12:44:21Z</time>
      </trkpt>
      <trkpt lat="45.25137" lon="3.99815">
        <ele>801.4</ele>
        <time>2022-02-24T12:44:27Z</time>
      </trkpt>
      <trkpt lat="45.25152" lon="3.99817">
        <ele>802.36</ele>
        <time>2022-02-24T12:44:41Z</time>
      </trkpt>
      <trkpt lat="45.25174" lon="3.99813">
        <ele>800.44</ele>
        <time>2022-02-24T12:44:58Z</time>
      </trkpt>
      <trkpt lat="45.25175" lon="3.99813">
        <ele>800.44</ele>
        <time>2022-02-24T12:44:59Z</time>
      </trkpt>
      <trkpt lat="45.25193" lon="3.99807">
        <ele>798.51</ele>
        <time>2022-02-24T12:45:13Z</time>
      </trkpt>
      <trkpt lat="45.25199" lon="3.99801">
        <ele>798.03</ele>
        <time>2022-02-24T12:45:20Z</time>
      </trkpt>
      <trkpt lat="45.25207" lon="3.99777">
        <ele>802.84</ele>
        <time>2022-02-24T12:45:35Z</time>
      </trkpt>
      <trkpt lat="45.25213" lon="3.99751">
        <ele>806.68</ele>
        <time>2022-02-24T12:45:50Z</time>
      </trkpt>
      <trkpt lat="45.25216" lon="3.99741">
        <ele>805.72</ele>
        <time>2022-02-24T12:45:57Z</time>
      </trkpt>
      <trkpt lat="45.25219" lon="3.99729">
        <ele>805.24</ele>
        <time>2022-02-24T12:46:05Z</time>
      </trkpt>
      <trkpt lat="45.25219" lon="3.99716">
        <ele>803.8</ele>
        <time>2022-02-24T12:46:13Z</time>
      </trkpt>
      <trkpt lat="45.25222" lon="3.99707">
        <ele>803.8</ele>
        <time>2022-02-24T12:46:20Z</time>
      </trkpt>
      <trkpt lat="45.25229" lon="3.99678">
        <ele>803.8</ele>
        <time>2022-02-24T12:46:37Z</time>
      </trkpt>
      <trkpt lat="45.25234" lon="3.99651">
        <ele>804.76</ele>
        <time>2022-02-24T12:46:52Z</time>
      </trkpt>
      <trkpt lat="45.25239" lon="3.99623">
        <ele>804.76</ele>
        <time>2022-02-24T12:47:08Z</time>
      </trkpt>
      <trkpt lat="45.25245" lon="3.996">
        <ele>803.32</ele>
        <time>2022-02-24T12:47:21Z</time>
      </trkpt>
      <trkpt lat="45.25252" lon="3.99574">
        <ele>800.44</ele>
        <time>2022-02-24T12:47:36Z</time>
      </trkpt>
      <trkpt lat="45.25255" lon="3.99559">
        <ele>799.95</ele>
        <time>2022-02-24T12:47:44Z</time>
      </trkpt>
      <trkpt lat="45.2526" lon="3.99531">
        <ele>801.4</ele>
        <time>2022-02-24T12:48:02Z</time>
      </trkpt>
      <trkpt lat="45.25268" lon="3.995">
        <ele>802.36</ele>
        <time>2022-02-24T12:48:20Z</time>
      </trkpt>
      <trkpt lat="45.25273" lon="3.99478">
        <ele>801.88</ele>
        <time>2022-02-24T12:48:34Z</time>
      </trkpt>
      <trkpt lat="45.25274" lon="3.99472">
        <ele>801.88</ele>
        <time>2022-02-24T12:48:38Z</time>
      </trkpt>
      <trkpt lat="45.25277" lon="3.99447">
        <ele>805.24</ele>
        <time>2022-02-24T12:48:54Z</time>
      </trkpt>
      <trkpt lat="45.2528" lon="3.99425">
        <ele>809.57</ele>
        <time>2022-02-24T12:49:07Z</time>
      </trkpt>
      <trkpt lat="45.25286" lon="3.9939">
        <ele>809.09</ele>
        <time>2022-02-24T12:49:25Z</time>
      </trkpt>
      <trkpt lat="45.2529" lon="3.99358">
        <ele>805.24</ele>
        <time>2022-02-24T12:49:41Z</time>
      </trkpt>
      <trkpt lat="45.25294" lon="3.99325">
        <ele>805.24</ele>
        <time>2022-02-24T12:49:58Z</time>
      </trkpt>
      <trkpt lat="45.25297" lon="3.99292">
        <ele>807.64</ele>
        <time>2022-02-24T12:50:15Z</time>
      </trkpt>
      <trkpt lat="45.25303" lon="3.99263">
        <ele>811.49</ele>
        <time>2022-02-24T12:50:32Z</time>
      </trkpt>
      <trkpt lat="45.25315" lon="3.99233">
        <ele>811.01</ele>
        <time>2022-02-24T12:50:51Z</time>
      </trkpt>
      <trkpt lat="45.25328" lon="3.9921">
        <ele>814.37</ele>
        <time>2022-02-24T12:51:09Z</time>
      </trkpt>
      <trkpt lat="45.25343" lon="3.99189">
        <ele>814.37</ele>
        <time>2022-02-24T12:51:26Z</time>
      </trkpt>
      <trkpt lat="45.25352" lon="3.99164">
        <ele>815.34</ele>
        <time>2022-02-24T12:51:42Z</time>
      </trkpt>
      <trkpt lat="45.25358" lon="3.99148">
        <ele>815.34</ele>
        <time>2022-02-24T12:51:52Z</time>
      </trkpt>
      <trkpt lat="45.25369" lon="3.99116">
        <ele>812.93</ele>
        <time>2022-02-24T12:52:10Z</time>
      </trkpt>
      <trkpt lat="45.25378" lon="3.99089">
        <ele>811.49</ele>
        <time>2022-02-24T12:52:26Z</time>
      </trkpt>
      <trkpt lat="45.25387" lon="3.9906">
        <ele>809.57</ele>
        <time>2022-02-24T12:52:43Z</time>
      </trkpt>
      <trkpt lat="45.2539" lon="3.99054">
        <ele>808.61</ele>
        <time>2022-02-24T12:52:47Z</time>
      </trkpt>
      <trkpt lat="45.25401" lon="3.99023">
        <ele>807.16</ele>
        <time>2022-02-24T12:53:06Z</time>
      </trkpt>
      <trkpt lat="45.25412" lon="3.98997">
        <ele>807.16</ele>
        <time>2022-02-24T12:53:24Z</time>
      </trkpt>
      <trkpt lat="45.25429" lon="3.9897">
        <ele>807.16</ele>
        <time>2022-02-24T12:53:45Z</time>
      </trkpt>
      <trkpt lat="45.2545" lon="3.98942">
        <ele>806.68</ele>
        <time>2022-02-24T12:54:07Z</time>
      </trkpt>
      <trkpt lat="45.2547" lon="3.98921">
        <ele>805.72</ele>
        <time>2022-02-24T12:54:26Z</time>
      </trkpt>
      <trkpt lat="45.25488" lon="3.98902">
        <ele>806.2</ele>
        <time>2022-02-24T12:54:43Z</time>
      </trkpt>
      <trkpt lat="45.25511" lon="3.98878">
        <ele>806.2</ele>
        <time>2022-02-24T12:55:05Z</time>
      </trkpt>
      <trkpt lat="45.25529" lon="3.98855">
        <ele>803.32</ele>
        <time>2022-02-24T12:55:24Z</time>
      </trkpt>
      <trkpt lat="45.25547" lon="3.98831">
        <ele>802.84</ele>
        <time>2022-02-24T12:55:42Z</time>
      </trkpt>
      <trkpt lat="45.25558" lon="3.98814">
        <ele>803.8</ele>
        <time>2022-02-24T12:55:56Z</time>
      </trkpt>
      <trkpt lat="45.25571" lon="3.98789">
        <ele>804.28</ele>
        <time>2022-02-24T12:56:15Z</time>
      </trkpt>
      <trkpt lat="45.2558" lon="3.98766">
        <ele>804.28</ele>
        <time>2022-02-24T12:56:31Z</time>
      </trkpt>
      <trkpt lat="45.2559" lon="3.98739">
        <ele>806.68</ele>
        <time>2022-02-24T12:56:48Z</time>
      </trkpt>
      <trkpt lat="45.25602" lon="3.98708">
        <ele>808.61</ele>
        <time>2022-02-24T12:57:09Z</time>
      </trkpt>
      <trkpt lat="45.25614" lon="3.98684">
        <ele>807.16</ele>
        <time>2022-02-24T12:57:26Z</time>
      </trkpt>
      <trkpt lat="45.2563" lon="3.98655">
        <ele>810.05</ele>
        <time>2022-02-24T12:57:46Z</time>
      </trkpt>
      <trkpt lat="45.25648" lon="3.98646">
        <ele>810.53</ele>
        <time>2022-02-24T12:58:02Z</time>
      </trkpt>
      <trkpt lat="45.25666" lon="3.98657">
        <ele>813.41</ele>
        <time>2022-02-24T12:58:18Z</time>
      </trkpt>
      <trkpt lat="45.25685" lon="3.98667">
        <ele>814.37</ele>
        <time>2022-02-24T12:58:35Z</time>
      </trkpt>
      <trkpt lat="45.257" lon="3.98675">
        <ele>814.85</ele>
        <time>2022-02-24T12:58:49Z</time>
      </trkpt>
      <trkpt lat="45.25712" lon="3.98682">
        <ele>815.34</ele>
        <time>2022-02-24T12:59:00Z</time>
      </trkpt>
      <trkpt lat="45.25716" lon="3.98685">
        <ele>815.82</ele>
        <time>2022-02-24T12:59:04Z</time>
      </trkpt>
      <trkpt lat="45.2573" lon="3.98705">
        <ele>818.7</ele>
        <time>2022-02-24T12:59:20Z</time>
      </trkpt>
      <trkpt lat="45.25737" lon="3.98717">
        <ele>817.74</ele>
        <time>2022-02-24T12:59:30Z</time>
      </trkpt>
      <trkpt lat="45.25743" lon="3.98741">
        <ele>815.82</ele>
        <time>2022-02-24T12:59:45Z</time>
      </trkpt>
      <trkpt lat="45.25753" lon="3.9877">
        <ele>813.41</ele>
        <time>2022-02-24T13:00:03Z</time>
      </trkpt>
      <trkpt lat="45.2576" lon="3.98791">
        <ele>812.45</ele>
        <time>2022-02-24T13:00:19Z</time>
      </trkpt>
      <trkpt lat="45.2576" lon="3.98793">
        <ele>812.45</ele>
        <time>2022-02-24T13:00:21Z</time>
      </trkpt>
      <trkpt lat="45.25765" lon="3.9881">
        <ele>810.05</ele>
        <time>2022-02-24T13:00:35Z</time>
      </trkpt>
      <trkpt lat="45.25765" lon="3.98815">
        <ele>809.57</ele>
        <time>2022-02-24T13:00:39Z</time>
      </trkpt>
      <trkpt lat="45.2577" lon="3.9883">
        <ele>809.57</ele>
        <time>2022-02-24T13:00:54Z</time>
      </trkpt>
      <trkpt lat="45.25775" lon="3.98835">
        <ele>808.61</ele>
        <time>2022-02-24T13:01:05Z</time>
      </trkpt>
      <trkpt lat="45.25781" lon="3.98846">
        <ele>809.09</ele>
        <time>2022-02-24T13:01:18Z</time>
      </trkpt>
      <trkpt lat="45.25787" lon="3.98859">
        <ele>808.13</ele>
        <time>2022-02-24T13:01:33Z</time>
      </trkpt>
      <trkpt lat="45.25792" lon="3.98876">
        <ele>804.76</ele>
        <time>2022-02-24T13:01:49Z</time>
      </trkpt>
      <trkpt lat="45.25798" lon="3.98898">
        <ele>803.32</ele>
        <time>2022-02-24T13:02:05Z</time>
      </trkpt>
      <trkpt lat="45.25799" lon="3.98901">
        <ele>803.32</ele>
        <time>2022-02-24T13:02:07Z</time>
      </trkpt>
      <trkpt lat="45.258" lon="3.98908">
        <ele>802.36</ele>
        <time>2022-02-24T13:02:12Z</time>
      </trkpt>
      <trkpt lat="45.25801" lon="3.98911">
        <ele>802.36</ele>
        <time>2022-02-24T13:02:16Z</time>
      </trkpt>
      <trkpt lat="45.25808" lon="3.98933">
        <ele>801.88</ele>
        <time>2022-02-24T13:02:32Z</time>
      </trkpt>
      <trkpt lat="45.25812" lon="3.98955">
        <ele>801.4</ele>
        <time>2022-02-24T13:02:48Z</time>
      </trkpt>
      <trkpt lat="45.25817" lon="3.98976">
        <ele>799.47</ele>
        <time>2022-02-24T13:03:03Z</time>
      </trkpt>
      <trkpt lat="45.25819" lon="3.99">
        <ele>796.59</ele>
        <time>2022-02-24T13:03:18Z</time>
      </trkpt>
      <trkpt lat="45.25818" lon="3.99028">
        <ele>793.71</ele>
        <time>2022-02-24T13:03:35Z</time>
      </trkpt>
      <trkpt lat="45.25816" lon="3.99056">
        <ele>791.3</ele>
        <time>2022-02-24T13:03:53Z</time>
      </trkpt>
      <trkpt lat="45.2581" lon="3.99079">
        <ele>789.86</ele>
        <time>2022-02-24T13:04:09Z</time>
      </trkpt>
      <trkpt lat="45.25809" lon="3.99084">
        <ele>789.86</ele>
        <time>2022-02-24T13:04:12Z</time>
      </trkpt>
      <trkpt lat="45.25803" lon="3.99102">
        <ele>787.94</ele>
        <time>2022-02-24T13:04:24Z</time>
      </trkpt>
      <trkpt lat="45.25796" lon="3.99127">
        <ele>784.09</ele>
        <time>2022-02-24T13:04:40Z</time>
      </trkpt>
      <trkpt lat="45.25793" lon="3.99157">
        <ele>780.73</ele>
        <time>2022-02-24T13:04:57Z</time>
      </trkpt>
      <trkpt lat="45.25794" lon="3.99181">
        <ele>778.32</ele>
        <time>2022-02-24T13:05:12Z</time>
      </trkpt>
      <trkpt lat="45.25798" lon="3.99207">
        <ele>777.84</ele>
        <time>2022-02-24T13:05:27Z</time>
      </trkpt>
      <trkpt lat="45.25801" lon="3.99216">
        <ele>778.81</ele>
        <time>2022-02-24T13:05:32Z</time>
      </trkpt>
      <trkpt lat="45.25811" lon="3.99243">
        <ele>779.29</ele>
        <time>2022-02-24T13:05:48Z</time>
      </trkpt>
      <trkpt lat="45.25821" lon="3.99266">
        <ele>776.88</ele>
        <time>2022-02-24T13:06:03Z</time>
      </trkpt>
      <trkpt lat="45.25833" lon="3.99289">
        <ele>773.52</ele>
        <time>2022-02-24T13:06:18Z</time>
      </trkpt>
      <trkpt lat="45.25842" lon="3.99314">
        <ele>768.23</ele>
        <time>2022-02-24T13:06:34Z</time>
      </trkpt>
      <trkpt lat="45.25844" lon="3.9933">
        <ele>764.87</ele>
        <time>2022-02-24T13:06:43Z</time>
      </trkpt>
      <trkpt lat="45.25863" lon="3.99343">
        <ele>762.94</ele>
        <time>2022-02-24T13:07:00Z</time>
      </trkpt>
      <trkpt lat="45.25882" lon="3.99348">
        <ele>760.54</ele>
        <time>2022-02-24T13:07:16Z</time>
      </trkpt>
      <trkpt lat="45.25885" lon="3.9935">
        <ele>760.06</ele>
        <time>2022-02-24T13:07:19Z</time>
      </trkpt>
      <trkpt lat="45.25906" lon="3.99353">
        <ele>759.1</ele>
        <time>2022-02-24T13:07:35Z</time>
      </trkpt>
      <trkpt lat="45.25919" lon="3.99355">
        <ele>757.66</ele>
        <time>2022-02-24T13:07:46Z</time>
      </trkpt>
      <trkpt lat="45.25932" lon="3.99352">
        <ele>756.69</ele>
        <time>2022-02-24T13:07:58Z</time>
      </trkpt>
      <trkpt lat="45.25946" lon="3.99357">
        <ele>757.66</ele>
        <time>2022-02-24T13:08:11Z</time>
      </trkpt>
      <trkpt lat="45.25958" lon="3.99374">
        <ele>759.1</ele>
        <time>2022-02-24T13:08:26Z</time>
      </trkpt>
      <trkpt lat="45.2596" lon="3.99376">
        <ele>759.1</ele>
        <time>2022-02-24T13:08:28Z</time>
      </trkpt>
      <trkpt lat="45.25971" lon="3.99392">
        <ele>757.18</ele>
        <time>2022-02-24T13:08:40Z</time>
      </trkpt>
      <trkpt lat="45.25985" lon="3.99409">
        <ele>756.21</ele>
        <time>2022-02-24T13:08:55Z</time>
      </trkpt>
      <trkpt lat="45.26" lon="3.99423">
        <ele>757.66</ele>
        <time>2022-02-24T13:09:10Z</time>
      </trkpt>
      <trkpt lat="45.26012" lon="3.9944">
        <ele>761.5</ele>
        <time>2022-02-24T13:09:24Z</time>
      </trkpt>
      <trkpt lat="45.26024" lon="3.99462">
        <ele>762.94</ele>
        <time>2022-02-24T13:09:38Z</time>
      </trkpt>
      <trkpt lat="45.26034" lon="3.99479">
        <ele>763.42</ele>
        <time>2022-02-24T13:09:52Z</time>
      </trkpt>
      <trkpt lat="45.26045" lon="3.99493">
        <ele>766.31</ele>
        <time>2022-02-24T13:10:05Z</time>
      </trkpt>
      <trkpt lat="45.26057" lon="3.99508">
        <ele>764.87</ele>
        <time>2022-02-24T13:10:21Z</time>
      </trkpt>
      <trkpt lat="45.26077" lon="3.99544">
        <ele>731.22</ele>
        <time>2022-02-24T13:17:50Z</time>
      </trkpt>
      <trkpt lat="45.2607" lon="3.99563">
        <ele>730.26</ele>
        <time>2022-02-24T13:18:05Z</time>
      </trkpt>
      <trkpt lat="45.26063" lon="3.99564">
        <ele>729.78</ele>
        <time>2022-02-24T13:18:18Z</time>
      </trkpt>
      <trkpt lat="45.26046" lon="3.99561">
        <ele>726.89</ele>
        <time>2022-02-24T13:18:32Z</time>
      </trkpt>
      <trkpt lat="45.26032" lon="3.99558">
        <ele>725.45</ele>
        <time>2022-02-24T13:18:48Z</time>
      </trkpt>
      <trkpt lat="45.26027" lon="3.99555">
        <ele>725.45</ele>
        <time>2022-02-24T13:19:00Z</time>
      </trkpt>
      <trkpt lat="45.26026" lon="3.99556">
        <ele>725.45</ele>
        <time>2022-02-24T13:19:17Z</time>
      </trkpt>
      <trkpt lat="45.26027" lon="3.99557">
        <ele>725.45</ele>
        <time>2022-02-24T13:19:19Z</time>
      </trkpt>
      <trkpt lat="45.26015" lon="3.99568">
        <ele>727.37</ele>
        <time>2022-02-24T13:19:33Z</time>
      </trkpt>
      <trkpt lat="45.26011" lon="3.99584">
        <ele>730.26</ele>
        <time>2022-02-24T13:19:49Z</time>
      </trkpt>
      <trkpt lat="45.26005" lon="3.99593">
        <ele>731.7</ele>
        <time>2022-02-24T13:20:02Z</time>
      </trkpt>
      <trkpt lat="45.25999" lon="3.99599">
        <ele>733.62</ele>
        <time>2022-02-24T13:20:12Z</time>
      </trkpt>
      <trkpt lat="45.26" lon="3.99607">
        <ele>735.07</ele>
        <time>2022-02-24T13:20:16Z</time>
      </trkpt>
      <trkpt lat="45.25992" lon="3.99643">
        <ele>735.55</ele>
        <time>2022-02-24T13:20:31Z</time>
      </trkpt>
      <trkpt lat="45.25983" lon="3.99659">
        <ele>736.51</ele>
        <time>2022-02-24T13:20:43Z</time>
      </trkpt>
      <trkpt lat="45.25982" lon="3.9967">
        <ele>736.03</ele>
        <time>2022-02-24T13:20:48Z</time>
      </trkpt>
      <trkpt lat="45.25973" lon="3.99697">
        <ele>732.66</ele>
        <time>2022-02-24T13:21:03Z</time>
      </trkpt>
      <trkpt lat="45.25967" lon="3.99717">
        <ele>735.07</ele>
        <time>2022-02-24T13:21:17Z</time>
      </trkpt>
      <trkpt lat="45.25964" lon="3.99746">
        <ele>736.51</ele>
        <time>2022-02-24T13:21:34Z</time>
      </trkpt>
      <trkpt lat="45.25962" lon="3.99767">
        <ele>736.99</ele>
        <time>2022-02-24T13:21:47Z</time>
      </trkpt>
      <trkpt lat="45.25961" lon="3.99796">
        <ele>727.37</ele>
        <time>2022-02-24T13:22:03Z</time>
      </trkpt>
      <trkpt lat="45.25957" lon="3.99812">
        <ele>722.09</ele>
        <time>2022-02-24T13:22:16Z</time>
      </trkpt>
      <trkpt lat="45.25952" lon="3.99832">
        <ele>719.2</ele>
        <time>2022-02-24T13:22:31Z</time>
      </trkpt>
      <trkpt lat="45.25946" lon="3.99845">
        <ele>716.32</ele>
        <time>2022-02-24T13:22:43Z</time>
      </trkpt>
      <trkpt lat="45.25942" lon="3.99855">
        <ele>713.92</ele>
        <time>2022-02-24T13:22:51Z</time>
      </trkpt>
      <trkpt lat="45.25938" lon="3.99875">
        <ele>714.4</ele>
        <time>2022-02-24T13:23:05Z</time>
      </trkpt>
      <trkpt lat="45.25939" lon="3.99879">
        <ele>714.4</ele>
        <time>2022-02-24T13:23:08Z</time>
      </trkpt>
      <trkpt lat="45.25939" lon="3.99898">
        <ele>712.95</ele>
        <time>2022-02-24T13:23:21Z</time>
      </trkpt>
      <trkpt lat="45.25934" lon="3.99918">
        <ele>712.47</ele>
        <time>2022-02-24T13:23:34Z</time>
      </trkpt>
      <trkpt lat="45.25932" lon="3.99926">
        <ele>712.47</ele>
        <time>2022-02-24T13:23:40Z</time>
      </trkpt>
      <trkpt lat="45.2592" lon="3.99944">
        <ele>716.32</ele>
        <time>2022-02-24T13:23:56Z</time>
      </trkpt>
      <trkpt lat="45.25909" lon="3.99961">
        <ele>719.68</ele>
        <time>2022-02-24T13:24:12Z</time>
      </trkpt>
      <trkpt lat="45.25908" lon="3.99966">
        <ele>720.65</ele>
        <time>2022-02-24T13:24:15Z</time>
      </trkpt>
      <trkpt lat="45.25903" lon="3.99991">
        <ele>721.61</ele>
        <time>2022-02-24T13:24:29Z</time>
      </trkpt>
      <trkpt lat="45.25896" lon="4.00015">
        <ele>721.61</ele>
        <time>2022-02-24T13:24:44Z</time>
      </trkpt>
      <trkpt lat="45.25883" lon="4.00039">
        <ele>718.24</ele>
        <time>2022-02-24T13:25:01Z</time>
      </trkpt>
      <trkpt lat="45.25864" lon="4.0006">
        <ele>714.4</ele>
        <time>2022-02-24T13:25:16Z</time>
      </trkpt>
      <trkpt lat="45.25853" lon="4.00079">
        <ele>718.72</ele>
        <time>2022-02-24T13:25:30Z</time>
      </trkpt>
      <trkpt lat="45.2585" lon="4.00103">
        <ele>729.78</ele>
        <time>2022-02-24T13:25:45Z</time>
      </trkpt>
      <trkpt lat="45.25844" lon="4.00113">
        <ele>736.51</ele>
        <time>2022-02-24T13:25:53Z</time>
      </trkpt>
      <trkpt lat="45.25833" lon="4.0013">
        <ele>737.47</ele>
        <time>2022-02-24T13:26:07Z</time>
      </trkpt>
      <trkpt lat="45.25815" lon="4.00141">
        <ele>736.99</ele>
        <time>2022-02-24T13:26:22Z</time>
      </trkpt>
      <trkpt lat="45.25805" lon="4.00143">
        <ele>734.58</ele>
        <time>2022-02-24T13:26:31Z</time>
      </trkpt>
      <trkpt lat="45.2579" lon="4.00141">
        <ele>736.51</ele>
        <time>2022-02-24T13:26:45Z</time>
      </trkpt>
      <trkpt lat="45.25774" lon="4.0014">
        <ele>739.39</ele>
        <time>2022-02-24T13:27:02Z</time>
      </trkpt>
      <trkpt lat="45.25772" lon="4.00141">
        <ele>734.1</ele>
        <time>2022-02-24T13:27:18Z</time>
      </trkpt>
      <trkpt lat="45.25763" lon="4.00151">
        <ele>739.39</ele>
        <time>2022-02-24T13:27:32Z</time>
      </trkpt>
      <trkpt lat="45.25748" lon="4.00193">
        <ele>724.97</ele>
        <time>2022-02-24T13:27:48Z</time>
      </trkpt>
      <trkpt lat="45.25744" lon="4.00198">
        <ele>721.61</ele>
        <time>2022-02-24T13:27:51Z</time>
      </trkpt>
      <trkpt lat="45.25736" lon="4.00219">
        <ele>719.2</ele>
        <time>2022-02-24T13:28:04Z</time>
      </trkpt>
      <trkpt lat="45.25721" lon="4.00233">
        <ele>719.68</ele>
        <time>2022-02-24T13:28:18Z</time>
      </trkpt>
      <trkpt lat="45.25711" lon="4.0025">
        <ele>728.82</ele>
        <time>2022-02-24T13:28:34Z</time>
      </trkpt>
      <trkpt lat="45.257" lon="4.00264">
        <ele>730.74</ele>
        <time>2022-02-24T13:28:45Z</time>
      </trkpt>
      <trkpt lat="45.25691" lon="4.00285">
        <ele>728.82</ele>
        <time>2022-02-24T13:28:59Z</time>
      </trkpt>
      <trkpt lat="45.25685" lon="4.00303">
        <ele>728.82</ele>
        <time>2022-02-24T13:29:14Z</time>
      </trkpt>
      <trkpt lat="45.25672" lon="4.00322">
        <ele>728.34</ele>
        <time>2022-02-24T13:29:30Z</time>
      </trkpt>
      <trkpt lat="45.2566" lon="4.00337">
        <ele>728.82</ele>
        <time>2022-02-24T13:29:44Z</time>
      </trkpt>
      <trkpt lat="45.25649" lon="4.00353">
        <ele>728.82</ele>
        <time>2022-02-24T13:29:56Z</time>
      </trkpt>
      <trkpt lat="45.25635" lon="4.00368">
        <ele>728.34</ele>
        <time>2022-02-24T13:30:10Z</time>
      </trkpt>
      <trkpt lat="45.25626" lon="4.00381">
        <ele>729.3</ele>
        <time>2022-02-24T13:30:24Z</time>
      </trkpt>
      <trkpt lat="45.25617" lon="4.00396">
        <ele>733.62</ele>
        <time>2022-02-24T13:30:38Z</time>
      </trkpt>
      <trkpt lat="45.25602" lon="4.00405">
        <ele>733.14</ele>
        <time>2022-02-24T13:30:52Z</time>
      </trkpt>
      <trkpt lat="45.25581" lon="4.00413">
        <ele>732.18</ele>
        <time>2022-02-24T13:31:07Z</time>
      </trkpt>
      <trkpt lat="45.2556" lon="4.00429">
        <ele>730.74</ele>
        <time>2022-02-24T13:31:22Z</time>
      </trkpt>
      <trkpt lat="45.25545" lon="4.00443">
        <ele>733.62</ele>
        <time>2022-02-24T13:31:36Z</time>
      </trkpt>
      <trkpt lat="45.25528" lon="4.00461">
        <ele>735.07</ele>
        <time>2022-02-24T13:31:52Z</time>
      </trkpt>
      <trkpt lat="45.25509" lon="4.00471">
        <ele>730.74</ele>
        <time>2022-02-24T13:32:07Z</time>
      </trkpt>
      <trkpt lat="45.255" lon="4.00475">
        <ele>730.26</ele>
        <time>2022-02-24T13:32:22Z</time>
      </trkpt>
      <trkpt lat="45.2548" lon="4.00482">
        <ele>726.41</ele>
        <time>2022-02-24T13:32:38Z</time>
      </trkpt>
      <trkpt lat="45.25461" lon="4.00485">
        <ele>724.49</ele>
        <time>2022-02-24T13:32:54Z</time>
      </trkpt>
      <trkpt lat="45.2543" lon="4.00484">
        <ele>723.53</ele>
        <time>2022-02-24T13:33:09Z</time>
      </trkpt>
      <trkpt lat="45.25403" lon="4.00482">
        <ele>721.13</ele>
        <time>2022-02-24T13:33:25Z</time>
      </trkpt>
      <trkpt lat="45.25384" lon="4.00478">
        <ele>715.84</ele>
        <time>2022-02-24T13:33:38Z</time>
      </trkpt>
      <trkpt lat="45.2537" lon="4.00471">
        <ele>714.4</ele>
        <time>2022-02-24T13:33:51Z</time>
      </trkpt>
      <trkpt lat="45.25363" lon="4.0047">
        <ele>714.4</ele>
        <time>2022-02-24T13:33:55Z</time>
      </trkpt>
      <trkpt lat="45.25342" lon="4.00463">
        <ele>715.36</ele>
        <time>2022-02-24T13:34:12Z</time>
      </trkpt>
      <trkpt lat="45.25329" lon="4.00453">
        <ele>708.15</ele>
        <time>2022-02-24T13:34:27Z</time>
      </trkpt>
      <trkpt lat="45.25322" lon="4.00453">
        <ele>705.75</ele>
        <time>2022-02-24T13:34:36Z</time>
      </trkpt>
      <trkpt lat="45.25306" lon="4.00464">
        <ele>702.38</ele>
        <time>2022-02-24T13:34:52Z</time>
      </trkpt>
      <trkpt lat="45.25294" lon="4.00475">
        <ele>701.9</ele>
        <time>2022-02-24T13:35:05Z</time>
      </trkpt>
      <trkpt lat="45.25286" lon="4.00481">
        <ele>699.5</ele>
        <time>2022-02-24T13:35:13Z</time>
      </trkpt>
      <trkpt lat="45.25274" lon="4.00493">
        <ele>695.17</ele>
        <time>2022-02-24T13:35:27Z</time>
      </trkpt>
      <trkpt lat="45.25272" lon="4.00513">
        <ele>697.57</ele>
        <time>2022-02-24T13:35:42Z</time>
      </trkpt>
      <trkpt lat="45.25273" lon="4.00517">
        <ele>699.02</ele>
        <time>2022-02-24T13:35:46Z</time>
      </trkpt>
      <trkpt lat="45.25279" lon="4.00527">
        <ele>709.11</ele>
        <time>2022-02-24T13:35:58Z</time>
      </trkpt>
      <trkpt lat="45.25286" lon="4.00539">
        <ele>721.13</ele>
        <time>2022-02-24T13:36:11Z</time>
      </trkpt>
      <trkpt lat="45.25292" lon="4.00548">
        <ele>722.57</ele>
        <time>2022-02-24T13:36:16Z</time>
      </trkpt>
      <trkpt lat="45.25297" lon="4.0056">
        <ele>722.09</ele>
        <time>2022-02-24T13:36:22Z</time>
      </trkpt>
      <trkpt lat="45.25298" lon="4.00575">
        <ele>718.24</ele>
        <time>2022-02-24T13:36:29Z</time>
      </trkpt>
      <trkpt lat="45.25297" lon="4.00584">
        <ele>715.36</ele>
        <time>2022-02-24T13:36:36Z</time>
      </trkpt>
      <trkpt lat="45.25297" lon="4.00588">
        <ele>714.88</ele>
        <time>2022-02-24T13:36:38Z</time>
      </trkpt>
      <trkpt lat="45.25295" lon="4.00599">
        <ele>711.51</ele>
        <time>2022-02-24T13:36:44Z</time>
      </trkpt>
      <trkpt lat="45.25293" lon="4.00613">
        <ele>708.15</ele>
        <time>2022-02-24T13:36:51Z</time>
      </trkpt>
      <trkpt lat="45.25292" lon="4.00618">
        <ele>706.23</ele>
        <time>2022-02-24T13:36:54Z</time>
      </trkpt>
      <trkpt lat="45.25279" lon="4.00638">
        <ele>699.5</ele>
        <time>2022-02-24T13:37:10Z</time>
      </trkpt>
      <trkpt lat="45.2527" lon="4.00656">
        <ele>696.13</ele>
        <time>2022-02-24T13:37:24Z</time>
      </trkpt>
      <trkpt lat="45.25261" lon="4.00679">
        <ele>695.65</ele>
        <time>2022-02-24T13:37:39Z</time>
      </trkpt>
      <trkpt lat="45.25259" lon="4.00704">
        <ele>692.77</ele>
        <time>2022-02-24T13:37:52Z</time>
      </trkpt>
      <trkpt lat="45.25258" lon="4.0073">
        <ele>687.96</ele>
        <time>2022-02-24T13:38:07Z</time>
      </trkpt>
      <trkpt lat="45.25255" lon="4.00753">
        <ele>682.19</ele>
        <time>2022-02-24T13:38:21Z</time>
      </trkpt>
      <trkpt lat="45.25241" lon="4.00768">
        <ele>680.75</ele>
        <time>2022-02-24T13:38:35Z</time>
      </trkpt>
      <trkpt lat="45.25229" lon="4.00783">
        <ele>680.75</ele>
        <time>2022-02-24T13:38:50Z</time>
      </trkpt>
      <trkpt lat="45.25227" lon="4.00786">
        <ele>681.23</ele>
        <time>2022-02-24T13:38:53Z</time>
      </trkpt>
      <trkpt lat="45.25222" lon="4.0079">
        <ele>680.27</ele>
        <time>2022-02-24T13:38:57Z</time>
      </trkpt>
      <trkpt lat="45.25213" lon="4.008">
        <ele>677.39</ele>
        <time>2022-02-24T13:39:06Z</time>
      </trkpt>
      <trkpt lat="45.25215" lon="4.00828">
        <ele>675.94</ele>
        <time>2022-02-24T13:39:21Z</time>
      </trkpt>
      <trkpt lat="45.25219" lon="4.00854">
        <ele>674.02</ele>
        <time>2022-02-24T13:39:38Z</time>
      </trkpt>
      <trkpt lat="45.25227" lon="4.00874">
        <ele>674.02</ele>
        <time>2022-02-24T13:39:51Z</time>
      </trkpt>
      <trkpt lat="45.25228" lon="4.00899">
        <ele>673.06</ele>
        <time>2022-02-24T13:40:07Z</time>
      </trkpt>
      <trkpt lat="45.25228" lon="4.00908">
        <ele>673.06</ele>
        <time>2022-02-24T13:40:12Z</time>
      </trkpt>
      <trkpt lat="45.25232" lon="4.00918">
        <ele>670.18</ele>
        <time>2022-02-24T13:40:18Z</time>
      </trkpt>
      <trkpt lat="45.2525" lon="4.00924">
        <ele>669.22</ele>
        <time>2022-02-24T13:40:33Z</time>
      </trkpt>
      <trkpt lat="45.25266" lon="4.00919">
        <ele>670.66</ele>
        <time>2022-02-24T13:40:48Z</time>
      </trkpt>
      <trkpt lat="45.25278" lon="4.00908">
        <ele>668.73</ele>
        <time>2022-02-24T13:41:03Z</time>
      </trkpt>
      <trkpt lat="45.25278" lon="4.00905">
        <ele>668.25</ele>
        <time>2022-02-24T13:41:05Z</time>
      </trkpt>
      <trkpt lat="45.25284" lon="4.00878">
        <ele>667.29</ele>
        <time>2022-02-24T13:41:21Z</time>
      </trkpt>
      <trkpt lat="45.25286" lon="4.00847">
        <ele>666.33</ele>
        <time>2022-02-24T13:41:37Z</time>
      </trkpt>
      <trkpt lat="45.25285" lon="4.00843">
        <ele>665.85</ele>
        <time>2022-02-24T13:41:39Z</time>
      </trkpt>
      <trkpt lat="45.2528" lon="4.00817">
        <ele>665.85</ele>
        <time>2022-02-24T13:41:54Z</time>
      </trkpt>
      <trkpt lat="45.25279" lon="4.00812">
        <ele>665.85</ele>
        <time>2022-02-24T13:41:57Z</time>
      </trkpt>
      <trkpt lat="45.25282" lon="4.00806">
        <ele>666.81</ele>
        <time>2022-02-24T13:42:00Z</time>
      </trkpt>
      <trkpt lat="45.25288" lon="4.00803">
        <ele>667.77</ele>
        <time>2022-02-24T13:42:04Z</time>
      </trkpt>
      <trkpt lat="45.253" lon="4.00815">
        <ele>673.06</ele>
        <time>2022-02-24T13:42:19Z</time>
      </trkpt>
      <trkpt lat="45.25315" lon="4.00828">
        <ele>678.35</ele>
        <time>2022-02-24T13:42:31Z</time>
      </trkpt>
      <trkpt lat="45.25334" lon="4.00832">
        <ele>681.23</ele>
        <time>2022-02-24T13:42:46Z</time>
      </trkpt>
      <trkpt lat="45.25345" lon="4.00838">
        <ele>680.75</ele>
        <time>2022-02-24T13:42:54Z</time>
      </trkpt>
      <trkpt lat="45.25357" lon="4.0085">
        <ele>676.91</ele>
        <time>2022-02-24T13:43:04Z</time>
      </trkpt>
      <trkpt lat="45.25375" lon="4.00864">
        <ele>675.46</ele>
        <time>2022-02-24T13:43:20Z</time>
      </trkpt>
      <trkpt lat="45.25395" lon="4.00869">
        <ele>676.91</ele>
        <time>2022-02-24T13:43:35Z</time>
      </trkpt>
      <trkpt lat="45.25409" lon="4.00875">
        <ele>678.35</ele>
        <time>2022-02-24T13:43:46Z</time>
      </trkpt>
      <trkpt lat="45.2543" lon="4.00877">
        <ele>676.91</ele>
        <time>2022-02-24T13:44:01Z</time>
      </trkpt>
      <trkpt lat="45.25453" lon="4.00881">
        <ele>674.98</ele>
        <time>2022-02-24T13:44:17Z</time>
      </trkpt>
      <trkpt lat="45.25473" lon="4.00883">
        <ele>673.06</ele>
        <time>2022-02-24T13:44:31Z</time>
      </trkpt>
      <trkpt lat="45.25497" lon="4.00883">
        <ele>671.14</ele>
        <time>2022-02-24T13:44:50Z</time>
      </trkpt>
      <trkpt lat="45.25519" lon="4.00875">
        <ele>667.29</ele>
        <time>2022-02-24T13:45:05Z</time>
      </trkpt>
      <trkpt lat="45.25539" lon="4.00862">
        <ele>668.25</ele>
        <time>2022-02-24T13:45:21Z</time>
      </trkpt>
      <trkpt lat="45.25555" lon="4.00853">
        <ele>672.1</ele>
        <time>2022-02-24T13:45:32Z</time>
      </trkpt>
      <trkpt lat="45.25562" lon="4.00848">
        <ele>673.54</ele>
        <time>2022-02-24T13:45:38Z</time>
      </trkpt>
      <trkpt lat="45.25577" lon="4.00841">
        <ele>672.58</ele>
        <time>2022-02-24T13:45:51Z</time>
      </trkpt>
      <trkpt lat="45.25579" lon="4.0084">
        <ele>672.58</ele>
        <time>2022-02-24T13:45:53Z</time>
      </trkpt>
      <trkpt lat="45.25597" lon="4.00842">
        <ele>672.1</ele>
        <time>2022-02-24T13:46:06Z</time>
      </trkpt>
      <trkpt lat="45.25609" lon="4.00848">
        <ele>674.5</ele>
        <time>2022-02-24T13:46:20Z</time>
      </trkpt>
      <trkpt lat="45.25628" lon="4.00857">
        <ele>679.79</ele>
        <time>2022-02-24T13:46:34Z</time>
      </trkpt>
      <trkpt lat="45.25638" lon="4.00866">
        <ele>678.83</ele>
        <time>2022-02-24T13:46:46Z</time>
      </trkpt>
      <trkpt lat="45.25653" lon="4.00875">
        <ele>678.35</ele>
        <time>2022-02-24T13:47:02Z</time>
      </trkpt>
      <trkpt lat="45.2567" lon="4.00885">
        <ele>673.06</ele>
        <time>2022-02-24T13:47:18Z</time>
      </trkpt>
      <trkpt lat="45.25682" lon="4.00896">
        <ele>666.81</ele>
        <time>2022-02-24T13:47:32Z</time>
      </trkpt>
      <trkpt lat="45.25693" lon="4.009">
        <ele>662.97</ele>
        <time>2022-02-24T13:47:48Z</time>
      </trkpt>
      <trkpt lat="45.25701" lon="4.00906">
        <ele>660.56</ele>
        <time>2022-02-24T13:48:02Z</time>
      </trkpt>
      <trkpt lat="45.25709" lon="4.00918">
        <ele>656.72</ele>
        <time>2022-02-24T13:48:18Z</time>
      </trkpt>
      <trkpt lat="45.25708" lon="4.00929">
        <ele>649.03</ele>
        <time>2022-02-24T13:48:32Z</time>
      </trkpt>
      <trkpt lat="45.25707" lon="4.00941">
        <ele>644.7</ele>
        <time>2022-02-24T13:48:45Z</time>
      </trkpt>
      <trkpt lat="45.25711" lon="4.00955">
        <ele>643.74</ele>
        <time>2022-02-24T13:48:55Z</time>
      </trkpt>
      <trkpt lat="45.25714" lon="4.00964">
        <ele>642.78</ele>
        <time>2022-02-24T13:49:06Z</time>
      </trkpt>
      <trkpt lat="45.25722" lon="4.00976">
        <ele>641.82</ele>
        <time>2022-02-24T13:49:20Z</time>
      </trkpt>
      <trkpt lat="45.25736" lon="4.00994">
        <ele>634.13</ele>
        <time>2022-02-24T13:49:35Z</time>
      </trkpt>
      <trkpt lat="45.2575" lon="4.01002">
        <ele>628.36</ele>
        <time>2022-02-24T13:49:49Z</time>
      </trkpt>
      <trkpt lat="45.25761" lon="4.01004">
        <ele>622.11</ele>
        <time>2022-02-24T13:50:02Z</time>
      </trkpt>
      <trkpt lat="45.25773" lon="4.01005">
        <ele>615.38</ele>
        <time>2022-02-24T13:50:18Z</time>
      </trkpt>
      <trkpt lat="45.25782" lon="4.01005">
        <ele>608.17</ele>
        <time>2022-02-24T13:50:31Z</time>
      </trkpt>
      <trkpt lat="45.25786" lon="4.01004">
        <ele>606.25</ele>
        <time>2022-02-24T13:50:39Z</time>
      </trkpt>
      <trkpt lat="45.25796" lon="4.01001">
        <ele>601.44</ele>
        <time>2022-02-24T13:50:49Z</time>
      </trkpt>
      <trkpt lat="45.25808" lon="4.01005">
        <ele>594.71</ele>
        <time>2022-02-24T13:51:05Z</time>
      </trkpt>
      <trkpt lat="45.25819" lon="4.01001">
        <ele>590.87</ele>
        <time>2022-02-24T13:51:17Z</time>
      </trkpt>
      <trkpt lat="45.25821" lon="4.00999">
        <ele>587.98</ele>
        <time>2022-02-24T13:51:34Z</time>
      </trkpt>
      <trkpt lat="45.25822" lon="4.00999">
        <ele>586.06</ele>
        <time>2022-02-24T13:51:50Z</time>
      </trkpt>
      <trkpt lat="45.25824" lon="4.00999">
        <ele>582.7</ele>
        <time>2022-02-24T13:52:08Z</time>
      </trkpt>
      <trkpt lat="45.25824" lon="4.01">
        <ele>581.25</ele>
        <time>2022-02-24T13:52:29Z</time>
      </trkpt>
      <trkpt lat="45.25824" lon="4.00999">
        <ele>580.77</ele>
        <time>2022-02-24T13:52:49Z</time>
      </trkpt>
      <trkpt lat="45.25825" lon="4.00998">
        <ele>579.81</ele>
        <time>2022-02-24T13:53:05Z</time>
      </trkpt>
      <trkpt lat="45.25825" lon="4.00997">
        <ele>578.85</ele>
        <time>2022-02-24T13:53:23Z</time>
      </trkpt>
      <trkpt lat="45.25825" lon="4.00996">
        <ele>578.85</ele>
        <time>2022-02-24T13:53:26Z</time>
      </trkpt>
      <trkpt lat="45.25829" lon="4.00988">
        <ele>576.45</ele>
        <time>2022-02-24T13:53:37Z</time>
      </trkpt>
      <trkpt lat="45.25835" lon="4.00982">
        <ele>572.6</ele>
        <time>2022-02-24T13:53:50Z</time>
      </trkpt>
      <trkpt lat="45.25843" lon="4.0098">
        <ele>573.08</ele>
        <time>2022-02-24T13:54:03Z</time>
      </trkpt>
      <trkpt lat="45.25853" lon="4.00988">
        <ele>573.56</ele>
        <time>2022-02-24T13:54:14Z</time>
      </trkpt>
      <trkpt lat="45.25865" lon="4.00997">
        <ele>572.12</ele>
        <time>2022-02-24T13:54:24Z</time>
      </trkpt>
      <trkpt lat="45.25871" lon="4.01006">
        <ele>571.16</ele>
        <time>2022-02-24T13:54:33Z</time>
      </trkpt>
      <trkpt lat="45.25872" lon="4.01012">
        <ele>571.16</ele>
        <time>2022-02-24T13:54:38Z</time>
      </trkpt>
      <trkpt lat="45.25878" lon="4.01029">
        <ele>570.68</ele>
        <time>2022-02-24T13:54:49Z</time>
      </trkpt>
      <trkpt lat="45.2588" lon="4.01037">
        <ele>570.2</ele>
        <time>2022-02-24T13:54:54Z</time>
      </trkpt>
      <trkpt lat="45.25884" lon="4.01053">
        <ele>566.83</ele>
        <time>2022-02-24T13:55:03Z</time>
      </trkpt>
      <trkpt lat="45.25886" lon="4.01056">
        <ele>566.35</ele>
        <time>2022-02-24T13:55:06Z</time>
      </trkpt>
      <trkpt lat="45.25898" lon="4.01091">
        <ele>562.51</ele>
        <time>2022-02-24T13:55:26Z</time>
      </trkpt>
      <trkpt lat="45.25908" lon="4.01115">
        <ele>562.03</ele>
        <time>2022-02-24T13:55:41Z</time>
      </trkpt>
      <trkpt lat="45.2591" lon="4.01125">
        <ele>560.11</ele>
        <time>2022-02-24T13:55:46Z</time>
      </trkpt>
      <trkpt lat="45.25917" lon="4.01163">
        <ele>553.86</ele>
        <time>2022-02-24T13:56:05Z</time>
      </trkpt>
      <trkpt lat="45.25923" lon="4.01191">
        <ele>549.53</ele>
        <time>2022-02-24T13:56:20Z</time>
      </trkpt>
      <trkpt lat="45.25921" lon="4.01214">
        <ele>547.61</ele>
        <time>2022-02-24T13:56:32Z</time>
      </trkpt>
      <trkpt lat="45.25918" lon="4.01251">
        <ele>546.65</ele>
        <time>2022-02-24T13:56:52Z</time>
      </trkpt>
      <trkpt lat="45.25918" lon="4.01257">
        <ele>546.65</ele>
        <time>2022-02-24T13:56:55Z</time>
      </trkpt>
      <trkpt lat="45.25918" lon="4.01265">
        <ele>546.17</ele>
        <time>2022-02-24T13:56:59Z</time>
      </trkpt>
      <trkpt lat="45.25919" lon="4.01273">
        <ele>546.65</ele>
        <time>2022-02-24T13:57:04Z</time>
      </trkpt>
      <trkpt lat="45.25922" lon="4.01296">
        <ele>550.97</ele>
        <time>2022-02-24T13:57:17Z</time>
      </trkpt>
      <trkpt lat="45.25924" lon="4.01325">
        <ele>554.34</ele>
        <time>2022-02-24T13:57:33Z</time>
      </trkpt>
      <trkpt lat="45.25928" lon="4.01342">
        <ele>555.3</ele>
        <time>2022-02-24T13:57:42Z</time>
      </trkpt>
      <trkpt lat="45.25932" lon="4.01373">
        <ele>555.78</ele>
        <time>2022-02-24T13:57:58Z</time>
      </trkpt>
      <trkpt lat="45.25934" lon="4.01389">
        <ele>556.74</ele>
        <time>2022-02-24T13:58:10Z</time>
      </trkpt>
      <trkpt lat="45.25933" lon="4.01402">
        <ele>556.26</ele>
        <time>2022-02-24T13:58:18Z</time>
      </trkpt>
      <trkpt lat="45.25918" lon="4.01419">
        <ele>553.38</ele>
        <time>2022-02-24T13:58:34Z</time>
      </trkpt>
      <trkpt lat="45.25917" lon="4.0142">
        <ele>552.41</ele>
        <time>2022-02-24T13:58:51Z</time>
      </trkpt>
      <trkpt lat="45.25912" lon="4.01427">
        <ele>551.45</ele>
        <time>2022-02-24T13:59:05Z</time>
      </trkpt>
      <trkpt lat="45.25897" lon="4.01443">
        <ele>550.97</ele>
        <time>2022-02-24T13:59:18Z</time>
      </trkpt>
      <trkpt lat="45.25886" lon="4.01454">
        <ele>550.01</ele>
        <time>2022-02-24T13:59:29Z</time>
      </trkpt>
      <trkpt lat="45.2588" lon="4.01461">
        <ele>549.53</ele>
        <time>2022-02-24T13:59:35Z</time>
      </trkpt>
      <trkpt lat="45.25881" lon="4.01468">
        <ele>550.49</ele>
        <time>2022-02-24T13:59:40Z</time>
      </trkpt>
      <trkpt lat="45.2589" lon="4.01489">
        <ele>552.9</ele>
        <time>2022-02-24T13:59:55Z</time>
      </trkpt>
      <trkpt lat="45.2589" lon="4.01499">
        <ele>551.93</ele>
        <time>2022-02-24T14:00:03Z</time>
      </trkpt>
      <trkpt lat="45.25889" lon="4.01505">
        <ele>551.93</ele>
        <time>2022-02-24T14:00:07Z</time>
      </trkpt>
      <trkpt lat="45.2589" lon="4.01512">
        <ele>552.41</ele>
        <time>2022-02-24T14:00:11Z</time>
      </trkpt>
      <trkpt lat="45.25891" lon="4.0152">
        <ele>552.41</ele>
        <time>2022-02-24T14:00:16Z</time>
      </trkpt>
      <trkpt lat="45.25893" lon="4.01537">
        <ele>552.9</ele>
        <time>2022-02-24T14:00:26Z</time>
      </trkpt>
      <trkpt lat="45.25885" lon="4.0156">
        <ele>554.82</ele>
        <time>2022-02-24T14:00:41Z</time>
      </trkpt>
      <trkpt lat="45.25884" lon="4.01585">
        <ele>557.22</ele>
        <time>2022-02-24T14:00:56Z</time>
      </trkpt>
      <trkpt lat="45.25878" lon="4.01604">
        <ele>562.51</ele>
        <time>2022-02-24T14:01:08Z</time>
      </trkpt>
      <trkpt lat="45.25879" lon="4.01606">
        <ele>562.99</ele>
        <time>2022-02-24T14:01:10Z</time>
      </trkpt>
      <trkpt lat="45.25879" lon="4.01624">
        <ele>571.16</ele>
        <time>2022-02-24T14:01:21Z</time>
      </trkpt>
      <trkpt lat="45.25875" lon="4.01643">
        <ele>571.64</ele>
        <time>2022-02-24T14:01:33Z</time>
      </trkpt>
      <trkpt lat="45.25876" lon="4.0165">
        <ele>572.6</ele>
        <time>2022-02-24T14:01:37Z</time>
      </trkpt>
      <trkpt lat="45.25879" lon="4.01661">
        <ele>572.12</ele>
        <time>2022-02-24T14:01:43Z</time>
      </trkpt>
      <trkpt lat="45.25878" lon="4.01676">
        <ele>571.64</ele>
        <time>2022-02-24T14:01:50Z</time>
      </trkpt>
      <trkpt lat="45.25878" lon="4.0169">
        <ele>574.04</ele>
        <time>2022-02-24T14:01:57Z</time>
      </trkpt>
      <trkpt lat="45.25877" lon="4.01703">
        <ele>576.45</ele>
        <time>2022-02-24T14:02:05Z</time>
      </trkpt>
      <trkpt lat="45.25867" lon="4.01723">
        <ele>575.49</ele>
        <time>2022-02-24T14:02:20Z</time>
      </trkpt>
      <trkpt lat="45.25859" lon="4.01732">
        <ele>576.45</ele>
        <time>2022-02-24T14:02:31Z</time>
      </trkpt>
      <trkpt lat="45.25854" lon="4.01749">
        <ele>577.89</ele>
        <time>2022-02-24T14:02:43Z</time>
      </trkpt>
      <trkpt lat="45.25844" lon="4.0177">
        <ele>575.49</ele>
        <time>2022-02-24T14:02:58Z</time>
      </trkpt>
      <trkpt lat="45.25837" lon="4.01786">
        <ele>575.49</ele>
        <time>2022-02-24T14:03:12Z</time>
      </trkpt>
      <trkpt lat="45.2583" lon="4.01806">
        <ele>576.45</ele>
        <time>2022-02-24T14:03:27Z</time>
      </trkpt>
      <trkpt lat="45.25823" lon="4.01825">
        <ele>576.45</ele>
        <time>2022-02-24T14:03:42Z</time>
      </trkpt>
      <trkpt lat="45.25823" lon="4.01826">
        <ele>575.97</ele>
        <time>2022-02-24T14:03:43Z</time>
      </trkpt>
      <trkpt lat="45.25809" lon="4.01846">
        <ele>572.12</ele>
        <time>2022-02-24T14:03:57Z</time>
      </trkpt>
      <trkpt lat="45.25804" lon="4.01861">
        <ele>570.2</ele>
        <time>2022-02-24T14:04:09Z</time>
      </trkpt>
      <trkpt lat="45.25796" lon="4.01875">
        <ele>571.64</ele>
        <time>2022-02-24T14:04:22Z</time>
      </trkpt>
      <trkpt lat="45.25793" lon="4.01889">
        <ele>569.24</ele>
        <time>2022-02-24T14:04:32Z</time>
      </trkpt>
      <trkpt lat="45.25791" lon="4.01893">
        <ele>568.76</ele>
        <time>2022-02-24T14:04:35Z</time>
      </trkpt>
      <trkpt lat="45.2579" lon="4.01906">
        <ele>567.32</ele>
        <time>2022-02-24T14:04:43Z</time>
      </trkpt>
      <trkpt lat="45.2579" lon="4.0192">
        <ele>561.55</ele>
        <time>2022-02-24T14:04:56Z</time>
      </trkpt>
      <trkpt lat="45.25792" lon="4.0193">
        <ele>561.07</ele>
        <time>2022-02-24T14:05:07Z</time>
      </trkpt>
      <trkpt lat="45.25793" lon="4.01948">
        <ele>560.59</ele>
        <time>2022-02-24T14:05:21Z</time>
      </trkpt>
      <trkpt lat="45.25791" lon="4.01957">
        <ele>556.74</ele>
        <time>2022-02-24T14:05:29Z</time>
      </trkpt>
      <trkpt lat="45.25786" lon="4.01972">
        <ele>553.86</ele>
        <time>2022-02-24T14:05:40Z</time>
      </trkpt>
      <trkpt lat="45.25777" lon="4.01984">
        <ele>549.05</ele>
        <time>2022-02-24T14:05:55Z</time>
      </trkpt>
      <trkpt lat="45.25771" lon="4.01989">
        <ele>548.57</ele>
        <time>2022-02-24T14:06:09Z</time>
      </trkpt>
      <trkpt lat="45.25754" lon="4.02004">
        <ele>552.41</ele>
        <time>2022-02-24T14:06:24Z</time>
      </trkpt>
      <trkpt lat="45.25747" lon="4.02016">
        <ele>555.78</ele>
        <time>2022-02-24T14:06:33Z</time>
      </trkpt>
      <trkpt lat="45.25741" lon="4.02034">
        <ele>564.43</ele>
        <time>2022-02-24T14:06:46Z</time>
      </trkpt>
      <trkpt lat="45.25738" lon="4.02041">
        <ele>568.28</ele>
        <time>2022-02-24T14:06:52Z</time>
      </trkpt>
      <trkpt lat="45.25736" lon="4.02044">
        <ele>569.72</ele>
        <time>2022-02-24T14:06:54Z</time>
      </trkpt>
      <trkpt lat="45.2573" lon="4.0205">
        <ele>572.12</ele>
        <time>2022-02-24T14:06:59Z</time>
      </trkpt>
      <trkpt lat="45.25722" lon="4.02064">
        <ele>573.56</ele>
        <time>2022-02-24T14:07:10Z</time>
      </trkpt>
      <trkpt lat="45.25722" lon="4.02093">
        <ele>570.68</ele>
        <time>2022-02-24T14:07:24Z</time>
      </trkpt>
      <trkpt lat="45.25718" lon="4.02118">
        <ele>568.28</ele>
        <time>2022-02-24T14:07:39Z</time>
      </trkpt>
      <trkpt lat="45.25718" lon="4.02138">
        <ele>567.32</ele>
        <time>2022-02-24T14:07:53Z</time>
      </trkpt>
      <trkpt lat="45.25719" lon="4.02148">
        <ele>568.76</ele>
        <time>2022-02-24T14:07:58Z</time>
      </trkpt>
      <trkpt lat="45.25714" lon="4.02169">
        <ele>571.64</ele>
        <time>2022-02-24T14:08:11Z</time>
      </trkpt>
      <trkpt lat="45.25713" lon="4.02184">
        <ele>575.01</ele>
        <time>2022-02-24T14:08:23Z</time>
      </trkpt>
      <trkpt lat="45.2571" lon="4.0219">
        <ele>576.45</ele>
        <time>2022-02-24T14:08:37Z</time>
      </trkpt>
      <trkpt lat="45.25709" lon="4.02201">
        <ele>581.73</ele>
        <time>2022-02-24T14:08:48Z</time>
      </trkpt>
      <trkpt lat="45.25709" lon="4.02213">
        <ele>580.29</ele>
        <time>2022-02-24T14:09:01Z</time>
      </trkpt>
      <trkpt lat="45.25711" lon="4.02236">
        <ele>585.1</ele>
        <time>2022-02-24T14:09:14Z</time>
      </trkpt>
      <trkpt lat="45.25714" lon="4.02259">
        <ele>594.71</ele>
        <time>2022-02-24T14:09:28Z</time>
      </trkpt>
      <trkpt lat="45.25714" lon="4.02261">
        <ele>594.71</ele>
        <time>2022-02-24T14:09:29Z</time>
      </trkpt>
      <trkpt lat="45.25715" lon="4.02286">
        <ele>588.46</ele>
        <time>2022-02-24T14:09:43Z</time>
      </trkpt>
      <trkpt lat="45.25714" lon="4.02305">
        <ele>589.43</ele>
        <time>2022-02-24T14:09:55Z</time>
      </trkpt>
      <trkpt lat="45.25713" lon="4.02321">
        <ele>589.43</ele>
        <time>2022-02-24T14:10:06Z</time>
      </trkpt>
      <trkpt lat="45.25716" lon="4.02336">
        <ele>589.91</ele>
        <time>2022-02-24T14:10:19Z</time>
      </trkpt>
      <trkpt lat="45.25725" lon="4.02347">
        <ele>587.98</ele>
        <time>2022-02-24T14:10:34Z</time>
      </trkpt>
      <trkpt lat="45.25737" lon="4.0237">
        <ele>583.66</ele>
        <time>2022-02-24T14:10:45Z</time>
      </trkpt>
      <trkpt lat="45.25738" lon="4.02385">
        <ele>577.89</ele>
        <time>2022-02-24T14:10:56Z</time>
      </trkpt>
      <trkpt lat="45.25722" lon="4.02396">
        <ele>571.64</ele>
        <time>2022-02-24T14:11:10Z</time>
      </trkpt>
      <trkpt lat="45.25709" lon="4.02401">
        <ele>571.64</ele>
        <time>2022-02-24T14:11:23Z</time>
      </trkpt>
      <trkpt lat="45.25708" lon="4.02402">
        <ele>572.12</ele>
        <time>2022-02-24T14:11:24Z</time>
      </trkpt>
      <trkpt lat="45.257" lon="4.0241">
        <ele>573.56</ele>
        <time>2022-02-24T14:11:37Z</time>
      </trkpt>
      <trkpt lat="45.25689" lon="4.02416">
        <ele>576.45</ele>
        <time>2022-02-24T14:11:50Z</time>
      </trkpt>
      <trkpt lat="45.25679" lon="4.02431">
        <ele>585.1</ele>
        <time>2022-02-24T14:12:06Z</time>
      </trkpt>
      <trkpt lat="45.2568" lon="4.0244">
        <ele>590.39</ele>
        <time>2022-02-24T14:12:15Z</time>
      </trkpt>
      <trkpt lat="45.25687" lon="4.0245">
        <ele>594.23</ele>
        <time>2022-02-24T14:12:26Z</time>
      </trkpt>
      <trkpt lat="45.25694" lon="4.02476">
        <ele>588.46</ele>
        <time>2022-02-24T14:12:41Z</time>
      </trkpt>
      <trkpt lat="45.257" lon="4.02492">
        <ele>580.29</ele>
        <time>2022-02-24T14:12:54Z</time>
      </trkpt>
      <trkpt lat="45.25701" lon="4.025">
        <ele>579.33</ele>
        <time>2022-02-24T14:12:58Z</time>
      </trkpt>
      <trkpt lat="45.25701" lon="4.0252">
        <ele>579.81</ele>
        <time>2022-02-24T14:13:11Z</time>
      </trkpt>
      <trkpt lat="45.25699" lon="4.02545">
        <ele>581.25</ele>
        <time>2022-02-24T14:13:27Z</time>
      </trkpt>
      <trkpt lat="45.25693" lon="4.02572">
        <ele>585.1</ele>
        <time>2022-02-24T14:13:45Z</time>
      </trkpt>
      <trkpt lat="45.25687" lon="4.02591">
        <ele>586.06</ele>
        <time>2022-02-24T14:13:57Z</time>
      </trkpt>
      <trkpt lat="45.25682" lon="4.02608">
        <ele>589.43</ele>
        <time>2022-02-24T14:14:09Z</time>
      </trkpt>
      <trkpt lat="45.25681" lon="4.02621">
        <ele>594.23</ele>
        <time>2022-02-24T14:14:20Z</time>
      </trkpt>
      <trkpt lat="45.25671" lon="4.02638">
        <ele>596.64</ele>
        <time>2022-02-24T14:14:33Z</time>
      </trkpt>
      <trkpt lat="45.25663" lon="4.02654">
        <ele>599.52</ele>
        <time>2022-02-24T14:14:48Z</time>
      </trkpt>
      <trkpt lat="45.25658" lon="4.0266">
        <ele>601.44</ele>
        <time>2022-02-24T14:15:01Z</time>
      </trkpt>
      <trkpt lat="45.25648" lon="4.02668">
        <ele>607.69</ele>
        <time>2022-02-24T14:15:13Z</time>
      </trkpt>
      <trkpt lat="45.2564" lon="4.02682">
        <ele>615.86</ele>
        <time>2022-02-24T14:15:24Z</time>
      </trkpt>
      <trkpt lat="45.25641" lon="4.027">
        <ele>615.86</ele>
        <time>2022-02-24T14:15:36Z</time>
      </trkpt>
      <trkpt lat="45.25637" lon="4.02715">
        <ele>613.46</ele>
        <time>2022-02-24T14:15:48Z</time>
      </trkpt>
      <trkpt lat="45.25635" lon="4.02731">
        <ele>617.3</ele>
        <time>2022-02-24T14:16:01Z</time>
      </trkpt>
      <trkpt lat="45.25634" lon="4.02735">
        <ele>618.75</ele>
        <time>2022-02-24T14:16:04Z</time>
      </trkpt>
      <trkpt lat="45.2564" lon="4.02749">
        <ele>619.71</ele>
        <time>2022-02-24T14:16:16Z</time>
      </trkpt>
      <trkpt lat="45.25641" lon="4.02763">
        <ele>622.11</ele>
        <time>2022-02-24T14:16:29Z</time>
      </trkpt>
      <trkpt lat="45.25643" lon="4.02768">
        <ele>622.11</ele>
        <time>2022-02-24T14:16:40Z</time>
      </trkpt>
      <trkpt lat="45.25649" lon="4.0278">
        <ele>624.99</ele>
        <time>2022-02-24T14:16:52Z</time>
      </trkpt>
      <trkpt lat="45.25654" lon="4.02794">
        <ele>624.99</ele>
        <time>2022-02-24T14:17:03Z</time>
      </trkpt>
      <trkpt lat="45.25662" lon="4.02808">
        <ele>622.11</ele>
        <time>2022-02-24T14:17:14Z</time>
      </trkpt>
      <trkpt lat="45.25668" lon="4.02817">
        <ele>617.78</ele>
        <time>2022-02-24T14:17:26Z</time>
      </trkpt>
      <trkpt lat="45.2567" lon="4.02825">
        <ele>617.3</ele>
        <time>2022-02-24T14:17:37Z</time>
      </trkpt>
      <trkpt lat="45.2568" lon="4.02836">
        <ele>620.19</ele>
        <time>2022-02-24T14:17:51Z</time>
      </trkpt>
      <trkpt lat="45.25686" lon="4.02843">
        <ele>622.11</ele>
        <time>2022-02-24T14:18:03Z</time>
      </trkpt>
      <trkpt lat="45.25693" lon="4.02849">
        <ele>626.44</ele>
        <time>2022-02-24T14:18:16Z</time>
      </trkpt>
      <trkpt lat="45.25693" lon="4.02852">
        <ele>626.92</ele>
        <time>2022-02-24T14:18:38Z</time>
      </trkpt>
      <trkpt lat="45.25704" lon="4.02854">
        <ele>630.28</ele>
        <time>2022-02-24T14:18:52Z</time>
      </trkpt>
      <trkpt lat="45.25723" lon="4.02861">
        <ele>634.61</ele>
        <time>2022-02-24T14:19:09Z</time>
      </trkpt>
      <trkpt lat="45.2573" lon="4.02865">
        <ele>635.09</ele>
        <time>2022-02-24T14:19:16Z</time>
      </trkpt>
      <trkpt lat="45.25735" lon="4.02882">
        <ele>633.65</ele>
        <time>2022-02-24T14:19:32Z</time>
      </trkpt>
      <trkpt lat="45.25735" lon="4.02889">
        <ele>633.65</ele>
        <time>2022-02-24T14:19:37Z</time>
      </trkpt>
      <trkpt lat="45.25731" lon="4.029">
        <ele>634.61</ele>
        <time>2022-02-24T14:19:51Z</time>
      </trkpt>
      <trkpt lat="45.25723" lon="4.02914">
        <ele>637.49</ele>
        <time>2022-02-24T14:20:05Z</time>
      </trkpt>
      <trkpt lat="45.25714" lon="4.02925">
        <ele>640.38</ele>
        <time>2022-02-24T14:20:18Z</time>
      </trkpt>
      <trkpt lat="45.25703" lon="4.02926">
        <ele>645.18</ele>
        <time>2022-02-24T14:20:32Z</time>
      </trkpt>
      <trkpt lat="45.25693" lon="4.02926">
        <ele>649.51</ele>
        <time>2022-02-24T14:20:43Z</time>
      </trkpt>
      <trkpt lat="45.25679" lon="4.02937">
        <ele>654.31</ele>
        <time>2022-02-24T14:20:58Z</time>
      </trkpt>
      <trkpt lat="45.25672" lon="4.02953">
        <ele>655.76</ele>
        <time>2022-02-24T14:21:11Z</time>
      </trkpt>
      <trkpt lat="45.25663" lon="4.02971">
        <ele>658.16</ele>
        <time>2022-02-24T14:21:25Z</time>
      </trkpt>
      <trkpt lat="45.2566" lon="4.02987">
        <ele>658.16</ele>
        <time>2022-02-24T14:21:36Z</time>
      </trkpt>
      <trkpt lat="45.25649" lon="4.03003">
        <ele>661.04</ele>
        <time>2022-02-24T14:21:50Z</time>
      </trkpt>
      <trkpt lat="45.25638" lon="4.03014">
        <ele>669.22</ele>
        <time>2022-02-24T14:22:02Z</time>
      </trkpt>
      <trkpt lat="45.25625" lon="4.03027">
        <ele>675.46</ele>
        <time>2022-02-24T14:22:17Z</time>
      </trkpt>
      <trkpt lat="45.25623" lon="4.03031">
        <ele>675.46</ele>
        <time>2022-02-24T14:22:30Z</time>
      </trkpt>
      <trkpt lat="45.25615" lon="4.03041">
        <ele>675.94</ele>
        <time>2022-02-24T14:22:42Z</time>
      </trkpt>
      <trkpt lat="45.25604" lon="4.03052">
        <ele>675.94</ele>
        <time>2022-02-24T14:22:53Z</time>
      </trkpt>
      <trkpt lat="45.25592" lon="4.03072">
        <ele>673.54</ele>
        <time>2022-02-24T14:23:07Z</time>
      </trkpt>
      <trkpt lat="45.25592" lon="4.03074">
        <ele>673.54</ele>
        <time>2022-02-24T14:23:08Z</time>
      </trkpt>
      <trkpt lat="45.2559" lon="4.031">
        <ele>675.94</ele>
        <time>2022-02-24T14:23:25Z</time>
      </trkpt>
      <trkpt lat="45.25592" lon="4.03109">
        <ele>675.94</ele>
        <time>2022-02-24T14:23:33Z</time>
      </trkpt>
      <trkpt lat="45.25588" lon="4.03131">
        <ele>674.98</ele>
        <time>2022-02-24T14:23:49Z</time>
      </trkpt>
      <trkpt lat="45.25585" lon="4.03145">
        <ele>675.94</ele>
        <time>2022-02-24T14:23:58Z</time>
      </trkpt>
      <trkpt lat="45.25581" lon="4.03155">
        <ele>675.94</ele>
        <time>2022-02-24T14:24:05Z</time>
      </trkpt>
      <trkpt lat="45.25583" lon="4.03182">
        <ele>673.54</ele>
        <time>2022-02-24T14:24:21Z</time>
      </trkpt>
      <trkpt lat="45.25587" lon="4.03207">
        <ele>672.58</ele>
        <time>2022-02-24T14:24:37Z</time>
      </trkpt>
      <trkpt lat="45.25588" lon="4.03212">
        <ele>672.58</ele>
        <time>2022-02-24T14:24:40Z</time>
      </trkpt>
      <trkpt lat="45.25591" lon="4.03237">
        <ele>673.06</ele>
        <time>2022-02-24T14:24:56Z</time>
      </trkpt>
      <trkpt lat="45.25589" lon="4.03249">
        <ele>673.54</ele>
        <time>2022-02-24T14:25:04Z</time>
      </trkpt>
      <trkpt lat="45.25581" lon="4.0327">
        <ele>674.98</ele>
        <time>2022-02-24T14:25:21Z</time>
      </trkpt>
      <trkpt lat="45.25571" lon="4.03284">
        <ele>676.42</ele>
        <time>2022-02-24T14:25:35Z</time>
      </trkpt>
      <trkpt lat="45.25559" lon="4.03291">
        <ele>678.35</ele>
        <time>2022-02-24T14:25:48Z</time>
      </trkpt>
      <trkpt lat="45.25543" lon="4.03299">
        <ele>678.83</ele>
        <time>2022-02-24T14:26:02Z</time>
      </trkpt>
      <trkpt lat="45.25525" lon="4.03307">
        <ele>679.31</ele>
        <time>2022-02-24T14:26:18Z</time>
      </trkpt>
      <trkpt lat="45.25512" lon="4.03304">
        <ele>679.79</ele>
        <time>2022-02-24T14:26:32Z</time>
      </trkpt>
      <trkpt lat="45.25499" lon="4.03304">
        <ele>682.19</ele>
        <time>2022-02-24T14:26:41Z</time>
      </trkpt>
      <trkpt lat="45.25488" lon="4.0331">
        <ele>683.63</ele>
        <time>2022-02-24T14:26:51Z</time>
      </trkpt>
      <trkpt lat="45.25478" lon="4.03306">
        <ele>681.71</ele>
        <time>2022-02-24T14:26:59Z</time>
      </trkpt>
      <trkpt lat="45.25469" lon="4.03296">
        <ele>679.31</ele>
        <time>2022-02-24T14:27:17Z</time>
      </trkpt>
      <trkpt lat="45.25467" lon="4.03295">
        <ele>677.87</ele>
        <time>2022-02-24T14:27:30Z</time>
      </trkpt>
      <trkpt lat="45.25464" lon="4.03294">
        <ele>677.87</ele>
        <time>2022-02-24T14:27:40Z</time>
      </trkpt>
      <trkpt lat="45.25467" lon="4.03296">
        <ele>677.39</ele>
        <time>2022-02-24T14:27:53Z</time>
      </trkpt>
      <trkpt lat="45.25467" lon="4.03296">
        <ele>676.91</ele>
        <time>2022-02-24T14:28:20Z</time>
      </trkpt>
      <trkpt lat="45.25467" lon="4.03296">
        <ele>676.42</ele>
        <time>2022-02-24T14:28:45Z</time>
      </trkpt>
      <trkpt lat="45.25468" lon="4.03296">
        <ele>675.94</ele>
        <time>2022-02-24T14:29:19Z</time>
      </trkpt>
      <trkpt lat="45.25468" lon="4.03296">
        <ele>674.98</ele>
        <time>2022-02-24T14:29:47Z</time>
      </trkpt>
      <trkpt lat="45.25468" lon="4.03296">
        <ele>674.02</ele>
        <time>2022-02-24T14:30:13Z</time>
      </trkpt>
      <trkpt lat="45.25466" lon="4.03296">
        <ele>674.5</ele>
        <time>2022-02-24T14:30:34Z</time>
      </trkpt>
      <trkpt lat="45.25463" lon="4.03295">
        <ele>674.02</ele>
        <time>2022-02-24T14:30:47Z</time>
      </trkpt>
      <trkpt lat="45.25463" lon="4.03294">
        <ele>674.02</ele>
        <time>2022-02-24T14:31:05Z</time>
      </trkpt>
      <trkpt lat="45.25456" lon="4.0329">
        <ele>673.54</ele>
        <time>2022-02-24T14:31:18Z</time>
      </trkpt>
      <trkpt lat="45.25452" lon="4.03292">
        <ele>672.1</ele>
        <time>2022-02-24T14:31:24Z</time>
      </trkpt>
      <trkpt lat="45.25439" lon="4.03296">
        <ele>669.22</ele>
        <time>2022-02-24T14:31:42Z</time>
      </trkpt>
      <trkpt lat="45.25428" lon="4.03294">
        <ele>671.62</ele>
        <time>2022-02-24T14:31:56Z</time>
      </trkpt>
      <trkpt lat="45.25418" lon="4.03267">
        <ele>672.58</ele>
        <time>2022-02-24T14:32:16Z</time>
      </trkpt>
      <trkpt lat="45.25412" lon="4.03242">
        <ele>673.06</ele>
        <time>2022-02-24T14:32:32Z</time>
      </trkpt>
      <trkpt lat="45.25412" lon="4.03234">
        <ele>672.58</ele>
        <time>2022-02-24T14:32:39Z</time>
      </trkpt>
      <trkpt lat="45.25407" lon="4.03225">
        <ele>673.06</ele>
        <time>2022-02-24T14:32:47Z</time>
      </trkpt>
      <trkpt lat="45.25405" lon="4.03223">
        <ele>673.54</ele>
        <time>2022-02-24T14:32:49Z</time>
      </trkpt>
      <trkpt lat="45.2539" lon="4.03208">
        <ele>674.5</ele>
        <time>2022-02-24T14:33:05Z</time>
      </trkpt>
      <trkpt lat="45.25373" lon="4.032">
        <ele>673.06</ele>
        <time>2022-02-24T14:33:19Z</time>
      </trkpt>
      <trkpt lat="45.2537" lon="4.03197">
        <ele>672.58</ele>
        <time>2022-02-24T14:33:22Z</time>
      </trkpt>
      <trkpt lat="45.25367" lon="4.03182">
        <ele>673.06</ele>
        <time>2022-02-24T14:33:33Z</time>
      </trkpt>
      <trkpt lat="45.25368" lon="4.0316">
        <ele>675.94</ele>
        <time>2022-02-24T14:33:46Z</time>
      </trkpt>
      <trkpt lat="45.25371" lon="4.03153">
        <ele>677.39</ele>
        <time>2022-02-24T14:33:50Z</time>
      </trkpt>
      <trkpt lat="45.25369" lon="4.03117">
        <ele>679.31</ele>
        <time>2022-02-24T14:34:10Z</time>
      </trkpt>
      <trkpt lat="45.25365" lon="4.03096">
        <ele>678.83</ele>
        <time>2022-02-24T14:34:23Z</time>
      </trkpt>
      <trkpt lat="45.25353" lon="4.03074">
        <ele>675.94</ele>
        <time>2022-02-24T14:34:38Z</time>
      </trkpt>
      <trkpt lat="45.25336" lon="4.03062">
        <ele>675.94</ele>
        <time>2022-02-24T14:34:56Z</time>
      </trkpt>
      <trkpt lat="45.25316" lon="4.03062">
        <ele>677.87</ele>
        <time>2022-02-24T14:35:14Z</time>
      </trkpt>
      <trkpt lat="45.25297" lon="4.03063">
        <ele>680.27</ele>
        <time>2022-02-24T14:35:28Z</time>
      </trkpt>
      <trkpt lat="45.25276" lon="4.03065">
        <ele>678.35</ele>
        <time>2022-02-24T14:35:45Z</time>
      </trkpt>
      <trkpt lat="45.25257" lon="4.03077">
        <ele>676.91</ele>
        <time>2022-02-24T14:36:02Z</time>
      </trkpt>
      <trkpt lat="45.2524" lon="4.03085">
        <ele>674.5</ele>
        <time>2022-02-24T14:36:16Z</time>
      </trkpt>
      <trkpt lat="45.25222" lon="4.03094">
        <ele>672.58</ele>
        <time>2022-02-24T14:36:31Z</time>
      </trkpt>
      <trkpt lat="45.25201" lon="4.03104">
        <ele>671.14</ele>
        <time>2022-02-24T14:36:48Z</time>
      </trkpt>
      <trkpt lat="45.25186" lon="4.03122">
        <ele>671.62</ele>
        <time>2022-02-24T14:37:05Z</time>
      </trkpt>
      <trkpt lat="45.25174" lon="4.03136">
        <ele>671.62</ele>
        <time>2022-02-24T14:37:17Z</time>
      </trkpt>
      <trkpt lat="45.25159" lon="4.03149">
        <ele>673.54</ele>
        <time>2022-02-24T14:37:31Z</time>
      </trkpt>
      <trkpt lat="45.25135" lon="4.03161">
        <ele>670.66</ele>
        <time>2022-02-24T14:37:49Z</time>
      </trkpt>
      <trkpt lat="45.25116" lon="4.03172">
        <ele>669.7</ele>
        <time>2022-02-24T14:38:04Z</time>
      </trkpt>
      <trkpt lat="45.25098" lon="4.03184">
        <ele>666.81</ele>
        <time>2022-02-24T14:38:20Z</time>
      </trkpt>
      <trkpt lat="45.25078" lon="4.03196">
        <ele>665.85</ele>
        <time>2022-02-24T14:38:38Z</time>
      </trkpt>
      <trkpt lat="45.25064" lon="4.03206">
        <ele>665.37</ele>
        <time>2022-02-24T14:38:51Z</time>
      </trkpt>
      <trkpt lat="45.25052" lon="4.03203">
        <ele>664.41</ele>
        <time>2022-02-24T14:39:00Z</time>
      </trkpt>
      <trkpt lat="45.25038" lon="4.03186">
        <ele>660.56</ele>
        <time>2022-02-24T14:39:16Z</time>
      </trkpt>
      <trkpt lat="45.25026" lon="4.03164">
        <ele>661.04</ele>
        <time>2022-02-24T14:39:32Z</time>
      </trkpt>
      <trkpt lat="45.25011" lon="4.0315">
        <ele>662.01</ele>
        <time>2022-02-24T14:39:47Z</time>
      </trkpt>
      <trkpt lat="45.24992" lon="4.0314">
        <ele>659.12</ele>
        <time>2022-02-24T14:40:04Z</time>
      </trkpt>
      <trkpt lat="45.24987" lon="4.03136">
        <ele>656.72</ele>
        <time>2022-02-24T14:40:14Z</time>
      </trkpt>
      <trkpt lat="45.24982" lon="4.03133">
        <ele>656.24</ele>
        <time>2022-02-24T14:40:18Z</time>
      </trkpt>
      <trkpt lat="45.24965" lon="4.03118">
        <ele>654.31</ele>
        <time>2022-02-24T14:40:33Z</time>
      </trkpt>
      <trkpt lat="45.24945" lon="4.03105">
        <ele>653.35</ele>
        <time>2022-02-24T14:40:50Z</time>
      </trkpt>
      <trkpt lat="45.24921" lon="4.03099">
        <ele>650.47</ele>
        <time>2022-02-24T14:41:06Z</time>
      </trkpt>
      <trkpt lat="45.24896" lon="4.03092">
        <ele>648.07</ele>
        <time>2022-02-24T14:41:24Z</time>
      </trkpt>
      <trkpt lat="45.24879" lon="4.03077">
        <ele>646.14</ele>
        <time>2022-02-24T14:41:40Z</time>
      </trkpt>
      <trkpt lat="45.24861" lon="4.03063">
        <ele>644.7</ele>
        <time>2022-02-24T14:41:56Z</time>
      </trkpt>
      <trkpt lat="45.24855" lon="4.03057">
        <ele>644.22</ele>
        <time>2022-02-24T14:42:02Z</time>
      </trkpt>
      <trkpt lat="45.24838" lon="4.03036">
        <ele>642.78</ele>
        <time>2022-02-24T14:42:20Z</time>
      </trkpt>
      <trkpt lat="45.24824" lon="4.03017">
        <ele>641.34</ele>
        <time>2022-02-24T14:42:36Z</time>
      </trkpt>
      <trkpt lat="45.24815" lon="4.02994">
        <ele>639.89</ele>
        <time>2022-02-24T14:42:51Z</time>
      </trkpt>
      <trkpt lat="45.24814" lon="4.02991">
        <ele>639.41</ele>
        <time>2022-02-24T14:42:53Z</time>
      </trkpt>
      <trkpt lat="45.24804" lon="4.02971">
        <ele>636.53</ele>
        <time>2022-02-24T14:43:08Z</time>
      </trkpt>
      <trkpt lat="45.24799" lon="4.0296">
        <ele>635.57</ele>
        <time>2022-02-24T14:43:16Z</time>
      </trkpt>
      <trkpt lat="45.24794" lon="4.02954">
        <ele>634.61</ele>
        <time>2022-02-24T14:43:21Z</time>
      </trkpt>
      <trkpt lat="45.24782" lon="4.02941">
        <ele>630.76</ele>
        <time>2022-02-24T14:43:36Z</time>
      </trkpt>
      <trkpt lat="45.24764" lon="4.02941">
        <ele>629.8</ele>
        <time>2022-02-24T14:43:52Z</time>
      </trkpt>
      <trkpt lat="45.24748" lon="4.0295">
        <ele>628.84</ele>
        <time>2022-02-24T14:44:06Z</time>
      </trkpt>
      <trkpt lat="45.24744" lon="4.02961">
        <ele>627.88</ele>
        <time>2022-02-24T14:44:14Z</time>
      </trkpt>
      <trkpt lat="45.24742" lon="4.02969">
        <ele>627.88</ele>
        <time>2022-02-24T14:44:19Z</time>
      </trkpt>
      <trkpt lat="45.24735" lon="4.02999">
        <ele>627.4</ele>
        <time>2022-02-24T14:44:38Z</time>
      </trkpt>
      <trkpt lat="45.24724" lon="4.03013">
        <ele>626.92</ele>
        <time>2022-02-24T14:44:53Z</time>
      </trkpt>
      <trkpt lat="45.24724" lon="4.03011">
        <ele>626.92</ele>
        <time>2022-02-24T14:44:57Z</time>
      </trkpt>
      <trkpt lat="45.24724" lon="4.02987">
        <ele>625.47</ele>
        <time>2022-02-24T14:45:14Z</time>
      </trkpt>
      <trkpt lat="45.24722" lon="4.02976">
        <ele>624.51</ele>
        <time>2022-02-24T14:45:21Z</time>
      </trkpt>
      <trkpt lat="45.24722" lon="4.02961">
        <ele>622.59</ele>
        <time>2022-02-24T14:45:35Z</time>
      </trkpt>
      <trkpt lat="45.24714" lon="4.0293">
        <ele>621.63</ele>
        <time>2022-02-24T14:45:53Z</time>
      </trkpt>
      <trkpt lat="45.24713" lon="4.02927">
        <ele>621.63</ele>
        <time>2022-02-24T14:45:55Z</time>
      </trkpt>
      <trkpt lat="45.24712" lon="4.02919">
        <ele>620.67</ele>
        <time>2022-02-24T14:46:00Z</time>
      </trkpt>
      <trkpt lat="45.2471" lon="4.02916">
        <ele>620.67</ele>
        <time>2022-02-24T14:46:03Z</time>
      </trkpt>
      <trkpt lat="45.24699" lon="4.02881">
        <ele>620.19</ele>
        <time>2022-02-24T14:46:23Z</time>
      </trkpt>
      <trkpt lat="45.24689" lon="4.0285">
        <ele>617.78</ele>
        <time>2022-02-24T14:46:39Z</time>
      </trkpt>
      <trkpt lat="45.24673" lon="4.02818">
        <ele>617.78</ele>
        <time>2022-02-24T14:46:59Z</time>
      </trkpt>
      <trkpt lat="45.2466" lon="4.02791">
        <ele>617.78</ele>
        <time>2022-02-24T14:47:17Z</time>
      </trkpt>
      <trkpt lat="45.24646" lon="4.0276">
        <ele>615.38</ele>
        <time>2022-02-24T14:47:37Z</time>
      </trkpt>
      <trkpt lat="45.24628" lon="4.02739">
        <ele>615.38</ele>
        <time>2022-02-24T14:47:54Z</time>
      </trkpt>
      <trkpt lat="45.24606" lon="4.02716">
        <ele>614.42</ele>
        <time>2022-02-24T14:48:13Z</time>
      </trkpt>
      <trkpt lat="45.24599" lon="4.02709">
        <ele>613.94</ele>
        <time>2022-02-24T14:48:19Z</time>
      </trkpt>
      <trkpt lat="45.24583" lon="4.02687">
        <ele>612.5</ele>
        <time>2022-02-24T14:48:36Z</time>
      </trkpt>
      <trkpt lat="45.24569" lon="4.02662">
        <ele>610.09</ele>
        <time>2022-02-24T14:48:52Z</time>
      </trkpt>
      <trkpt lat="45.24553" lon="4.02634">
        <ele>607.21</ele>
        <time>2022-02-24T14:49:11Z</time>
      </trkpt>
      <trkpt lat="45.24535" lon="4.02617">
        <ele>605.29</ele>
        <time>2022-02-24T14:49:28Z</time>
      </trkpt>
      <trkpt lat="45.24514" lon="4.02604">
        <ele>603.36</ele>
        <time>2022-02-24T14:49:46Z</time>
      </trkpt>
      <trkpt lat="45.24495" lon="4.02592">
        <ele>600.96</ele>
        <time>2022-02-24T14:50:02Z</time>
      </trkpt>
      <trkpt lat="45.24476" lon="4.02581">
        <ele>599.52</ele>
        <time>2022-02-24T14:50:20Z</time>
      </trkpt>
      <trkpt lat="45.24455" lon="4.02588">
        <ele>598.08</ele>
        <time>2022-02-24T14:50:36Z</time>
      </trkpt>
      <trkpt lat="45.2444" lon="4.02591">
        <ele>600.96</ele>
        <time>2022-02-24T14:50:48Z</time>
      </trkpt>
      <trkpt lat="45.24419" lon="4.02591">
        <ele>603.36</ele>
        <time>2022-02-24T14:51:04Z</time>
      </trkpt>
      <trkpt lat="45.24401" lon="4.02597">
        <ele>606.25</ele>
        <time>2022-02-24T14:51:18Z</time>
      </trkpt>
      <trkpt lat="45.24383" lon="4.02604">
        <ele>609.61</ele>
        <time>2022-02-24T14:51:32Z</time>
      </trkpt>
      <trkpt lat="45.24362" lon="4.02611">
        <ele>610.09</ele>
        <time>2022-02-24T14:51:46Z</time>
      </trkpt>
      <trkpt lat="45.24337" lon="4.02618">
        <ele>608.65</ele>
        <time>2022-02-24T14:52:05Z</time>
      </trkpt>
      <trkpt lat="45.24312" lon="4.02627">
        <ele>609.13</ele>
        <time>2022-02-24T14:52:24Z</time>
      </trkpt>
      <trkpt lat="45.24289" lon="4.02639">
        <ele>607.21</ele>
        <time>2022-02-24T14:52:42Z</time>
      </trkpt>
      <trkpt lat="45.24267" lon="4.02647">
        <ele>605.29</ele>
        <time>2022-02-24T14:52:59Z</time>
      </trkpt>
      <trkpt lat="45.24247" lon="4.02652">
        <ele>605.77</ele>
        <time>2022-02-24T14:53:13Z</time>
      </trkpt>
      <trkpt lat="45.24227" lon="4.02659">
        <ele>605.77</ele>
        <time>2022-02-24T14:53:29Z</time>
      </trkpt>
      <trkpt lat="45.24205" lon="4.02664">
        <ele>606.73</ele>
        <time>2022-02-24T14:53:45Z</time>
      </trkpt>
      <trkpt lat="45.24187" lon="4.02676">
        <ele>607.69</ele>
        <time>2022-02-24T14:54:02Z</time>
      </trkpt>
      <trkpt lat="45.24183" lon="4.02685">
        <ele>607.21</ele>
        <time>2022-02-24T14:54:10Z</time>
      </trkpt>
      <trkpt lat="45.24173" lon="4.02704">
        <ele>608.17</ele>
        <time>2022-02-24T14:54:25Z</time>
      </trkpt>
      <trkpt lat="45.24167" lon="4.02724">
        <ele>611.54</ele>
        <time>2022-02-24T14:54:39Z</time>
      </trkpt>
      <trkpt lat="45.24159" lon="4.02749">
        <ele>613.94</ele>
        <time>2022-02-24T14:54:56Z</time>
      </trkpt>
      <trkpt lat="45.24152" lon="4.02782">
        <ele>613.94</ele>
        <time>2022-02-24T14:55:14Z</time>
      </trkpt>
      <trkpt lat="45.24147" lon="4.02813">
        <ele>614.42</ele>
        <time>2022-02-24T14:55:32Z</time>
      </trkpt>
      <trkpt lat="45.24144" lon="4.02839">
        <ele>614.9</ele>
        <time>2022-02-24T14:55:46Z</time>
      </trkpt>
      <trkpt lat="45.24139" lon="4.02857">
        <ele>616.34</ele>
        <time>2022-02-24T14:56:04Z</time>
      </trkpt>
      <trkpt lat="45.24137" lon="4.02862">
        <ele>616.34</ele>
        <time>2022-02-24T14:56:16Z</time>
      </trkpt>
      <trkpt lat="45.2412" lon="4.02868">
        <ele>617.3</ele>
        <time>2022-02-24T14:56:33Z</time>
      </trkpt>
      <trkpt lat="45.241" lon="4.02874">
        <ele>616.34</ele>
        <time>2022-02-24T14:56:49Z</time>
      </trkpt>
      <trkpt lat="45.24084" lon="4.02881">
        <ele>617.3</ele>
        <time>2022-02-24T14:57:03Z</time>
      </trkpt>
      <trkpt lat="45.24065" lon="4.02888">
        <ele>616.82</ele>
        <time>2022-02-24T14:57:20Z</time>
      </trkpt>
      <trkpt lat="45.24057" lon="4.02892">
        <ele>616.34</ele>
        <time>2022-02-24T14:57:27Z</time>
      </trkpt>
      <trkpt lat="45.24035" lon="4.02902">
        <ele>617.3</ele>
        <time>2022-02-24T14:57:46Z</time>
      </trkpt>
      <trkpt lat="45.24008" lon="4.02914">
        <ele>616.82</ele>
        <time>2022-02-24T14:58:06Z</time>
      </trkpt>
      <trkpt lat="45.23986" lon="4.02927">
        <ele>618.26</ele>
        <time>2022-02-24T14:58:24Z</time>
      </trkpt>
      <trkpt lat="45.23964" lon="4.02932">
        <ele>621.63</ele>
        <time>2022-02-24T14:58:43Z</time>
      </trkpt>
      <trkpt lat="45.2394" lon="4.02926">
        <ele>622.11</ele>
        <time>2022-02-24T14:59:01Z</time>
      </trkpt>
      <trkpt lat="45.23914" lon="4.02917">
        <ele>620.67</ele>
        <time>2022-02-24T14:59:19Z</time>
      </trkpt>
      <trkpt lat="45.23893" lon="4.02907">
        <ele>619.71</ele>
        <time>2022-02-24T14:59:38Z</time>
      </trkpt>
      <trkpt lat="45.23869" lon="4.02897">
        <ele>618.75</ele>
        <time>2022-02-24T14:59:56Z</time>
      </trkpt>
      <trkpt lat="45.23866" lon="4.02897">
        <ele>618.26</ele>
        <time>2022-02-24T14:59:59Z</time>
      </trkpt>
      <trkpt lat="45.23847" lon="4.02904">
        <ele>616.34</ele>
        <time>2022-02-24T15:00:15Z</time>
      </trkpt>
      <trkpt lat="45.23825" lon="4.02921">
        <ele>614.9</ele>
        <time>2022-02-24T15:00:34Z</time>
      </trkpt>
      <trkpt lat="45.23797" lon="4.02934">
        <ele>615.38</ele>
        <time>2022-02-24T15:00:54Z</time>
      </trkpt>
      <trkpt lat="45.23767" lon="4.0294">
        <ele>614.9</ele>
        <time>2022-02-24T15:01:16Z</time>
      </trkpt>
      <trkpt lat="45.23737" lon="4.02942">
        <ele>616.34</ele>
        <time>2022-02-24T15:01:38Z</time>
      </trkpt>
      <trkpt lat="45.23719" lon="4.02938">
        <ele>617.78</ele>
        <time>2022-02-24T15:01:52Z</time>
      </trkpt>
      <trkpt lat="45.23698" lon="4.02931">
        <ele>619.23</ele>
        <time>2022-02-24T15:02:09Z</time>
      </trkpt>
      <trkpt lat="45.23673" lon="4.02932">
        <ele>619.71</ele>
        <time>2022-02-24T15:02:27Z</time>
      </trkpt>
      <trkpt lat="45.23659" lon="4.02934">
        <ele>623.07</ele>
        <time>2022-02-24T15:02:42Z</time>
      </trkpt>
      <trkpt lat="45.23643" lon="4.02933">
        <ele>625.96</ele>
        <time>2022-02-24T15:02:58Z</time>
      </trkpt>
      <trkpt lat="45.23625" lon="4.02932">
        <ele>628.84</ele>
        <time>2022-02-24T15:03:12Z</time>
      </trkpt>
      <trkpt lat="45.23602" lon="4.02924">
        <ele>627.4</ele>
        <time>2022-02-24T15:03:28Z</time>
      </trkpt>
      <trkpt lat="45.23581" lon="4.02918">
        <ele>624.03</ele>
        <time>2022-02-24T15:03:45Z</time>
      </trkpt>
      <trkpt lat="45.23578" lon="4.02918">
        <ele>623.07</ele>
        <time>2022-02-24T15:03:57Z</time>
      </trkpt>
      <trkpt lat="45.23578" lon="4.0292">
        <ele>623.55</ele>
        <time>2022-02-24T15:04:12Z</time>
      </trkpt>
      <trkpt lat="45.23579" lon="4.02923">
        <ele>624.51</ele>
        <time>2022-02-24T15:04:20Z</time>
      </trkpt>
      <trkpt lat="45.2358" lon="4.02925">
        <ele>624.03</ele>
        <time>2022-02-24T15:04:32Z</time>
      </trkpt>
      <trkpt lat="45.2358" lon="4.02925">
        <ele>624.51</ele>
        <time>2022-02-24T15:04:55Z</time>
      </trkpt>
      <trkpt lat="45.23581" lon="4.02926">
        <ele>624.51</ele>
        <time>2022-02-24T15:05:24Z</time>
      </trkpt>
      <trkpt lat="45.23581" lon="4.02926">
        <ele>625.47</ele>
        <time>2022-02-24T15:05:53Z</time>
      </trkpt>
      <trkpt lat="45.23581" lon="4.02926">
        <ele>624.99</ele>
        <time>2022-02-24T15:06:24Z</time>
      </trkpt>
      <trkpt lat="45.23581" lon="4.02926">
        <ele>625.47</ele>
        <time>2022-02-24T15:06:55Z</time>
      </trkpt>
      <trkpt lat="45.23581" lon="4.02926">
        <ele>625.47</ele>
        <time>2022-02-24T15:07:25Z</time>
      </trkpt>
      <trkpt lat="45.23581" lon="4.02926">
        <ele>625.47</ele>
        <time>2022-02-24T15:07:52Z</time>
      </trkpt>
      <trkpt lat="45.23581" lon="4.02926">
        <ele>624.99</ele>
        <time>2022-02-24T15:08:25Z</time>
      </trkpt>
      <trkpt lat="45.23582" lon="4.02927">
        <ele>624.99</ele>
        <time>2022-02-24T15:08:57Z</time>
      </trkpt>
      <trkpt lat="45.23582" lon="4.02928">
        <ele>624.51</ele>
        <time>2022-02-24T15:09:33Z</time>
      </trkpt>
      <trkpt lat="45.23582" lon="4.02928">
        <ele>624.51</ele>
        <time>2022-02-24T15:10:05Z</time>
      </trkpt>
      <trkpt lat="45.23582" lon="4.02928">
        <ele>624.03</ele>
        <time>2022-02-24T15:10:29Z</time>
      </trkpt>
      <trkpt lat="45.23582" lon="4.02929">
        <ele>623.55</ele>
        <time>2022-02-24T15:10:59Z</time>
      </trkpt>
      <trkpt lat="45.23582" lon="4.02928">
        <ele>623.55</ele>
        <time>2022-02-24T15:11:23Z</time>
      </trkpt>
      <trkpt lat="45.23582" lon="4.02928">
        <ele>623.07</ele>
        <time>2022-02-24T15:11:46Z</time>
      </trkpt>
      <trkpt lat="45.2358" lon="4.02927">
        <ele>623.07</ele>
        <time>2022-02-24T15:12:18Z</time>
      </trkpt>
      <trkpt lat="45.2358" lon="4.02928">
        <ele>622.59</ele>
        <time>2022-02-24T15:12:41Z</time>
      </trkpt>
      <trkpt lat="45.2358" lon="4.02926">
        <ele>621.63</ele>
        <time>2022-02-24T15:13:16Z</time>
      </trkpt>
      <trkpt lat="45.23581" lon="4.02926">
        <ele>620.67</ele>
        <time>2022-02-24T15:13:51Z</time>
      </trkpt>
      <trkpt lat="45.23581" lon="4.02925">
        <ele>621.63</ele>
        <time>2022-02-24T15:14:26Z</time>
      </trkpt>
      <trkpt lat="45.2358" lon="4.02926">
        <ele>621.63</ele>
        <time>2022-02-24T15:15:08Z</time>
      </trkpt>
      <trkpt lat="45.2358" lon="4.02926">
        <ele>621.63</ele>
        <time>2022-02-24T15:15:25Z</time>
      </trkpt>
      <trkpt lat="45.23579" lon="4.02924">
        <ele>622.59</ele>
        <time>2022-02-24T15:15:35Z</time>
      </trkpt>
      <trkpt lat="45.23577" lon="4.02924">
        <ele>623.07</ele>
        <time>2022-02-24T15:15:48Z</time>
      </trkpt>
      <trkpt lat="45.23572" lon="4.02913">
        <ele>621.15</ele>
        <time>2022-02-24T15:15:58Z</time>
      </trkpt>
      <trkpt lat="45.23565" lon="4.02909">
        <ele>621.63</ele>
        <time>2022-02-24T15:16:06Z</time>
      </trkpt>
      <trkpt lat="45.23546" lon="4.029">
        <ele>621.15</ele>
        <time>2022-02-24T15:16:23Z</time>
      </trkpt>
      <trkpt lat="45.23532" lon="4.02887">
        <ele>622.59</ele>
        <time>2022-02-24T15:16:37Z</time>
      </trkpt>
      <trkpt lat="45.2352" lon="4.02872">
        <ele>624.51</ele>
        <time>2022-02-24T15:16:51Z</time>
      </trkpt>
      <trkpt lat="45.235" lon="4.02855">
        <ele>625.47</ele>
        <time>2022-02-24T15:17:08Z</time>
      </trkpt>
      <trkpt lat="45.23473" lon="4.02846">
        <ele>623.55</ele>
        <time>2022-02-24T15:17:28Z</time>
      </trkpt>
      <trkpt lat="45.23458" lon="4.02844">
        <ele>624.03</ele>
        <time>2022-02-24T15:17:40Z</time>
      </trkpt>
      <trkpt lat="45.23433" lon="4.02834">
        <ele>624.51</ele>
        <time>2022-02-24T15:17:59Z</time>
      </trkpt>
      <trkpt lat="45.2342" lon="4.02827">
        <ele>624.51</ele>
        <time>2022-02-24T15:18:08Z</time>
      </trkpt>
      <trkpt lat="45.23393" lon="4.02814">
        <ele>624.51</ele>
        <time>2022-02-24T15:18:28Z</time>
      </trkpt>
      <trkpt lat="45.23366" lon="4.02806">
        <ele>625.47</ele>
        <time>2022-02-24T15:18:48Z</time>
      </trkpt>
      <trkpt lat="45.23339" lon="4.0281">
        <ele>627.88</ele>
        <time>2022-02-24T15:19:08Z</time>
      </trkpt>
      <trkpt lat="45.23314" lon="4.02818">
        <ele>629.32</ele>
        <time>2022-02-24T15:19:27Z</time>
      </trkpt>
      <trkpt lat="45.23287" lon="4.02826">
        <ele>630.28</ele>
        <time>2022-02-24T15:19:48Z</time>
      </trkpt>
      <trkpt lat="45.23258" lon="4.02827">
        <ele>630.28</ele>
        <time>2022-02-24T15:20:09Z</time>
      </trkpt>
      <trkpt lat="45.23232" lon="4.02819">
        <ele>631.24</ele>
        <time>2022-02-24T15:20:28Z</time>
      </trkpt>
      <trkpt lat="45.23221" lon="4.02815">
        <ele>631.72</ele>
        <time>2022-02-24T15:20:36Z</time>
      </trkpt>
      <trkpt lat="45.23203" lon="4.0281">
        <ele>632.2</ele>
        <time>2022-02-24T15:20:50Z</time>
      </trkpt>
      <trkpt lat="45.23181" lon="4.02807">
        <ele>633.65</ele>
        <time>2022-02-24T15:21:06Z</time>
      </trkpt>
      <trkpt lat="45.23167" lon="4.0281">
        <ele>635.57</ele>
        <time>2022-02-24T15:21:17Z</time>
      </trkpt>
      <trkpt lat="45.23165" lon="4.02815">
        <ele>635.09</ele>
        <time>2022-02-24T15:21:20Z</time>
      </trkpt>
      <trkpt lat="45.23168" lon="4.02847">
        <ele>637.01</ele>
        <time>2022-02-24T15:21:39Z</time>
      </trkpt>
      <trkpt lat="45.23171" lon="4.02869">
        <ele>638.93</ele>
        <time>2022-02-24T15:21:55Z</time>
      </trkpt>
      <trkpt lat="45.23172" lon="4.02879">
        <ele>638.45</ele>
        <time>2022-02-24T15:22:06Z</time>
      </trkpt>
      <trkpt lat="45.2317" lon="4.02903">
        <ele>640.38</ele>
        <time>2022-02-24T15:22:21Z</time>
      </trkpt>
      <trkpt lat="45.23168" lon="4.02931">
        <ele>642.78</ele>
        <time>2022-02-24T15:22:38Z</time>
      </trkpt>
      <trkpt lat="45.23163" lon="4.02951">
        <ele>643.74</ele>
        <time>2022-02-24T15:22:52Z</time>
      </trkpt>
      <trkpt lat="45.23159" lon="4.02958">
        <ele>644.22</ele>
        <time>2022-02-24T15:22:58Z</time>
      </trkpt>
      <trkpt lat="45.23146" lon="4.0298">
        <ele>645.18</ele>
        <time>2022-02-24T15:23:14Z</time>
      </trkpt>
      <trkpt lat="45.23122" lon="4.03006">
        <ele>646.62</ele>
        <time>2022-02-24T15:23:36Z</time>
      </trkpt>
      <trkpt lat="45.23106" lon="4.03026">
        <ele>647.1</ele>
        <time>2022-02-24T15:23:52Z</time>
      </trkpt>
      <trkpt lat="45.23093" lon="4.03044">
        <ele>646.14</ele>
        <time>2022-02-24T15:24:08Z</time>
      </trkpt>
      <trkpt lat="45.23079" lon="4.03062">
        <ele>647.1</ele>
        <time>2022-02-24T15:24:23Z</time>
      </trkpt>
      <trkpt lat="45.23063" lon="4.03082">
        <ele>648.55</ele>
        <time>2022-02-24T15:24:40Z</time>
      </trkpt>
      <trkpt lat="45.23053" lon="4.03094">
        <ele>648.55</ele>
        <time>2022-02-24T15:24:50Z</time>
      </trkpt>
      <trkpt lat="45.23049" lon="4.03099">
        <ele>649.03</ele>
        <time>2022-02-24T15:24:54Z</time>
      </trkpt>
      <trkpt lat="45.23033" lon="4.03122">
        <ele>649.51</ele>
        <time>2022-02-24T15:25:12Z</time>
      </trkpt>
      <trkpt lat="45.23021" lon="4.03142">
        <ele>650.95</ele>
        <time>2022-02-24T15:25:27Z</time>
      </trkpt>
      <trkpt lat="45.23005" lon="4.03152">
        <ele>651.43</ele>
        <time>2022-02-24T15:25:42Z</time>
      </trkpt>
      <trkpt lat="45.22987" lon="4.03153">
        <ele>651.43</ele>
        <time>2022-02-24T15:25:57Z</time>
      </trkpt>
      <trkpt lat="45.22983" lon="4.03158">
        <ele>651.91</ele>
        <time>2022-02-24T15:26:02Z</time>
      </trkpt>
      <trkpt lat="45.22982" lon="4.03167">
        <ele>652.39</ele>
        <time>2022-02-24T15:26:07Z</time>
      </trkpt>
      <trkpt lat="45.22986" lon="4.03181">
        <ele>654.8</ele>
        <time>2022-02-24T15:26:19Z</time>
      </trkpt>
      <trkpt lat="45.22988" lon="4.03185">
        <ele>655.28</ele>
        <time>2022-02-24T15:26:22Z</time>
      </trkpt>
      <trkpt lat="45.22986" lon="4.03192">
        <ele>655.28</ele>
        <time>2022-02-24T15:26:28Z</time>
      </trkpt>
      <trkpt lat="45.2298" lon="4.03199">
        <ele>655.76</ele>
        <time>2022-02-24T15:26:36Z</time>
      </trkpt>
      <trkpt lat="45.22979" lon="4.03199">
        <ele>656.24</ele>
        <time>2022-02-24T15:26:38Z</time>
      </trkpt>
      <trkpt lat="45.22967" lon="4.03207">
        <ele>658.64</ele>
        <time>2022-02-24T15:26:50Z</time>
      </trkpt>
      <trkpt lat="45.22963" lon="4.03209">
        <ele>658.64</ele>
        <time>2022-02-24T15:26:54Z</time>
      </trkpt>
      <trkpt lat="45.22955" lon="4.03216">
        <ele>658.16</ele>
        <time>2022-02-24T15:27:02Z</time>
      </trkpt>
      <trkpt lat="45.22951" lon="4.03218">
        <ele>658.64</ele>
        <time>2022-02-24T15:27:06Z</time>
      </trkpt>
      <trkpt lat="45.22937" lon="4.03233">
        <ele>660.08</ele>
        <time>2022-02-24T15:27:21Z</time>
      </trkpt>
      <trkpt lat="45.2293" lon="4.03241">
        <ele>661.04</ele>
        <time>2022-02-24T15:27:34Z</time>
      </trkpt>
      <trkpt lat="45.22926" lon="4.03243">
        <ele>662.49</ele>
        <time>2022-02-24T15:27:45Z</time>
      </trkpt>
      <trkpt lat="45.22921" lon="4.03241">
        <ele>662.97</ele>
        <time>2022-02-24T15:27:55Z</time>
      </trkpt>
      <trkpt lat="45.22919" lon="4.03241">
        <ele>662.01</ele>
        <time>2022-02-24T15:28:00Z</time>
      </trkpt>
      <trkpt lat="45.22903" lon="4.03235">
        <ele>659.6</ele>
        <time>2022-02-24T15:28:14Z</time>
      </trkpt>
      <trkpt lat="45.229" lon="4.03234">
        <ele>658.64</ele>
        <time>2022-02-24T15:28:17Z</time>
      </trkpt>
      <trkpt lat="45.22889" lon="4.03237">
        <ele>656.24</ele>
        <time>2022-02-24T15:28:27Z</time>
      </trkpt>
      <trkpt lat="45.22885" lon="4.03236">
        <ele>656.72</ele>
        <time>2022-02-24T15:28:31Z</time>
      </trkpt>
      <trkpt lat="45.22881" lon="4.03233">
        <ele>657.2</ele>
        <time>2022-02-24T15:28:35Z</time>
      </trkpt>
      <trkpt lat="45.22881" lon="4.03234">
        <ele>657.68</ele>
        <time>2022-02-24T15:28:37Z</time>
      </trkpt>
      <trkpt lat="45.22883" lon="4.03236">
        <ele>658.16</ele>
        <time>2022-02-24T15:28:51Z</time>
      </trkpt>
      <trkpt lat="45.22882" lon="4.03236">
        <ele>657.68</ele>
        <time>2022-02-24T15:29:15Z</time>
      </trkpt>
      <trkpt lat="45.22881" lon="4.03237">
        <ele>655.76</ele>
        <time>2022-02-24T15:29:49Z</time>
      </trkpt>
      <trkpt lat="45.2288" lon="4.03235">
        <ele>655.76</ele>
        <time>2022-02-24T15:29:54Z</time>
      </trkpt>
      <trkpt lat="45.22872" lon="4.03229">
        <ele>654.8</ele>
        <time>2022-02-24T15:30:00Z</time>
      </trkpt>
      <trkpt lat="45.2286" lon="4.03216">
        <ele>654.8</ele>
        <time>2022-02-24T15:30:08Z</time>
      </trkpt>
      <trkpt lat="45.22856" lon="4.03211">
        <ele>654.8</ele>
        <time>2022-02-24T15:30:11Z</time>
      </trkpt>
      <trkpt lat="45.22846" lon="4.03205">
        <ele>654.8</ele>
        <time>2022-02-24T15:30:17Z</time>
      </trkpt>
      <trkpt lat="45.22817" lon="4.03186">
        <ele>654.31</ele>
        <time>2022-02-24T15:30:35Z</time>
      </trkpt>
      <trkpt lat="45.22789" lon="4.03185">
        <ele>653.35</ele>
        <time>2022-02-24T15:30:48Z</time>
      </trkpt>
      <trkpt lat="45.22765" lon="4.03182">
        <ele>654.31</ele>
        <time>2022-02-24T15:31:04Z</time>
      </trkpt>
      <trkpt lat="45.22763" lon="4.03182">
        <ele>654.31</ele>
        <time>2022-02-24T15:31:05Z</time>
      </trkpt>
      <trkpt lat="45.2274" lon="4.03179">
        <ele>655.28</ele>
        <time>2022-02-24T15:31:23Z</time>
      </trkpt>
      <trkpt lat="45.22731" lon="4.03179">
        <ele>656.72</ele>
        <time>2022-02-24T15:31:30Z</time>
      </trkpt>
      <trkpt lat="45.22716" lon="4.03185">
        <ele>658.16</ele>
        <time>2022-02-24T15:31:42Z</time>
      </trkpt>
      <trkpt lat="45.22699" lon="4.03198">
        <ele>659.12</ele>
        <time>2022-02-24T15:31:59Z</time>
      </trkpt>
      <trkpt lat="45.22684" lon="4.03209">
        <ele>660.56</ele>
        <time>2022-02-24T15:32:13Z</time>
      </trkpt>
      <trkpt lat="45.2267" lon="4.03218">
        <ele>662.01</ele>
        <time>2022-02-24T15:32:27Z</time>
      </trkpt>
      <trkpt lat="45.22655" lon="4.03227">
        <ele>663.45</ele>
        <time>2022-02-24T15:32:42Z</time>
      </trkpt>
      <trkpt lat="45.22638" lon="4.03232">
        <ele>665.37</ele>
        <time>2022-02-24T15:32:56Z</time>
      </trkpt>
      <trkpt lat="45.22616" lon="4.03245">
        <ele>666.33</ele>
        <time>2022-02-24T15:33:14Z</time>
      </trkpt>
      <trkpt lat="45.22598" lon="4.03262">
        <ele>668.25</ele>
        <time>2022-02-24T15:33:30Z</time>
      </trkpt>
      <trkpt lat="45.22584" lon="4.03271">
        <ele>671.14</ele>
        <time>2022-02-24T15:33:46Z</time>
      </trkpt>
      <trkpt lat="45.22581" lon="4.03274">
        <ele>670.18</ele>
        <time>2022-02-24T15:33:51Z</time>
      </trkpt>
      <trkpt lat="45.2258" lon="4.03277">
        <ele>670.18</ele>
        <time>2022-02-24T15:33:53Z</time>
      </trkpt>
      <trkpt lat="45.22569" lon="4.03283">
        <ele>668.73</ele>
        <time>2022-02-24T15:34:03Z</time>
      </trkpt>
      <trkpt lat="45.22551" lon="4.03295">
        <ele>669.22</ele>
        <time>2022-02-24T15:34:20Z</time>
      </trkpt>
      <trkpt lat="45.22544" lon="4.033">
        <ele>669.22</ele>
        <time>2022-02-24T15:34:30Z</time>
      </trkpt>
      <trkpt lat="45.22544" lon="4.03299">
        <ele>668.73</ele>
        <time>2022-02-24T15:34:31Z</time>
      </trkpt>
      <trkpt lat="45.22536" lon="4.03312">
        <ele>667.77</ele>
        <time>2022-02-24T15:34:43Z</time>
      </trkpt>
      <trkpt lat="45.22527" lon="4.03317">
        <ele>668.25</ele>
        <time>2022-02-24T15:34:52Z</time>
      </trkpt>
      <trkpt lat="45.22521" lon="4.03308">
        <ele>669.7</ele>
        <time>2022-02-24T15:35:07Z</time>
      </trkpt>
      <trkpt lat="45.22521" lon="4.03306">
        <ele>669.7</ele>
        <time>2022-02-24T15:35:08Z</time>
      </trkpt>
      <trkpt lat="45.22518" lon="4.03301">
        <ele>669.7</ele>
        <time>2022-02-24T15:35:12Z</time>
      </trkpt>
      <trkpt lat="45.22499" lon="4.03283">
        <ele>670.18</ele>
        <time>2022-02-24T15:35:29Z</time>
      </trkpt>
      <trkpt lat="45.22482" lon="4.03269">
        <ele>672.1</ele>
        <time>2022-02-24T15:35:45Z</time>
      </trkpt>
      <trkpt lat="45.22469" lon="4.03242">
        <ele>674.02</ele>
        <time>2022-02-24T15:36:02Z</time>
      </trkpt>
      <trkpt lat="45.22455" lon="4.03222">
        <ele>674.5</ele>
        <time>2022-02-24T15:36:17Z</time>
      </trkpt>
      <trkpt lat="45.22433" lon="4.03208">
        <ele>674.98</ele>
        <time>2022-02-24T15:36:35Z</time>
      </trkpt>
      <trkpt lat="45.22412" lon="4.03191">
        <ele>675.94</ele>
        <time>2022-02-24T15:36:54Z</time>
      </trkpt>
      <trkpt lat="45.22389" lon="4.03175">
        <ele>675.46</ele>
        <time>2022-02-24T15:37:14Z</time>
      </trkpt>
      <trkpt lat="45.22363" lon="4.03155">
        <ele>675.94</ele>
        <time>2022-02-24T15:37:35Z</time>
      </trkpt>
      <trkpt lat="45.22344" lon="4.03138">
        <ele>674.98</ele>
        <time>2022-02-24T15:37:52Z</time>
      </trkpt>
      <trkpt lat="45.22341" lon="4.03134">
        <ele>674.5</ele>
        <time>2022-02-24T15:37:55Z</time>
      </trkpt>
      <trkpt lat="45.22325" lon="4.03121">
        <ele>672.1</ele>
        <time>2022-02-24T15:38:09Z</time>
      </trkpt>
      <trkpt lat="45.22305" lon="4.03106">
        <ele>667.29</ele>
        <time>2022-02-24T15:38:26Z</time>
      </trkpt>
      <trkpt lat="45.22285" lon="4.03096">
        <ele>664.89</ele>
        <time>2022-02-24T15:38:42Z</time>
      </trkpt>
      <trkpt lat="45.22282" lon="4.03093">
        <ele>664.89</ele>
        <time>2022-02-24T15:38:45Z</time>
      </trkpt>
      <trkpt lat="45.22259" lon="4.03084">
        <ele>662.97</ele>
        <time>2022-02-24T15:39:03Z</time>
      </trkpt>
      <trkpt lat="45.22237" lon="4.03075">
        <ele>661.04</ele>
        <time>2022-02-24T15:39:21Z</time>
      </trkpt>
      <trkpt lat="45.22218" lon="4.03068">
        <ele>659.12</ele>
        <time>2022-02-24T15:39:36Z</time>
      </trkpt>
      <trkpt lat="45.222" lon="4.03062">
        <ele>656.24</ele>
        <time>2022-02-24T15:39:51Z</time>
      </trkpt>
      <trkpt lat="45.22181" lon="4.03057">
        <ele>653.83</ele>
        <time>2022-02-24T15:40:06Z</time>
      </trkpt>
      <trkpt lat="45.22163" lon="4.03053">
        <ele>651.43</ele>
        <time>2022-02-24T15:40:20Z</time>
      </trkpt>
      <trkpt lat="45.22139" lon="4.03051">
        <ele>648.07</ele>
        <time>2022-02-24T15:40:38Z</time>
      </trkpt>
      <trkpt lat="45.22116" lon="4.0305">
        <ele>645.66</ele>
        <time>2022-02-24T15:40:55Z</time>
      </trkpt>
      <trkpt lat="45.22095" lon="4.03047">
        <ele>644.22</ele>
        <time>2022-02-24T15:41:11Z</time>
      </trkpt>
      <trkpt lat="45.22075" lon="4.03043">
        <ele>643.26</ele>
        <time>2022-02-24T15:41:27Z</time>
      </trkpt>
      <trkpt lat="45.22052" lon="4.0304">
        <ele>640.38</ele>
        <time>2022-02-24T15:41:45Z</time>
      </trkpt>
      <trkpt lat="45.22035" lon="4.03039">
        <ele>638.45</ele>
        <time>2022-02-24T15:41:58Z</time>
      </trkpt>
      <trkpt lat="45.22025" lon="4.03042">
        <ele>637.97</ele>
        <time>2022-02-24T15:42:10Z</time>
      </trkpt>
      <trkpt lat="45.22021" lon="4.03046">
        <ele>637.49</ele>
        <time>2022-02-24T15:42:14Z</time>
      </trkpt>
      <trkpt lat="45.22015" lon="4.03047">
        <ele>636.53</ele>
        <time>2022-02-24T15:42:20Z</time>
      </trkpt>
      <trkpt lat="45.22" lon="4.03052">
        <ele>634.13</ele>
        <time>2022-02-24T15:42:36Z</time>
      </trkpt>
      <trkpt lat="45.21986" lon="4.03058">
        <ele>633.17</ele>
        <time>2022-02-24T15:42:51Z</time>
      </trkpt>
      <trkpt lat="45.21984" lon="4.03058">
        <ele>633.17</ele>
        <time>2022-02-24T15:42:53Z</time>
      </trkpt>
      <trkpt lat="45.21976" lon="4.03061">
        <ele>632.2</ele>
        <time>2022-02-24T15:42:59Z</time>
      </trkpt>
      <trkpt lat="45.2197" lon="4.03065">
        <ele>630.28</ele>
        <time>2022-02-24T15:43:04Z</time>
      </trkpt>
      <trkpt lat="45.21953" lon="4.03086">
        <ele>625.96</ele>
        <time>2022-02-24T15:43:20Z</time>
      </trkpt>
      <trkpt lat="45.21936" lon="4.03099">
        <ele>623.55</ele>
        <time>2022-02-24T15:43:34Z</time>
      </trkpt>
      <trkpt lat="45.21921" lon="4.03107">
        <ele>622.11</ele>
        <time>2022-02-24T15:43:47Z</time>
      </trkpt>
      <trkpt lat="45.21909" lon="4.0311">
        <ele>621.15</ele>
        <time>2022-02-24T15:43:59Z</time>
      </trkpt>
      <trkpt lat="45.21901" lon="4.03111">
        <ele>619.71</ele>
        <time>2022-02-24T15:44:06Z</time>
      </trkpt>
      <trkpt lat="45.21896" lon="4.0311">
        <ele>618.26</ele>
        <time>2022-02-24T15:44:10Z</time>
      </trkpt>
      <trkpt lat="45.21879" lon="4.0311">
        <ele>614.42</ele>
        <time>2022-02-24T15:44:24Z</time>
      </trkpt>
      <trkpt lat="45.2187" lon="4.03109">
        <ele>612.02</ele>
        <time>2022-02-24T15:44:32Z</time>
      </trkpt>
      <trkpt lat="45.21855" lon="4.0311">
        <ele>608.65</ele>
        <time>2022-02-24T15:44:46Z</time>
      </trkpt>
      <trkpt lat="45.21851" lon="4.03111">
        <ele>607.21</ele>
        <time>2022-02-24T15:44:49Z</time>
      </trkpt>
      <trkpt lat="45.21835" lon="4.03111">
        <ele>601.44</ele>
        <time>2022-02-24T15:45:05Z</time>
      </trkpt>
      <trkpt lat="45.21822" lon="4.03111">
        <ele>597.6</ele>
        <time>2022-02-24T15:45:18Z</time>
      </trkpt>
      <trkpt lat="45.2182" lon="4.03112">
        <ele>597.6</ele>
        <time>2022-02-24T15:45:20Z</time>
      </trkpt>
      <trkpt lat="45.21807" lon="4.03115">
        <ele>596.15</ele>
        <time>2022-02-24T15:45:34Z</time>
      </trkpt>
      <trkpt lat="45.21802" lon="4.03117">
        <ele>595.19</ele>
        <time>2022-02-24T15:45:39Z</time>
      </trkpt>
      <trkpt lat="45.21797" lon="4.0312">
        <ele>595.19</ele>
        <time>2022-02-24T15:45:44Z</time>
      </trkpt>
      <trkpt lat="45.21786" lon="4.03123">
        <ele>593.27</ele>
        <time>2022-02-24T15:45:53Z</time>
      </trkpt>
      <trkpt lat="45.21767" lon="4.03131">
        <ele>587.5</ele>
        <time>2022-02-24T15:46:09Z</time>
      </trkpt>
      <trkpt lat="45.21755" lon="4.03134">
        <ele>587.98</ele>
        <time>2022-02-24T15:46:19Z</time>
      </trkpt>
      <trkpt lat="45.21742" lon="4.03142">
        <ele>587.5</ele>
        <time>2022-02-24T15:46:30Z</time>
      </trkpt>
      <trkpt lat="45.21742" lon="4.03143">
        <ele>587.5</ele>
        <time>2022-02-24T15:46:31Z</time>
      </trkpt>
      <trkpt lat="45.21734" lon="4.03149">
        <ele>587.98</ele>
        <time>2022-02-24T15:46:38Z</time>
      </trkpt>
      <trkpt lat="45.2173" lon="4.03151">
        <ele>587.02</ele>
        <time>2022-02-24T15:46:42Z</time>
      </trkpt>
      <trkpt lat="45.21722" lon="4.03149">
        <ele>587.5</ele>
        <time>2022-02-24T15:46:48Z</time>
      </trkpt>
      <trkpt lat="45.21706" lon="4.03142">
        <ele>586.54</ele>
        <time>2022-02-24T15:47:03Z</time>
      </trkpt>
      <trkpt lat="45.21691" lon="4.03138">
        <ele>587.5</ele>
        <time>2022-02-24T15:47:16Z</time>
      </trkpt>
      <trkpt lat="45.21683" lon="4.03134">
        <ele>587.5</ele>
        <time>2022-02-24T15:47:23Z</time>
      </trkpt>
      <trkpt lat="45.21667" lon="4.03127">
        <ele>584.62</ele>
        <time>2022-02-24T15:47:36Z</time>
      </trkpt>
      <trkpt lat="45.21666" lon="4.03126">
        <ele>583.18</ele>
        <time>2022-02-24T15:47:38Z</time>
      </trkpt>
      <trkpt lat="45.21646" lon="4.03117">
        <ele>585.58</ele>
        <time>2022-02-24T15:47:53Z</time>
      </trkpt>
      <trkpt lat="45.21631" lon="4.03111">
        <ele>583.66</ele>
        <time>2022-02-24T15:48:07Z</time>
      </trkpt>
      <trkpt lat="45.21629" lon="4.0311">
        <ele>583.18</ele>
        <time>2022-02-24T15:48:09Z</time>
      </trkpt>
      <trkpt lat="45.21624" lon="4.03108">
        <ele>581.73</ele>
        <time>2022-02-24T15:48:14Z</time>
      </trkpt>
      <trkpt lat="45.21616" lon="4.03107">
        <ele>584.14</ele>
        <time>2022-02-24T15:48:24Z</time>
      </trkpt>
      <trkpt lat="45.21607" lon="4.03103">
        <ele>581.73</ele>
        <time>2022-02-24T15:48:37Z</time>
      </trkpt>
      <trkpt lat="45.21591" lon="4.03094">
        <ele>576.45</ele>
        <time>2022-02-24T15:48:50Z</time>
      </trkpt>
      <trkpt lat="45.21585" lon="4.03089">
        <ele>574.53</ele>
        <time>2022-02-24T15:48:55Z</time>
      </trkpt>
      <trkpt lat="45.21578" lon="4.03088">
        <ele>573.56</ele>
        <time>2022-02-24T15:49:06Z</time>
      </trkpt>
      <trkpt lat="45.21577" lon="4.03088">
        <ele>574.04</ele>
        <time>2022-02-24T15:49:07Z</time>
      </trkpt>
      <trkpt lat="45.21561" lon="4.03082">
        <ele>573.08</ele>
        <time>2022-02-24T15:49:19Z</time>
      </trkpt>
      <trkpt lat="45.21542" lon="4.03078">
        <ele>575.49</ele>
        <time>2022-02-24T15:49:32Z</time>
      </trkpt>
      <trkpt lat="45.21524" lon="4.03074">
        <ele>574.53</ele>
        <time>2022-02-24T15:49:44Z</time>
      </trkpt>
      <trkpt lat="45.21501" lon="4.03069">
        <ele>570.68</ele>
        <time>2022-02-24T15:50:01Z</time>
      </trkpt>
      <trkpt lat="45.21481" lon="4.03066">
        <ele>567.8</ele>
        <time>2022-02-24T15:50:16Z</time>
      </trkpt>
      <trkpt lat="45.21462" lon="4.0306">
        <ele>558.18</ele>
        <time>2022-02-24T15:50:32Z</time>
      </trkpt>
      <trkpt lat="45.21445" lon="4.0306">
        <ele>558.18</ele>
        <time>2022-02-24T15:50:46Z</time>
      </trkpt>
      <trkpt lat="45.21427" lon="4.0306">
        <ele>556.74</ele>
        <time>2022-02-24T15:51:00Z</time>
      </trkpt>
      <trkpt lat="45.21416" lon="4.03061">
        <ele>556.26</ele>
        <time>2022-02-24T15:51:08Z</time>
      </trkpt>
      <trkpt lat="45.21396" lon="4.03064">
        <ele>555.78</ele>
        <time>2022-02-24T15:51:22Z</time>
      </trkpt>
      <trkpt lat="45.21377" lon="4.03069">
        <ele>549.53</ele>
        <time>2022-02-24T15:51:37Z</time>
      </trkpt>
      <trkpt lat="45.21364" lon="4.03075">
        <ele>543.76</ele>
        <time>2022-02-24T15:51:48Z</time>
      </trkpt>
      <trkpt lat="45.21352" lon="4.03083">
        <ele>541.84</ele>
        <time>2022-02-24T15:51:58Z</time>
      </trkpt>
      <trkpt lat="45.21348" lon="4.03087">
        <ele>540.88</ele>
        <time>2022-02-24T15:52:02Z</time>
      </trkpt>
      <trkpt lat="45.21331" lon="4.03097">
        <ele>534.15</ele>
        <time>2022-02-24T15:52:15Z</time>
      </trkpt>
      <trkpt lat="45.21312" lon="4.03106">
        <ele>542.32</ele>
        <time>2022-02-24T15:52:27Z</time>
      </trkpt>
      <trkpt lat="45.21311" lon="4.03107">
        <ele>543.28</ele>
        <time>2022-02-24T15:52:28Z</time>
      </trkpt>
      <trkpt lat="45.21302" lon="4.03129">
        <ele>554.82</ele>
        <time>2022-02-24T15:52:42Z</time>
      </trkpt>
      <trkpt lat="45.21288" lon="4.0315">
        <ele>558.66</ele>
        <time>2022-02-24T15:52:59Z</time>
      </trkpt>
      <trkpt lat="45.21274" lon="4.03166">
        <ele>558.66</ele>
        <time>2022-02-24T15:53:15Z</time>
      </trkpt>
      <trkpt lat="45.21261" lon="4.03176">
        <ele>562.03</ele>
        <time>2022-02-24T15:53:29Z</time>
      </trkpt>
      <trkpt lat="45.21249" lon="4.03184">
        <ele>564.91</ele>
        <time>2022-02-24T15:53:42Z</time>
      </trkpt>
      <trkpt lat="45.21234" lon="4.03194">
        <ele>565.87</ele>
        <time>2022-02-24T15:53:59Z</time>
      </trkpt>
      <trkpt lat="45.21223" lon="4.03202">
        <ele>567.8</ele>
        <time>2022-02-24T15:54:11Z</time>
      </trkpt>
      <trkpt lat="45.2121" lon="4.03208">
        <ele>570.68</ele>
        <time>2022-02-24T15:54:25Z</time>
      </trkpt>
      <trkpt lat="45.21207" lon="4.0321">
        <ele>571.16</ele>
        <time>2022-02-24T15:54:28Z</time>
      </trkpt>
      <trkpt lat="45.21195" lon="4.03216">
        <ele>572.6</ele>
        <time>2022-02-24T15:54:41Z</time>
      </trkpt>
      <trkpt lat="45.21183" lon="4.03223">
        <ele>575.01</ele>
        <time>2022-02-24T15:54:54Z</time>
      </trkpt>
      <trkpt lat="45.21172" lon="4.03226">
        <ele>575.01</ele>
        <time>2022-02-24T15:55:07Z</time>
      </trkpt>
      <trkpt lat="45.21171" lon="4.03226">
        <ele>575.01</ele>
        <time>2022-02-24T15:55:08Z</time>
      </trkpt>
      <trkpt lat="45.21157" lon="4.0323">
        <ele>575.49</ele>
        <time>2022-02-24T15:55:24Z</time>
      </trkpt>
      <trkpt lat="45.21153" lon="4.0323">
        <ele>574.53</ele>
        <time>2022-02-24T15:55:29Z</time>
      </trkpt>
      <trkpt lat="45.21145" lon="4.03229">
        <ele>573.56</ele>
        <time>2022-02-24T15:55:36Z</time>
      </trkpt>
      <trkpt lat="45.21137" lon="4.0323">
        <ele>573.08</ele>
        <time>2022-02-24T15:55:43Z</time>
      </trkpt>
      <trkpt lat="45.2113" lon="4.03228">
        <ele>573.08</ele>
        <time>2022-02-24T15:55:50Z</time>
      </trkpt>
      <trkpt lat="45.21107" lon="4.03227">
        <ele>572.6</ele>
        <time>2022-02-24T15:56:08Z</time>
      </trkpt>
      <trkpt lat="45.21086" lon="4.0323">
        <ele>570.68</ele>
        <time>2022-02-24T15:56:25Z</time>
      </trkpt>
      <trkpt lat="45.21073" lon="4.03231">
        <ele>570.2</ele>
        <time>2022-02-24T15:56:35Z</time>
      </trkpt>
      <trkpt lat="45.21063" lon="4.03232">
        <ele>568.76</ele>
        <time>2022-02-24T15:56:43Z</time>
      </trkpt>
      <trkpt lat="45.21047" lon="4.03232">
        <ele>567.8</ele>
        <time>2022-02-24T15:56:55Z</time>
      </trkpt>
      <trkpt lat="45.21025" lon="4.03233">
        <ele>566.83</ele>
        <time>2022-02-24T15:57:12Z</time>
      </trkpt>
      <trkpt lat="45.20999" lon="4.03232">
        <ele>565.87</ele>
        <time>2022-02-24T15:57:32Z</time>
      </trkpt>
      <trkpt lat="45.20973" lon="4.03228">
        <ele>563.47</ele>
        <time>2022-02-24T15:57:52Z</time>
      </trkpt>
      <trkpt lat="45.20952" lon="4.03228">
        <ele>562.03</ele>
        <time>2022-02-24T15:58:08Z</time>
      </trkpt>
      <trkpt lat="45.20929" lon="4.0323">
        <ele>560.59</ele>
        <time>2022-02-24T15:58:26Z</time>
      </trkpt>
      <trkpt lat="45.20907" lon="4.03237">
        <ele>557.7</ele>
        <time>2022-02-24T15:58:43Z</time>
      </trkpt>
      <trkpt lat="45.20889" lon="4.03243">
        <ele>556.26</ele>
        <time>2022-02-24T15:58:58Z</time>
      </trkpt>
      <trkpt lat="45.20866" lon="4.03249">
        <ele>554.34</ele>
        <time>2022-02-24T15:59:16Z</time>
      </trkpt>
      <trkpt lat="45.20843" lon="4.03254">
        <ele>552.41</ele>
        <time>2022-02-24T15:59:33Z</time>
      </trkpt>
      <trkpt lat="45.20818" lon="4.03257">
        <ele>550.49</ele>
        <time>2022-02-24T15:59:52Z</time>
      </trkpt>
      <trkpt lat="45.20798" lon="4.03261">
        <ele>550.01</ele>
        <time>2022-02-24T16:00:07Z</time>
      </trkpt>
      <trkpt lat="45.20796" lon="4.03261">
        <ele>550.01</ele>
        <time>2022-02-24T16:00:08Z</time>
      </trkpt>
      <trkpt lat="45.20778" lon="4.03262">
        <ele>549.53</ele>
        <time>2022-02-24T16:00:23Z</time>
      </trkpt>
      <trkpt lat="45.20752" lon="4.03264">
        <ele>548.57</ele>
        <time>2022-02-24T16:00:42Z</time>
      </trkpt>
      <trkpt lat="45.20723" lon="4.03266">
        <ele>548.57</ele>
        <time>2022-02-24T16:01:02Z</time>
      </trkpt>
      <trkpt lat="45.20704" lon="4.0327">
        <ele>549.05</ele>
        <time>2022-02-24T16:01:17Z</time>
      </trkpt>
      <trkpt lat="45.20678" lon="4.03274">
        <ele>547.61</ele>
        <time>2022-02-24T16:01:36Z</time>
      </trkpt>
      <trkpt lat="45.20655" lon="4.03276">
        <ele>547.61</ele>
        <time>2022-02-24T16:01:53Z</time>
      </trkpt>
      <trkpt lat="45.20633" lon="4.03275">
        <ele>547.61</ele>
        <time>2022-02-24T16:02:10Z</time>
      </trkpt>
      <trkpt lat="45.20609" lon="4.03274">
        <ele>547.13</ele>
        <time>2022-02-24T16:02:28Z</time>
      </trkpt>
      <trkpt lat="45.20585" lon="4.03273">
        <ele>547.13</ele>
        <time>2022-02-24T16:02:46Z</time>
      </trkpt>
      <trkpt lat="45.20568" lon="4.03265">
        <ele>549.05</ele>
        <time>2022-02-24T16:03:01Z</time>
      </trkpt>
      <trkpt lat="45.20546" lon="4.0326">
        <ele>548.57</ele>
        <time>2022-02-24T16:03:17Z</time>
      </trkpt>
      <trkpt lat="45.20525" lon="4.03253">
        <ele>547.61</ele>
        <time>2022-02-24T16:03:33Z</time>
      </trkpt>
      <trkpt lat="45.20511" lon="4.03258">
        <ele>549.05</ele>
        <time>2022-02-24T16:03:45Z</time>
      </trkpt>
      <trkpt lat="45.20492" lon="4.03263">
        <ele>547.61</ele>
        <time>2022-02-24T16:04:00Z</time>
      </trkpt>
      <trkpt lat="45.20471" lon="4.03266">
        <ele>545.2</ele>
        <time>2022-02-24T16:04:16Z</time>
      </trkpt>
      <trkpt lat="45.20466" lon="4.03266">
        <ele>545.69</ele>
        <time>2022-02-24T16:04:20Z</time>
      </trkpt>
      <trkpt lat="45.20462" lon="4.03261">
        <ele>546.17</ele>
        <time>2022-02-24T16:04:25Z</time>
      </trkpt>
      <trkpt lat="45.20455" lon="4.03254">
        <ele>546.65</ele>
        <time>2022-02-24T16:04:31Z</time>
      </trkpt>
      <trkpt lat="45.20441" lon="4.0324">
        <ele>547.61</ele>
        <time>2022-02-24T16:04:45Z</time>
      </trkpt>
      <trkpt lat="45.20423" lon="4.03226">
        <ele>550.49</ele>
        <time>2022-02-24T16:05:02Z</time>
      </trkpt>
      <trkpt lat="45.20421" lon="4.03226">
        <ele>550.97</ele>
        <time>2022-02-24T16:05:04Z</time>
      </trkpt>
      <trkpt lat="45.20413" lon="4.03228">
        <ele>549.53</ele>
        <time>2022-02-24T16:05:11Z</time>
      </trkpt>
      <trkpt lat="45.20403" lon="4.03231">
        <ele>550.97</ele>
        <time>2022-02-24T16:05:23Z</time>
      </trkpt>
      <trkpt lat="45.20384" lon="4.03237">
        <ele>552.9</ele>
        <time>2022-02-24T16:05:32Z</time>
      </trkpt>
      <trkpt lat="45.20379" lon="4.03233">
        <ele>551.93</ele>
        <time>2022-02-24T16:05:36Z</time>
      </trkpt>
      <trkpt lat="45.20377" lon="4.03232">
        <ele>551.93</ele>
        <time>2022-02-24T16:05:38Z</time>
      </trkpt>
      <trkpt lat="45.20364" lon="4.03205">
        <ele>548.57</ele>
        <time>2022-02-24T16:05:55Z</time>
      </trkpt>
      <trkpt lat="45.20363" lon="4.03199">
        <ele>548.09</ele>
        <time>2022-02-24T16:06:00Z</time>
      </trkpt>
      <trkpt lat="45.20359" lon="4.03195">
        <ele>548.09</ele>
        <time>2022-02-24T16:06:04Z</time>
      </trkpt>
      <trkpt lat="45.20335" lon="4.03181">
        <ele>550.97</ele>
        <time>2022-02-24T16:06:23Z</time>
      </trkpt>
      <trkpt lat="45.20327" lon="4.03173">
        <ele>552.9</ele>
        <time>2022-02-24T16:06:32Z</time>
      </trkpt>
      <trkpt lat="45.20323" lon="4.03148">
        <ele>552.9</ele>
        <time>2022-02-24T16:06:48Z</time>
      </trkpt>
      <trkpt lat="45.20323" lon="4.03146">
        <ele>552.41</ele>
        <time>2022-02-24T16:06:49Z</time>
      </trkpt>
      <trkpt lat="45.20328" lon="4.03128">
        <ele>550.01</ele>
        <time>2022-02-24T16:07:01Z</time>
      </trkpt>
      <trkpt lat="45.20332" lon="4.03115">
        <ele>548.09</ele>
        <time>2022-02-24T16:07:09Z</time>
      </trkpt>
      <trkpt lat="45.20334" lon="4.031">
        <ele>547.61</ele>
        <time>2022-02-24T16:07:19Z</time>
      </trkpt>
      <trkpt lat="45.20334" lon="4.03098">
        <ele>547.13</ele>
        <time>2022-02-24T16:07:21Z</time>
      </trkpt>
      <trkpt lat="45.20332" lon="4.03088">
        <ele>544.24</ele>
        <time>2022-02-24T16:07:30Z</time>
      </trkpt>
    </trkseg>
  </trk>
</gpx>